<?xml version="1.0" encoding="UTF-8" standalone="no" ?>
<gpx xmlns="http://www.topografix.com/GPX/1/1" xmlns:xsi="http://www.w3.org/2001/XMLSchema-instance" xsi:schemaLocation="http://www.topografix.com/GPX/1/1 http://www.topografix.com/GPX/1/1/gpx.xsd" version="1.1" creator="VisuGPX - https://www.visugpx.com">
  <metadata>
    <name>2017-10-01 boucle autour de LAUTREC (Tarn)</name>
    <desc><![CDATA[2017-10-01 boucle autour de LAUTREC (Tarn)
réunion de 2 boucles: la boucle des crêtes et la boucle du Tumulus]]></desc>
  </metadata>
  <trk>
    <name><![CDATA[2017-10-01 LAUTREC]]></name>
    <trkseg>
      <trkpt lat="43.70611" lon="2.1373">
        <ele>202.98</ele>
        <time>2017-10-01T07:14:42Z</time>
      </trkpt>
      <trkpt lat="43.70614" lon="2.13727">
        <ele>287.09</ele>
        <time>2017-10-01T07:17:58Z</time>
      </trkpt>
      <trkpt lat="43.70618" lon="2.13717">
        <ele>286.61</ele>
        <time>2017-10-01T07:18:07Z</time>
      </trkpt>
      <trkpt lat="43.70619" lon="2.1371">
        <ele>286.61</ele>
        <time>2017-10-01T07:18:12Z</time>
      </trkpt>
      <trkpt lat="43.70624" lon="2.13703">
        <ele>287.09</ele>
        <time>2017-10-01T07:18:22Z</time>
      </trkpt>
      <trkpt lat="43.70628" lon="2.13706">
        <ele>287.09</ele>
        <time>2017-10-01T07:18:26Z</time>
      </trkpt>
      <trkpt lat="43.70634" lon="2.13714">
        <ele>288.05</ele>
        <time>2017-10-01T07:18:33Z</time>
      </trkpt>
      <trkpt lat="43.70645" lon="2.13724">
        <ele>289.01</ele>
        <time>2017-10-01T07:18:45Z</time>
      </trkpt>
      <trkpt lat="43.70658" lon="2.13734">
        <ele>289.97</ele>
        <time>2017-10-01T07:18:57Z</time>
      </trkpt>
      <trkpt lat="43.70661" lon="2.13736">
        <ele>290.46</ele>
        <time>2017-10-01T07:19:01Z</time>
      </trkpt>
      <trkpt lat="43.70667" lon="2.1374">
        <ele>290.94</ele>
        <time>2017-10-01T07:19:08Z</time>
      </trkpt>
      <trkpt lat="43.70669" lon="2.13741">
        <ele>291.42</ele>
        <time>2017-10-01T07:19:11Z</time>
      </trkpt>
      <trkpt lat="43.70673" lon="2.13746">
        <ele>291.9</ele>
        <time>2017-10-01T07:19:24Z</time>
      </trkpt>
      <trkpt lat="43.7067" lon="2.13744">
        <ele>291.9</ele>
        <time>2017-10-01T07:19:43Z</time>
      </trkpt>
      <trkpt lat="43.70678" lon="2.13748">
        <ele>292.38</ele>
        <time>2017-10-01T07:19:56Z</time>
      </trkpt>
      <trkpt lat="43.70683" lon="2.13751">
        <ele>292.86</ele>
        <time>2017-10-01T07:20:01Z</time>
      </trkpt>
      <trkpt lat="43.70685" lon="2.13752">
        <ele>293.34</ele>
        <time>2017-10-01T07:20:03Z</time>
      </trkpt>
      <trkpt lat="43.70687" lon="2.13754">
        <ele>293.34</ele>
        <time>2017-10-01T07:20:05Z</time>
      </trkpt>
      <trkpt lat="43.7069" lon="2.13756">
        <ele>294.3</ele>
        <time>2017-10-01T07:20:10Z</time>
      </trkpt>
      <trkpt lat="43.70693" lon="2.13759">
        <ele>294.3</ele>
        <time>2017-10-01T07:20:13Z</time>
      </trkpt>
      <trkpt lat="43.70699" lon="2.13761">
        <ele>295.74</ele>
        <time>2017-10-01T07:20:20Z</time>
      </trkpt>
      <trkpt lat="43.70705" lon="2.13769">
        <ele>296.22</ele>
        <time>2017-10-01T07:20:28Z</time>
      </trkpt>
      <trkpt lat="43.7071" lon="2.13773">
        <ele>296.7</ele>
        <time>2017-10-01T07:20:34Z</time>
      </trkpt>
      <trkpt lat="43.70713" lon="2.13775">
        <ele>296.7</ele>
        <time>2017-10-01T07:20:37Z</time>
      </trkpt>
      <trkpt lat="43.7072" lon="2.13781">
        <ele>297.67</ele>
        <time>2017-10-01T07:20:49Z</time>
      </trkpt>
      <trkpt lat="43.70724" lon="2.13785">
        <ele>298.15</ele>
        <time>2017-10-01T07:21:01Z</time>
      </trkpt>
      <trkpt lat="43.70727" lon="2.13788">
        <ele>298.15</ele>
        <time>2017-10-01T07:21:06Z</time>
      </trkpt>
      <trkpt lat="43.70728" lon="2.1379">
        <ele>298.15</ele>
        <time>2017-10-01T07:21:08Z</time>
      </trkpt>
      <trkpt lat="43.70736" lon="2.13796">
        <ele>299.11</ele>
        <time>2017-10-01T07:21:17Z</time>
      </trkpt>
      <trkpt lat="43.70742" lon="2.13803">
        <ele>299.59</ele>
        <time>2017-10-01T07:21:27Z</time>
      </trkpt>
      <trkpt lat="43.70743" lon="2.1381">
        <ele>299.59</ele>
        <time>2017-10-01T07:21:47Z</time>
      </trkpt>
      <trkpt lat="43.70738" lon="2.13818">
        <ele>299.11</ele>
        <time>2017-10-01T07:21:58Z</time>
      </trkpt>
      <trkpt lat="43.70723" lon="2.1383">
        <ele>298.15</ele>
        <time>2017-10-01T07:22:17Z</time>
      </trkpt>
      <trkpt lat="43.70703" lon="2.13843">
        <ele>297.18</ele>
        <time>2017-10-01T07:23:48Z</time>
      </trkpt>
      <trkpt lat="43.70687" lon="2.13855">
        <ele>296.7</ele>
        <time>2017-10-01T07:24:05Z</time>
      </trkpt>
      <trkpt lat="43.70676" lon="2.13866">
        <ele>296.7</ele>
        <time>2017-10-01T07:24:25Z</time>
      </trkpt>
      <trkpt lat="43.70667" lon="2.13868">
        <ele>296.22</ele>
        <time>2017-10-01T07:24:38Z</time>
      </trkpt>
      <trkpt lat="43.70658" lon="2.13876">
        <ele>295.74</ele>
        <time>2017-10-01T07:24:54Z</time>
      </trkpt>
      <trkpt lat="43.70642" lon="2.1388">
        <ele>295.26</ele>
        <time>2017-10-01T07:25:12Z</time>
      </trkpt>
      <trkpt lat="43.70631" lon="2.13884">
        <ele>296.22</ele>
        <time>2017-10-01T07:27:36Z</time>
      </trkpt>
      <trkpt lat="43.70626" lon="2.13887">
        <ele>296.22</ele>
        <time>2017-10-01T07:27:52Z</time>
      </trkpt>
      <trkpt lat="43.70611" lon="2.13893">
        <ele>296.7</ele>
        <time>2017-10-01T07:28:24Z</time>
      </trkpt>
      <trkpt lat="43.70597" lon="2.139">
        <ele>297.67</ele>
        <time>2017-10-01T07:28:41Z</time>
      </trkpt>
      <trkpt lat="43.70594" lon="2.13897">
        <ele>297.67</ele>
        <time>2017-10-01T07:29:14Z</time>
      </trkpt>
      <trkpt lat="43.7059" lon="2.13888">
        <ele>297.67</ele>
        <time>2017-10-01T07:29:28Z</time>
      </trkpt>
      <trkpt lat="43.70586" lon="2.13883">
        <ele>297.67</ele>
        <time>2017-10-01T07:29:32Z</time>
      </trkpt>
      <trkpt lat="43.70578" lon="2.13868">
        <ele>298.15</ele>
        <time>2017-10-01T07:29:45Z</time>
      </trkpt>
      <trkpt lat="43.70574" lon="2.1386">
        <ele>298.15</ele>
        <time>2017-10-01T07:29:54Z</time>
      </trkpt>
      <trkpt lat="43.70567" lon="2.13847">
        <ele>298.15</ele>
        <time>2017-10-01T07:30:11Z</time>
      </trkpt>
      <trkpt lat="43.7056" lon="2.13836">
        <ele>297.67</ele>
        <time>2017-10-01T07:30:24Z</time>
      </trkpt>
      <trkpt lat="43.7056" lon="2.13836">
        <ele>298.15</ele>
        <time>2017-10-01T07:30:25Z</time>
      </trkpt>
      <trkpt lat="43.70553" lon="2.13829">
        <ele>297.67</ele>
        <time>2017-10-01T07:30:40Z</time>
      </trkpt>
      <trkpt lat="43.70548" lon="2.13833">
        <ele>298.15</ele>
        <time>2017-10-01T07:30:52Z</time>
      </trkpt>
      <trkpt lat="43.7054" lon="2.1384">
        <ele>298.15</ele>
        <time>2017-10-01T07:31:09Z</time>
      </trkpt>
      <trkpt lat="43.70531" lon="2.1383">
        <ele>301.99</ele>
        <time>2017-10-01T07:32:03Z</time>
      </trkpt>
      <trkpt lat="43.70523" lon="2.13826">
        <ele>303.91</ele>
        <time>2017-10-01T07:32:13Z</time>
      </trkpt>
      <trkpt lat="43.70521" lon="2.13824">
        <ele>304.88</ele>
        <time>2017-10-01T07:32:16Z</time>
      </trkpt>
      <trkpt lat="43.70513" lon="2.13816">
        <ele>307.76</ele>
        <time>2017-10-01T07:32:32Z</time>
      </trkpt>
      <trkpt lat="43.70509" lon="2.13809">
        <ele>310.16</ele>
        <time>2017-10-01T07:32:46Z</time>
      </trkpt>
      <trkpt lat="43.70508" lon="2.13807">
        <ele>311.6</ele>
        <time>2017-10-01T07:33:00Z</time>
      </trkpt>
      <trkpt lat="43.70509" lon="2.13808">
        <ele>311.6</ele>
        <time>2017-10-01T07:33:16Z</time>
      </trkpt>
      <trkpt lat="43.70507" lon="2.13806">
        <ele>312.09</ele>
        <time>2017-10-01T07:33:33Z</time>
      </trkpt>
      <trkpt lat="43.70502" lon="2.13801">
        <ele>314.97</ele>
        <time>2017-10-01T07:33:47Z</time>
      </trkpt>
      <trkpt lat="43.70505" lon="2.13793">
        <ele>315.45</ele>
        <time>2017-10-01T07:33:56Z</time>
      </trkpt>
      <trkpt lat="43.70509" lon="2.13789">
        <ele>314.49</ele>
        <time>2017-10-01T07:34:11Z</time>
      </trkpt>
      <trkpt lat="43.7051" lon="2.13784">
        <ele>314.01</ele>
        <time>2017-10-01T07:34:19Z</time>
      </trkpt>
      <trkpt lat="43.7051" lon="2.13778">
        <ele>314.01</ele>
        <time>2017-10-01T07:34:23Z</time>
      </trkpt>
      <trkpt lat="43.70501" lon="2.13777">
        <ele>316.41</ele>
        <time>2017-10-01T07:37:53Z</time>
      </trkpt>
      <trkpt lat="43.705" lon="2.13773">
        <ele>316.89</ele>
        <time>2017-10-01T07:38:08Z</time>
      </trkpt>
      <trkpt lat="43.70495" lon="2.13771">
        <ele>317.37</ele>
        <time>2017-10-01T07:38:15Z</time>
      </trkpt>
      <trkpt lat="43.70487" lon="2.13763">
        <ele>320.26</ele>
        <time>2017-10-01T07:38:29Z</time>
      </trkpt>
      <trkpt lat="43.70482" lon="2.1376">
        <ele>322.18</ele>
        <time>2017-10-01T07:38:40Z</time>
      </trkpt>
      <trkpt lat="43.70473" lon="2.13755">
        <ele>322.18</ele>
        <time>2017-10-01T07:38:51Z</time>
      </trkpt>
      <trkpt lat="43.70459" lon="2.13758">
        <ele>323.62</ele>
        <time>2017-10-01T07:39:07Z</time>
      </trkpt>
      <trkpt lat="43.70455" lon="2.13772">
        <ele>325.06</ele>
        <time>2017-10-01T07:39:20Z</time>
      </trkpt>
      <trkpt lat="43.70455" lon="2.13778">
        <ele>325.54</ele>
        <time>2017-10-01T07:39:25Z</time>
      </trkpt>
      <trkpt lat="43.70461" lon="2.13785">
        <ele>327.47</ele>
        <time>2017-10-01T07:39:39Z</time>
      </trkpt>
      <trkpt lat="43.70468" lon="2.1378">
        <ele>329.87</ele>
        <time>2017-10-01T07:39:52Z</time>
      </trkpt>
      <trkpt lat="43.70469" lon="2.13771">
        <ele>331.79</ele>
        <time>2017-10-01T07:40:05Z</time>
      </trkpt>
      <trkpt lat="43.70464" lon="2.13775">
        <ele>331.79</ele>
        <time>2017-10-01T07:40:18Z</time>
      </trkpt>
      <trkpt lat="43.70463" lon="2.13775">
        <ele>331.79</ele>
        <time>2017-10-01T07:42:23Z</time>
      </trkpt>
      <trkpt lat="43.70468" lon="2.13768">
        <ele>331.79</ele>
        <time>2017-10-01T07:42:39Z</time>
      </trkpt>
      <trkpt lat="43.7047" lon="2.13767">
        <ele>331.79</ele>
        <time>2017-10-01T07:43:01Z</time>
      </trkpt>
      <trkpt lat="43.70472" lon="2.13782">
        <ele>329.87</ele>
        <time>2017-10-01T07:43:13Z</time>
      </trkpt>
      <trkpt lat="43.70462" lon="2.13786">
        <ele>327.47</ele>
        <time>2017-10-01T07:43:26Z</time>
      </trkpt>
      <trkpt lat="43.70457" lon="2.13786">
        <ele>326.99</ele>
        <time>2017-10-01T07:43:31Z</time>
      </trkpt>
      <trkpt lat="43.70452" lon="2.13781">
        <ele>326.02</ele>
        <time>2017-10-01T07:43:37Z</time>
      </trkpt>
      <trkpt lat="43.70452" lon="2.13776">
        <ele>325.54</ele>
        <time>2017-10-01T07:43:40Z</time>
      </trkpt>
      <trkpt lat="43.70453" lon="2.13766">
        <ele>324.58</ele>
        <time>2017-10-01T07:43:46Z</time>
      </trkpt>
      <trkpt lat="43.70461" lon="2.13754">
        <ele>322.66</ele>
        <time>2017-10-01T07:43:59Z</time>
      </trkpt>
      <trkpt lat="43.70468" lon="2.13754">
        <ele>322.18</ele>
        <time>2017-10-01T07:44:11Z</time>
      </trkpt>
      <trkpt lat="43.70474" lon="2.13763">
        <ele>321.22</ele>
        <time>2017-10-01T07:44:23Z</time>
      </trkpt>
      <trkpt lat="43.70479" lon="2.1377">
        <ele>321.22</ele>
        <time>2017-10-01T07:44:38Z</time>
      </trkpt>
      <trkpt lat="43.70483" lon="2.13783">
        <ele>319.78</ele>
        <time>2017-10-01T07:44:51Z</time>
      </trkpt>
      <trkpt lat="43.7048" lon="2.13793">
        <ele>318.33</ele>
        <time>2017-10-01T07:45:03Z</time>
      </trkpt>
      <trkpt lat="43.7048" lon="2.138">
        <ele>316.89</ele>
        <time>2017-10-01T07:45:16Z</time>
      </trkpt>
      <trkpt lat="43.70477" lon="2.13803">
        <ele>315.93</ele>
        <time>2017-10-01T07:45:29Z</time>
      </trkpt>
      <trkpt lat="43.70479" lon="2.13802">
        <ele>316.41</ele>
        <time>2017-10-01T07:45:55Z</time>
      </trkpt>
      <trkpt lat="43.70474" lon="2.13803">
        <ele>315.93</ele>
        <time>2017-10-01T07:46:16Z</time>
      </trkpt>
      <trkpt lat="43.70465" lon="2.13811">
        <ele>314.01</ele>
        <time>2017-10-01T07:46:29Z</time>
      </trkpt>
      <trkpt lat="43.7046" lon="2.13815">
        <ele>312.57</ele>
        <time>2017-10-01T07:46:36Z</time>
      </trkpt>
      <trkpt lat="43.70447" lon="2.13817">
        <ele>310.16</ele>
        <time>2017-10-01T07:46:49Z</time>
      </trkpt>
      <trkpt lat="43.70445" lon="2.13816">
        <ele>309.68</ele>
        <time>2017-10-01T07:46:52Z</time>
      </trkpt>
      <trkpt lat="43.70438" lon="2.1381">
        <ele>308.24</ele>
        <time>2017-10-01T07:47:01Z</time>
      </trkpt>
      <trkpt lat="43.70436" lon="2.13814">
        <ele>307.28</ele>
        <time>2017-10-01T07:47:06Z</time>
      </trkpt>
      <trkpt lat="43.70434" lon="2.13817">
        <ele>306.8</ele>
        <time>2017-10-01T07:47:10Z</time>
      </trkpt>
      <trkpt lat="43.70431" lon="2.13816">
        <ele>306.32</ele>
        <time>2017-10-01T07:47:13Z</time>
      </trkpt>
      <trkpt lat="43.70425" lon="2.13811">
        <ele>305.84</ele>
        <time>2017-10-01T07:47:20Z</time>
      </trkpt>
      <trkpt lat="43.70424" lon="2.13808">
        <ele>305.36</ele>
        <time>2017-10-01T07:47:22Z</time>
      </trkpt>
      <trkpt lat="43.70421" lon="2.13805">
        <ele>304.88</ele>
        <time>2017-10-01T07:47:25Z</time>
      </trkpt>
      <trkpt lat="43.70419" lon="2.13801">
        <ele>304.39</ele>
        <time>2017-10-01T07:47:29Z</time>
      </trkpt>
      <trkpt lat="43.70417" lon="2.13795">
        <ele>304.39</ele>
        <time>2017-10-01T07:47:33Z</time>
      </trkpt>
      <trkpt lat="43.70414" lon="2.13789">
        <ele>303.43</ele>
        <time>2017-10-01T07:47:38Z</time>
      </trkpt>
      <trkpt lat="43.70412" lon="2.13771">
        <ele>301.99</ele>
        <time>2017-10-01T07:47:52Z</time>
      </trkpt>
      <trkpt lat="43.70411" lon="2.13763">
        <ele>301.51</ele>
        <time>2017-10-01T07:47:58Z</time>
      </trkpt>
      <trkpt lat="43.70415" lon="2.13743">
        <ele>299.59</ele>
        <time>2017-10-01T07:48:15Z</time>
      </trkpt>
      <trkpt lat="43.70417" lon="2.13734">
        <ele>298.63</ele>
        <time>2017-10-01T07:48:22Z</time>
      </trkpt>
      <trkpt lat="43.70423" lon="2.13721">
        <ele>297.67</ele>
        <time>2017-10-01T07:48:35Z</time>
      </trkpt>
      <trkpt lat="43.7043" lon="2.13708">
        <ele>296.22</ele>
        <time>2017-10-01T07:48:47Z</time>
      </trkpt>
      <trkpt lat="43.70438" lon="2.13697">
        <ele>295.26</ele>
        <time>2017-10-01T07:48:59Z</time>
      </trkpt>
      <trkpt lat="43.70448" lon="2.13684">
        <ele>293.82</ele>
        <time>2017-10-01T07:49:14Z</time>
      </trkpt>
      <trkpt lat="43.70459" lon="2.13675">
        <ele>291.9</ele>
        <time>2017-10-01T07:49:28Z</time>
      </trkpt>
      <trkpt lat="43.70462" lon="2.13673">
        <ele>291.9</ele>
        <time>2017-10-01T07:49:31Z</time>
      </trkpt>
      <trkpt lat="43.70472" lon="2.13667">
        <ele>290.94</ele>
        <time>2017-10-01T07:49:44Z</time>
      </trkpt>
      <trkpt lat="43.70484" lon="2.13663">
        <ele>289.97</ele>
        <time>2017-10-01T07:49:57Z</time>
      </trkpt>
      <trkpt lat="43.70485" lon="2.13663">
        <ele>289.97</ele>
        <time>2017-10-01T07:49:58Z</time>
      </trkpt>
      <trkpt lat="43.70497" lon="2.13656">
        <ele>289.01</ele>
        <time>2017-10-01T07:50:12Z</time>
      </trkpt>
      <trkpt lat="43.70498" lon="2.13655">
        <ele>288.53</ele>
        <time>2017-10-01T07:50:13Z</time>
      </trkpt>
      <trkpt lat="43.70507" lon="2.13645">
        <ele>288.05</ele>
        <time>2017-10-01T07:50:25Z</time>
      </trkpt>
      <trkpt lat="43.70508" lon="2.13635">
        <ele>287.09</ele>
        <time>2017-10-01T07:50:34Z</time>
      </trkpt>
      <trkpt lat="43.70498" lon="2.13626">
        <ele>285.17</ele>
        <time>2017-10-01T07:50:48Z</time>
      </trkpt>
      <trkpt lat="43.70493" lon="2.13621">
        <ele>284.21</ele>
        <time>2017-10-01T07:50:56Z</time>
      </trkpt>
      <trkpt lat="43.70482" lon="2.13608">
        <ele>282.28</ele>
        <time>2017-10-01T07:51:13Z</time>
      </trkpt>
      <trkpt lat="43.70471" lon="2.13602">
        <ele>280.84</ele>
        <time>2017-10-01T07:51:25Z</time>
      </trkpt>
      <trkpt lat="43.70461" lon="2.13603">
        <ele>278.92</ele>
        <time>2017-10-01T07:51:39Z</time>
      </trkpt>
      <trkpt lat="43.70457" lon="2.13603">
        <ele>278.44</ele>
        <time>2017-10-01T07:51:42Z</time>
      </trkpt>
      <trkpt lat="43.70444" lon="2.13607">
        <ele>277.48</ele>
        <time>2017-10-01T07:51:54Z</time>
      </trkpt>
      <trkpt lat="43.7044" lon="2.13609">
        <ele>276.52</ele>
        <time>2017-10-01T07:51:59Z</time>
      </trkpt>
      <trkpt lat="43.70432" lon="2.13607">
        <ele>275.07</ele>
        <time>2017-10-01T07:52:07Z</time>
      </trkpt>
      <trkpt lat="43.70428" lon="2.13602">
        <ele>274.11</ele>
        <time>2017-10-01T07:52:13Z</time>
      </trkpt>
      <trkpt lat="43.70418" lon="2.13591">
        <ele>271.23</ele>
        <time>2017-10-01T07:52:29Z</time>
      </trkpt>
      <trkpt lat="43.7041" lon="2.13581">
        <ele>268.83</ele>
        <time>2017-10-01T07:52:42Z</time>
      </trkpt>
      <trkpt lat="43.70408" lon="2.13579">
        <ele>268.35</ele>
        <time>2017-10-01T07:52:45Z</time>
      </trkpt>
      <trkpt lat="43.70395" lon="2.13578">
        <ele>267.38</ele>
        <time>2017-10-01T07:52:57Z</time>
      </trkpt>
      <trkpt lat="43.7039" lon="2.13579">
        <ele>266.9</ele>
        <time>2017-10-01T07:53:01Z</time>
      </trkpt>
      <trkpt lat="43.70384" lon="2.13573">
        <ele>266.42</ele>
        <time>2017-10-01T07:53:09Z</time>
      </trkpt>
      <trkpt lat="43.7038" lon="2.13566">
        <ele>265.46</ele>
        <time>2017-10-01T07:53:15Z</time>
      </trkpt>
      <trkpt lat="43.70376" lon="2.13557">
        <ele>264.5</ele>
        <time>2017-10-01T07:53:23Z</time>
      </trkpt>
      <trkpt lat="43.70371" lon="2.13549">
        <ele>262.58</ele>
        <time>2017-10-01T07:53:31Z</time>
      </trkpt>
      <trkpt lat="43.70364" lon="2.13537">
        <ele>260.65</ele>
        <time>2017-10-01T07:53:44Z</time>
      </trkpt>
      <trkpt lat="43.70358" lon="2.13524">
        <ele>259.21</ele>
        <time>2017-10-01T07:53:57Z</time>
      </trkpt>
      <trkpt lat="43.70352" lon="2.13513">
        <ele>258.25</ele>
        <time>2017-10-01T07:54:10Z</time>
      </trkpt>
      <trkpt lat="43.70353" lon="2.1351">
        <ele>258.25</ele>
        <time>2017-10-01T07:54:28Z</time>
      </trkpt>
      <trkpt lat="43.70351" lon="2.13504">
        <ele>258.25</ele>
        <time>2017-10-01T07:54:46Z</time>
      </trkpt>
      <trkpt lat="43.70351" lon="2.13488">
        <ele>256.81</ele>
        <time>2017-10-01T07:55:01Z</time>
      </trkpt>
      <trkpt lat="43.70349" lon="2.13476">
        <ele>256.33</ele>
        <time>2017-10-01T07:55:12Z</time>
      </trkpt>
      <trkpt lat="43.70347" lon="2.13465">
        <ele>255.37</ele>
        <time>2017-10-01T07:55:24Z</time>
      </trkpt>
      <trkpt lat="43.70347" lon="2.13439">
        <ele>253.93</ele>
        <time>2017-10-01T07:55:57Z</time>
      </trkpt>
      <trkpt lat="43.70344" lon="2.13422">
        <ele>252.96</ele>
        <time>2017-10-01T07:56:13Z</time>
      </trkpt>
      <trkpt lat="43.70343" lon="2.13388">
        <ele>252</ele>
        <time>2017-10-01T07:56:39Z</time>
      </trkpt>
      <trkpt lat="43.70343" lon="2.13377">
        <ele>251.04</ele>
        <time>2017-10-01T07:56:48Z</time>
      </trkpt>
      <trkpt lat="43.70343" lon="2.13374">
        <ele>251.04</ele>
        <time>2017-10-01T07:56:50Z</time>
      </trkpt>
      <trkpt lat="43.70344" lon="2.13357">
        <ele>250.08</ele>
        <time>2017-10-01T07:57:03Z</time>
      </trkpt>
      <trkpt lat="43.70343" lon="2.1333">
        <ele>249.12</ele>
        <time>2017-10-01T07:57:19Z</time>
      </trkpt>
      <trkpt lat="43.70344" lon="2.13317">
        <ele>248.16</ele>
        <time>2017-10-01T07:57:28Z</time>
      </trkpt>
      <trkpt lat="43.70344" lon="2.13313">
        <ele>247.68</ele>
        <time>2017-10-01T07:57:31Z</time>
      </trkpt>
      <trkpt lat="43.70345" lon="2.13299">
        <ele>246.23</ele>
        <time>2017-10-01T07:57:42Z</time>
      </trkpt>
      <trkpt lat="43.70347" lon="2.13283">
        <ele>244.31</ele>
        <time>2017-10-01T07:57:55Z</time>
      </trkpt>
      <trkpt lat="43.70349" lon="2.13266">
        <ele>242.39</ele>
        <time>2017-10-01T07:58:08Z</time>
      </trkpt>
      <trkpt lat="43.7035" lon="2.13251">
        <ele>240.95</ele>
        <time>2017-10-01T07:58:20Z</time>
      </trkpt>
      <trkpt lat="43.70351" lon="2.13238">
        <ele>239.02</ele>
        <time>2017-10-01T07:58:31Z</time>
      </trkpt>
      <trkpt lat="43.70351" lon="2.13233">
        <ele>238.54</ele>
        <time>2017-10-01T07:58:34Z</time>
      </trkpt>
      <trkpt lat="43.7035" lon="2.13214">
        <ele>236.62</ele>
        <time>2017-10-01T07:58:48Z</time>
      </trkpt>
      <trkpt lat="43.7035" lon="2.13209">
        <ele>236.14</ele>
        <time>2017-10-01T07:58:52Z</time>
      </trkpt>
      <trkpt lat="43.70347" lon="2.13189">
        <ele>234.7</ele>
        <time>2017-10-01T07:59:07Z</time>
      </trkpt>
      <trkpt lat="43.70345" lon="2.13171">
        <ele>233.74</ele>
        <time>2017-10-01T07:59:21Z</time>
      </trkpt>
      <trkpt lat="43.70341" lon="2.13154">
        <ele>232.78</ele>
        <time>2017-10-01T07:59:34Z</time>
      </trkpt>
      <trkpt lat="43.70338" lon="2.13124">
        <ele>231.81</ele>
        <time>2017-10-01T08:00:03Z</time>
      </trkpt>
      <trkpt lat="43.70337" lon="2.13119">
        <ele>231.81</ele>
        <time>2017-10-01T08:00:07Z</time>
      </trkpt>
      <trkpt lat="43.70334" lon="2.13101">
        <ele>231.33</ele>
        <time>2017-10-01T08:00:20Z</time>
      </trkpt>
      <trkpt lat="43.70333" lon="2.13093">
        <ele>231.33</ele>
        <time>2017-10-01T08:00:27Z</time>
      </trkpt>
      <trkpt lat="43.70329" lon="2.13073">
        <ele>231.33</ele>
        <time>2017-10-01T08:00:42Z</time>
      </trkpt>
      <trkpt lat="43.70327" lon="2.13054">
        <ele>231.33</ele>
        <time>2017-10-01T08:00:56Z</time>
      </trkpt>
      <trkpt lat="43.70326" lon="2.13048">
        <ele>231.81</ele>
        <time>2017-10-01T08:01:00Z</time>
      </trkpt>
      <trkpt lat="43.70324" lon="2.1304">
        <ele>231.81</ele>
        <time>2017-10-01T08:01:06Z</time>
      </trkpt>
      <trkpt lat="43.70321" lon="2.1302">
        <ele>232.3</ele>
        <time>2017-10-01T08:01:21Z</time>
      </trkpt>
      <trkpt lat="43.70319" lon="2.13006">
        <ele>232.78</ele>
        <time>2017-10-01T08:01:32Z</time>
      </trkpt>
      <trkpt lat="43.70319" lon="2.13002">
        <ele>232.78</ele>
        <time>2017-10-01T08:01:35Z</time>
      </trkpt>
      <trkpt lat="43.70315" lon="2.12985">
        <ele>234.7</ele>
        <time>2017-10-01T08:01:48Z</time>
      </trkpt>
      <trkpt lat="43.70312" lon="2.12969">
        <ele>236.14</ele>
        <time>2017-10-01T08:02:01Z</time>
      </trkpt>
      <trkpt lat="43.70313" lon="2.12963">
        <ele>236.62</ele>
        <time>2017-10-01T08:02:05Z</time>
      </trkpt>
      <trkpt lat="43.70312" lon="2.12955">
        <ele>236.62</ele>
        <time>2017-10-01T08:02:11Z</time>
      </trkpt>
      <trkpt lat="43.70311" lon="2.12946">
        <ele>237.1</ele>
        <time>2017-10-01T08:02:18Z</time>
      </trkpt>
      <trkpt lat="43.7031" lon="2.12937">
        <ele>237.58</ele>
        <time>2017-10-01T08:02:24Z</time>
      </trkpt>
      <trkpt lat="43.70308" lon="2.12929">
        <ele>238.54</ele>
        <time>2017-10-01T08:02:30Z</time>
      </trkpt>
      <trkpt lat="43.70308" lon="2.12921">
        <ele>239.02</ele>
        <time>2017-10-01T08:02:36Z</time>
      </trkpt>
      <trkpt lat="43.70304" lon="2.12902">
        <ele>240.95</ele>
        <time>2017-10-01T08:02:50Z</time>
      </trkpt>
      <trkpt lat="43.70303" lon="2.12895">
        <ele>241.43</ele>
        <time>2017-10-01T08:02:55Z</time>
      </trkpt>
      <trkpt lat="43.70302" lon="2.12877">
        <ele>243.35</ele>
        <time>2017-10-01T08:03:15Z</time>
      </trkpt>
      <trkpt lat="43.70301" lon="2.12875">
        <ele>243.83</ele>
        <time>2017-10-01T08:03:17Z</time>
      </trkpt>
      <trkpt lat="43.70299" lon="2.1286">
        <ele>245.27</ele>
        <time>2017-10-01T08:03:28Z</time>
      </trkpt>
      <trkpt lat="43.70299" lon="2.12852">
        <ele>245.75</ele>
        <time>2017-10-01T08:03:33Z</time>
      </trkpt>
      <trkpt lat="43.70299" lon="2.12842">
        <ele>246.72</ele>
        <time>2017-10-01T08:03:41Z</time>
      </trkpt>
      <trkpt lat="43.70298" lon="2.12827">
        <ele>248.16</ele>
        <time>2017-10-01T08:03:53Z</time>
      </trkpt>
      <trkpt lat="43.70298" lon="2.12818">
        <ele>248.64</ele>
        <time>2017-10-01T08:03:59Z</time>
      </trkpt>
      <trkpt lat="43.70299" lon="2.12801">
        <ele>249.6</ele>
        <time>2017-10-01T08:04:11Z</time>
      </trkpt>
      <trkpt lat="43.70299" lon="2.128">
        <ele>250.08</ele>
        <time>2017-10-01T08:04:12Z</time>
      </trkpt>
      <trkpt lat="43.703" lon="2.12794">
        <ele>250.56</ele>
        <time>2017-10-01T08:04:17Z</time>
      </trkpt>
      <trkpt lat="43.70301" lon="2.1279">
        <ele>250.56</ele>
        <time>2017-10-01T08:04:20Z</time>
      </trkpt>
      <trkpt lat="43.70302" lon="2.12782">
        <ele>251.52</ele>
        <time>2017-10-01T08:04:27Z</time>
      </trkpt>
      <trkpt lat="43.70303" lon="2.12764">
        <ele>252.96</ele>
        <time>2017-10-01T08:04:41Z</time>
      </trkpt>
      <trkpt lat="43.70304" lon="2.1275">
        <ele>254.41</ele>
        <time>2017-10-01T08:04:53Z</time>
      </trkpt>
      <trkpt lat="43.70305" lon="2.12743">
        <ele>254.89</ele>
        <time>2017-10-01T08:04:59Z</time>
      </trkpt>
      <trkpt lat="43.70304" lon="2.12729">
        <ele>255.85</ele>
        <time>2017-10-01T08:05:13Z</time>
      </trkpt>
      <trkpt lat="43.70306" lon="2.12726">
        <ele>256.33</ele>
        <time>2017-10-01T08:05:16Z</time>
      </trkpt>
      <trkpt lat="43.70311" lon="2.1272">
        <ele>257.29</ele>
        <time>2017-10-01T08:05:24Z</time>
      </trkpt>
      <trkpt lat="43.70333" lon="2.12704">
        <ele>258.73</ele>
        <time>2017-10-01T08:05:51Z</time>
      </trkpt>
      <trkpt lat="43.70339" lon="2.12696">
        <ele>259.21</ele>
        <time>2017-10-01T08:06:00Z</time>
      </trkpt>
      <trkpt lat="43.70343" lon="2.12693">
        <ele>259.21</ele>
        <time>2017-10-01T08:06:04Z</time>
      </trkpt>
      <trkpt lat="43.70344" lon="2.12692">
        <ele>259.21</ele>
        <time>2017-10-01T08:06:06Z</time>
      </trkpt>
      <trkpt lat="43.70354" lon="2.12682">
        <ele>259.21</ele>
        <time>2017-10-01T08:06:18Z</time>
      </trkpt>
      <trkpt lat="43.70363" lon="2.12674">
        <ele>259.69</ele>
        <time>2017-10-01T08:06:29Z</time>
      </trkpt>
      <trkpt lat="43.70372" lon="2.12665">
        <ele>260.17</ele>
        <time>2017-10-01T08:06:42Z</time>
      </trkpt>
      <trkpt lat="43.70383" lon="2.12654">
        <ele>260.65</ele>
        <time>2017-10-01T08:06:56Z</time>
      </trkpt>
      <trkpt lat="43.70386" lon="2.12651">
        <ele>261.14</ele>
        <time>2017-10-01T08:07:00Z</time>
      </trkpt>
      <trkpt lat="43.70394" lon="2.12643">
        <ele>261.62</ele>
        <time>2017-10-01T08:07:10Z</time>
      </trkpt>
      <trkpt lat="43.70399" lon="2.12638">
        <ele>261.62</ele>
        <time>2017-10-01T08:07:17Z</time>
      </trkpt>
      <trkpt lat="43.70401" lon="2.12635">
        <ele>262.1</ele>
        <time>2017-10-01T08:07:22Z</time>
      </trkpt>
      <trkpt lat="43.70413" lon="2.12623">
        <ele>263.06</ele>
        <time>2017-10-01T08:07:36Z</time>
      </trkpt>
      <trkpt lat="43.70419" lon="2.12614">
        <ele>263.54</ele>
        <time>2017-10-01T08:07:46Z</time>
      </trkpt>
      <trkpt lat="43.70421" lon="2.12611">
        <ele>264.02</ele>
        <time>2017-10-01T08:07:49Z</time>
      </trkpt>
      <trkpt lat="43.70431" lon="2.126">
        <ele>264.5</ele>
        <time>2017-10-01T08:08:02Z</time>
      </trkpt>
      <trkpt lat="43.70438" lon="2.12593">
        <ele>265.46</ele>
        <time>2017-10-01T08:08:11Z</time>
      </trkpt>
      <trkpt lat="43.70441" lon="2.12589">
        <ele>265.46</ele>
        <time>2017-10-01T08:08:15Z</time>
      </trkpt>
      <trkpt lat="43.70444" lon="2.12586">
        <ele>265.94</ele>
        <time>2017-10-01T08:08:19Z</time>
      </trkpt>
      <trkpt lat="43.70448" lon="2.1258">
        <ele>266.42</ele>
        <time>2017-10-01T08:08:26Z</time>
      </trkpt>
      <trkpt lat="43.70458" lon="2.12569">
        <ele>266.9</ele>
        <time>2017-10-01T08:08:40Z</time>
      </trkpt>
      <trkpt lat="43.70462" lon="2.12566">
        <ele>266.9</ele>
        <time>2017-10-01T08:08:45Z</time>
      </trkpt>
      <trkpt lat="43.7047" lon="2.12557">
        <ele>266.9</ele>
        <time>2017-10-01T08:09:01Z</time>
      </trkpt>
      <trkpt lat="43.7048" lon="2.12548">
        <ele>267.86</ele>
        <time>2017-10-01T08:09:14Z</time>
      </trkpt>
      <trkpt lat="43.70489" lon="2.12539">
        <ele>267.86</ele>
        <time>2017-10-01T08:09:27Z</time>
      </trkpt>
      <trkpt lat="43.70498" lon="2.12531">
        <ele>268.83</ele>
        <time>2017-10-01T08:09:39Z</time>
      </trkpt>
      <trkpt lat="43.70508" lon="2.12524">
        <ele>269.31</ele>
        <time>2017-10-01T08:09:51Z</time>
      </trkpt>
      <trkpt lat="43.70516" lon="2.12518">
        <ele>269.79</ele>
        <time>2017-10-01T08:10:02Z</time>
      </trkpt>
      <trkpt lat="43.70517" lon="2.12516">
        <ele>269.79</ele>
        <time>2017-10-01T08:10:04Z</time>
      </trkpt>
      <trkpt lat="43.70532" lon="2.12502">
        <ele>270.75</ele>
        <time>2017-10-01T08:10:23Z</time>
      </trkpt>
      <trkpt lat="43.70543" lon="2.12492">
        <ele>271.71</ele>
        <time>2017-10-01T08:10:37Z</time>
      </trkpt>
      <trkpt lat="43.70553" lon="2.12482">
        <ele>272.67</ele>
        <time>2017-10-01T08:10:50Z</time>
      </trkpt>
      <trkpt lat="43.70556" lon="2.12479">
        <ele>273.15</ele>
        <time>2017-10-01T08:10:55Z</time>
      </trkpt>
      <trkpt lat="43.70568" lon="2.12467">
        <ele>275.07</ele>
        <time>2017-10-01T08:11:12Z</time>
      </trkpt>
      <trkpt lat="43.70577" lon="2.12458">
        <ele>276.04</ele>
        <time>2017-10-01T08:11:25Z</time>
      </trkpt>
      <trkpt lat="43.70582" lon="2.12447">
        <ele>277.48</ele>
        <time>2017-10-01T08:11:37Z</time>
      </trkpt>
      <trkpt lat="43.70588" lon="2.12437">
        <ele>278.44</ele>
        <time>2017-10-01T08:11:49Z</time>
      </trkpt>
      <trkpt lat="43.70595" lon="2.12425">
        <ele>279.4</ele>
        <time>2017-10-01T08:12:02Z</time>
      </trkpt>
      <trkpt lat="43.70603" lon="2.12414">
        <ele>280.84</ele>
        <time>2017-10-01T08:12:16Z</time>
      </trkpt>
      <trkpt lat="43.70609" lon="2.12404">
        <ele>281.32</ele>
        <time>2017-10-01T08:12:28Z</time>
      </trkpt>
      <trkpt lat="43.70614" lon="2.12396">
        <ele>282.77</ele>
        <time>2017-10-01T08:12:42Z</time>
      </trkpt>
      <trkpt lat="43.70615" lon="2.12395">
        <ele>282.77</ele>
        <time>2017-10-01T08:12:43Z</time>
      </trkpt>
      <trkpt lat="43.70619" lon="2.12391">
        <ele>283.73</ele>
        <time>2017-10-01T08:12:50Z</time>
      </trkpt>
      <trkpt lat="43.70624" lon="2.12383">
        <ele>285.17</ele>
        <time>2017-10-01T08:13:02Z</time>
      </trkpt>
      <trkpt lat="43.70631" lon="2.12373">
        <ele>287.09</ele>
        <time>2017-10-01T08:13:18Z</time>
      </trkpt>
      <trkpt lat="43.70638" lon="2.12359">
        <ele>289.01</ele>
        <time>2017-10-01T08:13:33Z</time>
      </trkpt>
      <trkpt lat="43.70644" lon="2.12353">
        <ele>290.46</ele>
        <time>2017-10-01T08:13:44Z</time>
      </trkpt>
      <trkpt lat="43.70649" lon="2.12348">
        <ele>292.38</ele>
        <time>2017-10-01T08:13:58Z</time>
      </trkpt>
      <trkpt lat="43.70657" lon="2.12345">
        <ele>294.3</ele>
        <time>2017-10-01T08:14:13Z</time>
      </trkpt>
      <trkpt lat="43.70664" lon="2.12338">
        <ele>296.7</ele>
        <time>2017-10-01T08:14:30Z</time>
      </trkpt>
      <trkpt lat="43.70671" lon="2.12337">
        <ele>299.11</ele>
        <time>2017-10-01T08:14:45Z</time>
      </trkpt>
      <trkpt lat="43.70687" lon="2.12342">
        <ele>301.51</ele>
        <time>2017-10-01T08:15:07Z</time>
      </trkpt>
      <trkpt lat="43.70696" lon="2.12341">
        <ele>302.47</ele>
        <time>2017-10-01T08:15:27Z</time>
      </trkpt>
      <trkpt lat="43.70703" lon="2.12342">
        <ele>302.95</ele>
        <time>2017-10-01T08:15:35Z</time>
      </trkpt>
      <trkpt lat="43.70715" lon="2.12342">
        <ele>303.91</ele>
        <time>2017-10-01T08:15:50Z</time>
      </trkpt>
      <trkpt lat="43.70724" lon="2.1234">
        <ele>305.84</ele>
        <time>2017-10-01T08:16:05Z</time>
      </trkpt>
      <trkpt lat="43.7073" lon="2.12335">
        <ele>307.28</ele>
        <time>2017-10-01T08:16:19Z</time>
      </trkpt>
      <trkpt lat="43.70731" lon="2.12331">
        <ele>307.28</ele>
        <time>2017-10-01T08:16:33Z</time>
      </trkpt>
      <trkpt lat="43.70738" lon="2.1233">
        <ele>307.28</ele>
        <time>2017-10-01T08:20:21Z</time>
      </trkpt>
      <trkpt lat="43.7074" lon="2.1233">
        <ele>307.28</ele>
        <time>2017-10-01T08:20:34Z</time>
      </trkpt>
      <trkpt lat="43.70746" lon="2.1233">
        <ele>306.8</ele>
        <time>2017-10-01T08:20:46Z</time>
      </trkpt>
      <trkpt lat="43.70747" lon="2.12331">
        <ele>306.8</ele>
        <time>2017-10-01T08:21:06Z</time>
      </trkpt>
      <trkpt lat="43.70754" lon="2.12331">
        <ele>306.32</ele>
        <time>2017-10-01T08:21:15Z</time>
      </trkpt>
      <trkpt lat="43.70765" lon="2.12334">
        <ele>306.32</ele>
        <time>2017-10-01T08:21:28Z</time>
      </trkpt>
      <trkpt lat="43.70772" lon="2.12336">
        <ele>306.32</ele>
        <time>2017-10-01T08:21:40Z</time>
      </trkpt>
      <trkpt lat="43.70779" lon="2.12335">
        <ele>306.32</ele>
        <time>2017-10-01T08:21:48Z</time>
      </trkpt>
      <trkpt lat="43.7079" lon="2.12333">
        <ele>306.32</ele>
        <time>2017-10-01T08:22:01Z</time>
      </trkpt>
      <trkpt lat="43.70801" lon="2.12331">
        <ele>305.36</ele>
        <time>2017-10-01T08:22:13Z</time>
      </trkpt>
      <trkpt lat="43.70812" lon="2.12329">
        <ele>306.8</ele>
        <time>2017-10-01T08:22:26Z</time>
      </trkpt>
      <trkpt lat="43.70815" lon="2.12328">
        <ele>306.8</ele>
        <time>2017-10-01T08:22:30Z</time>
      </trkpt>
      <trkpt lat="43.70825" lon="2.12328">
        <ele>308.24</ele>
        <time>2017-10-01T08:22:43Z</time>
      </trkpt>
      <trkpt lat="43.70831" lon="2.12331">
        <ele>308.24</ele>
        <time>2017-10-01T08:22:52Z</time>
      </trkpt>
      <trkpt lat="43.70837" lon="2.12334">
        <ele>308.24</ele>
        <time>2017-10-01T08:22:58Z</time>
      </trkpt>
      <trkpt lat="43.70847" lon="2.12343">
        <ele>307.28</ele>
        <time>2017-10-01T08:23:11Z</time>
      </trkpt>
      <trkpt lat="43.70856" lon="2.12349">
        <ele>306.32</ele>
        <time>2017-10-01T08:23:21Z</time>
      </trkpt>
      <trkpt lat="43.70867" lon="2.12358">
        <ele>306.32</ele>
        <time>2017-10-01T08:23:35Z</time>
      </trkpt>
      <trkpt lat="43.70877" lon="2.12364">
        <ele>306.8</ele>
        <time>2017-10-01T08:23:46Z</time>
      </trkpt>
      <trkpt lat="43.70887" lon="2.12372">
        <ele>308.24</ele>
        <time>2017-10-01T08:24:00Z</time>
      </trkpt>
      <trkpt lat="43.70894" lon="2.12379">
        <ele>310.16</ele>
        <time>2017-10-01T08:24:11Z</time>
      </trkpt>
      <trkpt lat="43.70895" lon="2.12381">
        <ele>310.16</ele>
        <time>2017-10-01T08:24:14Z</time>
      </trkpt>
      <trkpt lat="43.70903" lon="2.12387">
        <ele>312.09</ele>
        <time>2017-10-01T08:24:27Z</time>
      </trkpt>
      <trkpt lat="43.70905" lon="2.1239">
        <ele>312.57</ele>
        <time>2017-10-01T08:24:31Z</time>
      </trkpt>
      <trkpt lat="43.70914" lon="2.12399">
        <ele>314.49</ele>
        <time>2017-10-01T08:24:44Z</time>
      </trkpt>
      <trkpt lat="43.7092" lon="2.12403">
        <ele>315.93</ele>
        <time>2017-10-01T08:24:56Z</time>
      </trkpt>
      <trkpt lat="43.70926" lon="2.1241">
        <ele>317.85</ele>
        <time>2017-10-01T08:25:10Z</time>
      </trkpt>
      <trkpt lat="43.70931" lon="2.1242">
        <ele>318.33</ele>
        <time>2017-10-01T08:25:22Z</time>
      </trkpt>
      <trkpt lat="43.70936" lon="2.12431">
        <ele>319.78</ele>
        <time>2017-10-01T08:25:35Z</time>
      </trkpt>
      <trkpt lat="43.70942" lon="2.12441">
        <ele>321.7</ele>
        <time>2017-10-01T08:25:48Z</time>
      </trkpt>
      <trkpt lat="43.70948" lon="2.1245">
        <ele>323.14</ele>
        <time>2017-10-01T08:26:00Z</time>
      </trkpt>
      <trkpt lat="43.70953" lon="2.12459">
        <ele>325.06</ele>
        <time>2017-10-01T08:26:14Z</time>
      </trkpt>
      <trkpt lat="43.70956" lon="2.12466">
        <ele>326.02</ele>
        <time>2017-10-01T08:26:25Z</time>
      </trkpt>
      <trkpt lat="43.70961" lon="2.12471">
        <ele>327.47</ele>
        <time>2017-10-01T08:26:37Z</time>
      </trkpt>
      <trkpt lat="43.70963" lon="2.12472">
        <ele>327.95</ele>
        <time>2017-10-01T08:26:50Z</time>
      </trkpt>
      <trkpt lat="43.70965" lon="2.12473">
        <ele>328.43</ele>
        <time>2017-10-01T08:27:05Z</time>
      </trkpt>
      <trkpt lat="43.70967" lon="2.12474">
        <ele>329.39</ele>
        <time>2017-10-01T08:27:18Z</time>
      </trkpt>
      <trkpt lat="43.70971" lon="2.12481">
        <ele>330.83</ele>
        <time>2017-10-01T08:27:30Z</time>
      </trkpt>
      <trkpt lat="43.70974" lon="2.12485">
        <ele>331.31</ele>
        <time>2017-10-01T08:27:42Z</time>
      </trkpt>
      <trkpt lat="43.70979" lon="2.12491">
        <ele>333.23</ele>
        <time>2017-10-01T08:27:54Z</time>
      </trkpt>
      <trkpt lat="43.71001" lon="2.12503">
        <ele>336.12</ele>
        <time>2017-10-01T08:28:22Z</time>
      </trkpt>
      <trkpt lat="43.71014" lon="2.12508">
        <ele>336.6</ele>
        <time>2017-10-01T08:28:36Z</time>
      </trkpt>
      <trkpt lat="43.71017" lon="2.12509">
        <ele>336.6</ele>
        <time>2017-10-01T08:28:39Z</time>
      </trkpt>
      <trkpt lat="43.71026" lon="2.12511">
        <ele>337.56</ele>
        <time>2017-10-01T08:28:48Z</time>
      </trkpt>
      <trkpt lat="43.71029" lon="2.12513">
        <ele>337.56</ele>
        <time>2017-10-01T08:28:51Z</time>
      </trkpt>
      <trkpt lat="43.71042" lon="2.12518">
        <ele>338.52</ele>
        <time>2017-10-01T08:29:04Z</time>
      </trkpt>
      <trkpt lat="43.71053" lon="2.12523">
        <ele>339.48</ele>
        <time>2017-10-01T08:29:16Z</time>
      </trkpt>
      <trkpt lat="43.71064" lon="2.12531">
        <ele>341.41</ele>
        <time>2017-10-01T08:29:30Z</time>
      </trkpt>
      <trkpt lat="43.71069" lon="2.12537">
        <ele>342.37</ele>
        <time>2017-10-01T08:29:45Z</time>
      </trkpt>
      <trkpt lat="43.7107" lon="2.12537">
        <ele>342.85</ele>
        <time>2017-10-01T08:30:01Z</time>
      </trkpt>
      <trkpt lat="43.71076" lon="2.12548">
        <ele>342.37</ele>
        <time>2017-10-01T08:30:10Z</time>
      </trkpt>
      <trkpt lat="43.71083" lon="2.12555">
        <ele>342.37</ele>
        <time>2017-10-01T08:30:17Z</time>
      </trkpt>
      <trkpt lat="43.71092" lon="2.12568">
        <ele>341.41</ele>
        <time>2017-10-01T08:30:28Z</time>
      </trkpt>
      <trkpt lat="43.71106" lon="2.12575">
        <ele>342.37</ele>
        <time>2017-10-01T08:30:40Z</time>
      </trkpt>
      <trkpt lat="43.71108" lon="2.12575">
        <ele>342.37</ele>
        <time>2017-10-01T08:30:41Z</time>
      </trkpt>
      <trkpt lat="43.71109" lon="2.12575">
        <ele>342.37</ele>
        <time>2017-10-01T08:30:42Z</time>
      </trkpt>
      <trkpt lat="43.7111" lon="2.12575">
        <ele>342.37</ele>
        <time>2017-10-01T08:30:43Z</time>
      </trkpt>
      <trkpt lat="43.71112" lon="2.12575">
        <ele>342.37</ele>
        <time>2017-10-01T08:30:45Z</time>
      </trkpt>
      <trkpt lat="43.71113" lon="2.12576">
        <ele>342.37</ele>
        <time>2017-10-01T08:30:46Z</time>
      </trkpt>
      <trkpt lat="43.71114" lon="2.12576">
        <ele>342.37</ele>
        <time>2017-10-01T08:30:47Z</time>
      </trkpt>
      <trkpt lat="43.71116" lon="2.12577">
        <ele>342.37</ele>
        <time>2017-10-01T08:30:48Z</time>
      </trkpt>
      <trkpt lat="43.71117" lon="2.12577">
        <ele>342.37</ele>
        <time>2017-10-01T08:30:49Z</time>
      </trkpt>
      <trkpt lat="43.71121" lon="2.12575">
        <ele>342.37</ele>
        <time>2017-10-01T08:30:52Z</time>
      </trkpt>
      <trkpt lat="43.71126" lon="2.12576">
        <ele>342.85</ele>
        <time>2017-10-01T08:30:57Z</time>
      </trkpt>
      <trkpt lat="43.71127" lon="2.12576">
        <ele>342.85</ele>
        <time>2017-10-01T08:30:58Z</time>
      </trkpt>
      <trkpt lat="43.71128" lon="2.12576">
        <ele>342.85</ele>
        <time>2017-10-01T08:30:59Z</time>
      </trkpt>
      <trkpt lat="43.71142" lon="2.12582">
        <ele>343.33</ele>
        <time>2017-10-01T08:31:11Z</time>
      </trkpt>
      <trkpt lat="43.71151" lon="2.12591">
        <ele>342.37</ele>
        <time>2017-10-01T08:31:21Z</time>
      </trkpt>
      <trkpt lat="43.71152" lon="2.12592">
        <ele>342.37</ele>
        <time>2017-10-01T08:31:22Z</time>
      </trkpt>
      <trkpt lat="43.71154" lon="2.12592">
        <ele>342.37</ele>
        <time>2017-10-01T08:31:23Z</time>
      </trkpt>
      <trkpt lat="43.71158" lon="2.12596">
        <ele>341.89</ele>
        <time>2017-10-01T08:31:27Z</time>
      </trkpt>
      <trkpt lat="43.71159" lon="2.12596">
        <ele>341.89</ele>
        <time>2017-10-01T08:31:28Z</time>
      </trkpt>
      <trkpt lat="43.7116" lon="2.12597">
        <ele>341.89</ele>
        <time>2017-10-01T08:31:29Z</time>
      </trkpt>
      <trkpt lat="43.71164" lon="2.126">
        <ele>341.41</ele>
        <time>2017-10-01T08:31:33Z</time>
      </trkpt>
      <trkpt lat="43.71165" lon="2.126">
        <ele>341.41</ele>
        <time>2017-10-01T08:31:34Z</time>
      </trkpt>
      <trkpt lat="43.71166" lon="2.126">
        <ele>340.92</ele>
        <time>2017-10-01T08:31:35Z</time>
      </trkpt>
      <trkpt lat="43.71169" lon="2.12601">
        <ele>340.92</ele>
        <time>2017-10-01T08:31:37Z</time>
      </trkpt>
      <trkpt lat="43.7117" lon="2.12602">
        <ele>340.92</ele>
        <time>2017-10-01T08:31:38Z</time>
      </trkpt>
      <trkpt lat="43.71172" lon="2.12602">
        <ele>340.92</ele>
        <time>2017-10-01T08:31:39Z</time>
      </trkpt>
      <trkpt lat="43.71173" lon="2.12602">
        <ele>340.92</ele>
        <time>2017-10-01T08:31:40Z</time>
      </trkpt>
      <trkpt lat="43.71174" lon="2.12602">
        <ele>340.92</ele>
        <time>2017-10-01T08:31:41Z</time>
      </trkpt>
      <trkpt lat="43.71175" lon="2.12602">
        <ele>340.92</ele>
        <time>2017-10-01T08:31:42Z</time>
      </trkpt>
      <trkpt lat="43.71176" lon="2.12602">
        <ele>340.92</ele>
        <time>2017-10-01T08:31:43Z</time>
      </trkpt>
      <trkpt lat="43.71177" lon="2.12602">
        <ele>340.92</ele>
        <time>2017-10-01T08:31:44Z</time>
      </trkpt>
      <trkpt lat="43.71179" lon="2.12603">
        <ele>340.92</ele>
        <time>2017-10-01T08:31:45Z</time>
      </trkpt>
      <trkpt lat="43.7118" lon="2.12603">
        <ele>340.92</ele>
        <time>2017-10-01T08:31:46Z</time>
      </trkpt>
      <trkpt lat="43.71181" lon="2.12603">
        <ele>340.92</ele>
        <time>2017-10-01T08:31:47Z</time>
      </trkpt>
      <trkpt lat="43.71182" lon="2.12602">
        <ele>340.92</ele>
        <time>2017-10-01T08:31:48Z</time>
      </trkpt>
      <trkpt lat="43.71184" lon="2.12602">
        <ele>340.44</ele>
        <time>2017-10-01T08:31:49Z</time>
      </trkpt>
      <trkpt lat="43.71185" lon="2.12602">
        <ele>340.44</ele>
        <time>2017-10-01T08:31:50Z</time>
      </trkpt>
      <trkpt lat="43.71186" lon="2.12602">
        <ele>340.44</ele>
        <time>2017-10-01T08:31:51Z</time>
      </trkpt>
      <trkpt lat="43.71188" lon="2.12602">
        <ele>340.44</ele>
        <time>2017-10-01T08:31:52Z</time>
      </trkpt>
      <trkpt lat="43.71189" lon="2.12601">
        <ele>340.44</ele>
        <time>2017-10-01T08:31:53Z</time>
      </trkpt>
      <trkpt lat="43.7119" lon="2.12601">
        <ele>340.44</ele>
        <time>2017-10-01T08:31:54Z</time>
      </trkpt>
      <trkpt lat="43.71191" lon="2.126">
        <ele>340.44</ele>
        <time>2017-10-01T08:31:55Z</time>
      </trkpt>
      <trkpt lat="43.71193" lon="2.126">
        <ele>340.44</ele>
        <time>2017-10-01T08:31:56Z</time>
      </trkpt>
      <trkpt lat="43.71194" lon="2.126">
        <ele>340.44</ele>
        <time>2017-10-01T08:31:57Z</time>
      </trkpt>
      <trkpt lat="43.71195" lon="2.12599">
        <ele>340.44</ele>
        <time>2017-10-01T08:31:58Z</time>
      </trkpt>
      <trkpt lat="43.71197" lon="2.12599">
        <ele>340.44</ele>
        <time>2017-10-01T08:31:59Z</time>
      </trkpt>
      <trkpt lat="43.71198" lon="2.12598">
        <ele>340.44</ele>
        <time>2017-10-01T08:32:00Z</time>
      </trkpt>
      <trkpt lat="43.71199" lon="2.12597">
        <ele>340.92</ele>
        <time>2017-10-01T08:32:01Z</time>
      </trkpt>
      <trkpt lat="43.712" lon="2.12597">
        <ele>340.44</ele>
        <time>2017-10-01T08:32:02Z</time>
      </trkpt>
      <trkpt lat="43.71215" lon="2.1259">
        <ele>340.44</ele>
        <time>2017-10-01T08:32:15Z</time>
      </trkpt>
      <trkpt lat="43.71216" lon="2.1259">
        <ele>340.44</ele>
        <time>2017-10-01T08:32:16Z</time>
      </trkpt>
      <trkpt lat="43.71217" lon="2.1259">
        <ele>340.44</ele>
        <time>2017-10-01T08:32:17Z</time>
      </trkpt>
      <trkpt lat="43.71219" lon="2.12588">
        <ele>340.44</ele>
        <time>2017-10-01T08:32:19Z</time>
      </trkpt>
      <trkpt lat="43.7122" lon="2.12586">
        <ele>340.44</ele>
        <time>2017-10-01T08:32:20Z</time>
      </trkpt>
      <trkpt lat="43.71221" lon="2.12586">
        <ele>340.44</ele>
        <time>2017-10-01T08:32:21Z</time>
      </trkpt>
      <trkpt lat="43.71222" lon="2.12585">
        <ele>340.44</ele>
        <time>2017-10-01T08:32:22Z</time>
      </trkpt>
      <trkpt lat="43.71223" lon="2.12585">
        <ele>340.44</ele>
        <time>2017-10-01T08:32:23Z</time>
      </trkpt>
      <trkpt lat="43.71224" lon="2.12584">
        <ele>340.44</ele>
        <time>2017-10-01T08:32:24Z</time>
      </trkpt>
      <trkpt lat="43.71225" lon="2.12583">
        <ele>339.96</ele>
        <time>2017-10-01T08:32:25Z</time>
      </trkpt>
      <trkpt lat="43.71227" lon="2.12581">
        <ele>340.44</ele>
        <time>2017-10-01T08:32:27Z</time>
      </trkpt>
      <trkpt lat="43.7123" lon="2.12578">
        <ele>339.96</ele>
        <time>2017-10-01T08:32:30Z</time>
      </trkpt>
      <trkpt lat="43.71231" lon="2.12577">
        <ele>339.96</ele>
        <time>2017-10-01T08:32:31Z</time>
      </trkpt>
      <trkpt lat="43.71232" lon="2.12576">
        <ele>340.44</ele>
        <time>2017-10-01T08:32:32Z</time>
      </trkpt>
      <trkpt lat="43.71233" lon="2.12575">
        <ele>340.44</ele>
        <time>2017-10-01T08:32:33Z</time>
      </trkpt>
      <trkpt lat="43.71236" lon="2.12572">
        <ele>340.44</ele>
        <time>2017-10-01T08:32:37Z</time>
      </trkpt>
      <trkpt lat="43.71238" lon="2.12571">
        <ele>340.44</ele>
        <time>2017-10-01T08:32:38Z</time>
      </trkpt>
      <trkpt lat="43.71238" lon="2.1257">
        <ele>339.96</ele>
        <time>2017-10-01T08:32:39Z</time>
      </trkpt>
      <trkpt lat="43.71242" lon="2.12564">
        <ele>340.44</ele>
        <time>2017-10-01T08:32:44Z</time>
      </trkpt>
      <trkpt lat="43.71243" lon="2.12563">
        <ele>340.92</ele>
        <time>2017-10-01T08:32:45Z</time>
      </trkpt>
      <trkpt lat="43.71245" lon="2.12562">
        <ele>340.44</ele>
        <time>2017-10-01T08:32:46Z</time>
      </trkpt>
      <trkpt lat="43.71245" lon="2.12561">
        <ele>340.92</ele>
        <time>2017-10-01T08:32:47Z</time>
      </trkpt>
      <trkpt lat="43.71246" lon="2.1256">
        <ele>340.92</ele>
        <time>2017-10-01T08:32:48Z</time>
      </trkpt>
      <trkpt lat="43.71246" lon="2.12559">
        <ele>340.92</ele>
        <time>2017-10-01T08:32:49Z</time>
      </trkpt>
      <trkpt lat="43.71247" lon="2.12558">
        <ele>340.92</ele>
        <time>2017-10-01T08:32:50Z</time>
      </trkpt>
      <trkpt lat="43.71248" lon="2.12557">
        <ele>340.92</ele>
        <time>2017-10-01T08:32:51Z</time>
      </trkpt>
      <trkpt lat="43.71249" lon="2.12556">
        <ele>340.92</ele>
        <time>2017-10-01T08:32:52Z</time>
      </trkpt>
      <trkpt lat="43.7125" lon="2.12555">
        <ele>340.92</ele>
        <time>2017-10-01T08:32:53Z</time>
      </trkpt>
      <trkpt lat="43.71251" lon="2.12554">
        <ele>340.92</ele>
        <time>2017-10-01T08:32:54Z</time>
      </trkpt>
      <trkpt lat="43.71252" lon="2.12553">
        <ele>340.92</ele>
        <time>2017-10-01T08:32:55Z</time>
      </trkpt>
      <trkpt lat="43.71252" lon="2.12551">
        <ele>340.92</ele>
        <time>2017-10-01T08:32:56Z</time>
      </trkpt>
      <trkpt lat="43.71253" lon="2.12551">
        <ele>341.41</ele>
        <time>2017-10-01T08:32:57Z</time>
      </trkpt>
      <trkpt lat="43.71254" lon="2.1255">
        <ele>341.41</ele>
        <time>2017-10-01T08:32:58Z</time>
      </trkpt>
      <trkpt lat="43.71255" lon="2.12549">
        <ele>341.41</ele>
        <time>2017-10-01T08:32:59Z</time>
      </trkpt>
      <trkpt lat="43.71261" lon="2.12543">
        <ele>341.41</ele>
        <time>2017-10-01T08:33:05Z</time>
      </trkpt>
      <trkpt lat="43.71262" lon="2.12542">
        <ele>341.41</ele>
        <time>2017-10-01T08:33:06Z</time>
      </trkpt>
      <trkpt lat="43.71263" lon="2.12541">
        <ele>341.41</ele>
        <time>2017-10-01T08:33:07Z</time>
      </trkpt>
      <trkpt lat="43.71264" lon="2.1254">
        <ele>341.41</ele>
        <time>2017-10-01T08:33:08Z</time>
      </trkpt>
      <trkpt lat="43.71265" lon="2.12539">
        <ele>341.41</ele>
        <time>2017-10-01T08:33:10Z</time>
      </trkpt>
      <trkpt lat="43.71267" lon="2.12537">
        <ele>340.92</ele>
        <time>2017-10-01T08:33:12Z</time>
      </trkpt>
      <trkpt lat="43.71268" lon="2.12536">
        <ele>340.92</ele>
        <time>2017-10-01T08:33:13Z</time>
      </trkpt>
      <trkpt lat="43.71269" lon="2.12536">
        <ele>340.92</ele>
        <time>2017-10-01T08:33:14Z</time>
      </trkpt>
      <trkpt lat="43.7127" lon="2.12534">
        <ele>340.92</ele>
        <time>2017-10-01T08:33:15Z</time>
      </trkpt>
      <trkpt lat="43.71271" lon="2.12533">
        <ele>340.92</ele>
        <time>2017-10-01T08:33:17Z</time>
      </trkpt>
      <trkpt lat="43.71272" lon="2.12532">
        <ele>340.92</ele>
        <time>2017-10-01T08:33:18Z</time>
      </trkpt>
      <trkpt lat="43.71273" lon="2.12532">
        <ele>340.92</ele>
        <time>2017-10-01T08:33:19Z</time>
      </trkpt>
      <trkpt lat="43.71274" lon="2.12531">
        <ele>340.44</ele>
        <time>2017-10-01T08:33:20Z</time>
      </trkpt>
      <trkpt lat="43.71277" lon="2.1253">
        <ele>340.44</ele>
        <time>2017-10-01T08:33:23Z</time>
      </trkpt>
      <trkpt lat="43.71289" lon="2.12529">
        <ele>339.48</ele>
        <time>2017-10-01T08:33:33Z</time>
      </trkpt>
      <trkpt lat="43.7129" lon="2.12529">
        <ele>339</ele>
        <time>2017-10-01T08:33:34Z</time>
      </trkpt>
      <trkpt lat="43.71291" lon="2.12529">
        <ele>339</ele>
        <time>2017-10-01T08:33:35Z</time>
      </trkpt>
      <trkpt lat="43.71292" lon="2.12529">
        <ele>339</ele>
        <time>2017-10-01T08:33:36Z</time>
      </trkpt>
      <trkpt lat="43.71295" lon="2.1253">
        <ele>339</ele>
        <time>2017-10-01T08:33:39Z</time>
      </trkpt>
      <trkpt lat="43.71296" lon="2.12531">
        <ele>339</ele>
        <time>2017-10-01T08:33:40Z</time>
      </trkpt>
      <trkpt lat="43.713" lon="2.12533">
        <ele>339</ele>
        <time>2017-10-01T08:33:43Z</time>
      </trkpt>
      <trkpt lat="43.71301" lon="2.12534">
        <ele>338.52</ele>
        <time>2017-10-01T08:33:44Z</time>
      </trkpt>
      <trkpt lat="43.71302" lon="2.12535">
        <ele>338.52</ele>
        <time>2017-10-01T08:33:45Z</time>
      </trkpt>
      <trkpt lat="43.71306" lon="2.12539">
        <ele>338.52</ele>
        <time>2017-10-01T08:33:49Z</time>
      </trkpt>
      <trkpt lat="43.71317" lon="2.12551">
        <ele>337.56</ele>
        <time>2017-10-01T08:34:01Z</time>
      </trkpt>
      <trkpt lat="43.71318" lon="2.12552">
        <ele>338.04</ele>
        <time>2017-10-01T08:34:02Z</time>
      </trkpt>
      <trkpt lat="43.71319" lon="2.12554">
        <ele>337.56</ele>
        <time>2017-10-01T08:34:03Z</time>
      </trkpt>
      <trkpt lat="43.71328" lon="2.12563">
        <ele>337.56</ele>
        <time>2017-10-01T08:34:15Z</time>
      </trkpt>
      <trkpt lat="43.7133" lon="2.12564">
        <ele>337.56</ele>
        <time>2017-10-01T08:34:16Z</time>
      </trkpt>
      <trkpt lat="43.71331" lon="2.12565">
        <ele>337.56</ele>
        <time>2017-10-01T08:34:17Z</time>
      </trkpt>
      <trkpt lat="43.71332" lon="2.12566">
        <ele>337.56</ele>
        <time>2017-10-01T08:34:18Z</time>
      </trkpt>
      <trkpt lat="43.71333" lon="2.12567">
        <ele>337.08</ele>
        <time>2017-10-01T08:34:19Z</time>
      </trkpt>
      <trkpt lat="43.71334" lon="2.12568">
        <ele>337.08</ele>
        <time>2017-10-01T08:34:20Z</time>
      </trkpt>
      <trkpt lat="43.71335" lon="2.12569">
        <ele>337.08</ele>
        <time>2017-10-01T08:34:22Z</time>
      </trkpt>
      <trkpt lat="43.71338" lon="2.12571">
        <ele>337.08</ele>
        <time>2017-10-01T08:34:25Z</time>
      </trkpt>
      <trkpt lat="43.7134" lon="2.12572">
        <ele>337.08</ele>
        <time>2017-10-01T08:34:27Z</time>
      </trkpt>
      <trkpt lat="43.71342" lon="2.12573">
        <ele>337.08</ele>
        <time>2017-10-01T08:34:29Z</time>
      </trkpt>
      <trkpt lat="43.71344" lon="2.12574">
        <ele>337.08</ele>
        <time>2017-10-01T08:34:31Z</time>
      </trkpt>
      <trkpt lat="43.71347" lon="2.12575">
        <ele>337.08</ele>
        <time>2017-10-01T08:34:34Z</time>
      </trkpt>
      <trkpt lat="43.71358" lon="2.12578">
        <ele>336.6</ele>
        <time>2017-10-01T08:34:47Z</time>
      </trkpt>
      <trkpt lat="43.71363" lon="2.12579">
        <ele>337.08</ele>
        <time>2017-10-01T08:40:12Z</time>
      </trkpt>
      <trkpt lat="43.71369" lon="2.12585">
        <ele>337.08</ele>
        <time>2017-10-01T08:40:23Z</time>
      </trkpt>
      <trkpt lat="43.71375" lon="2.12595">
        <ele>336.12</ele>
        <time>2017-10-01T08:40:39Z</time>
      </trkpt>
      <trkpt lat="43.71385" lon="2.12603">
        <ele>333.71</ele>
        <time>2017-10-01T08:40:54Z</time>
      </trkpt>
      <trkpt lat="43.71396" lon="2.12611">
        <ele>332.27</ele>
        <time>2017-10-01T08:41:07Z</time>
      </trkpt>
      <trkpt lat="43.71406" lon="2.12621">
        <ele>330.35</ele>
        <time>2017-10-01T08:41:20Z</time>
      </trkpt>
      <trkpt lat="43.71416" lon="2.12628">
        <ele>328.43</ele>
        <time>2017-10-01T08:41:32Z</time>
      </trkpt>
      <trkpt lat="43.71421" lon="2.12636">
        <ele>327.47</ele>
        <time>2017-10-01T08:41:43Z</time>
      </trkpt>
      <trkpt lat="43.71425" lon="2.12644">
        <ele>326.99</ele>
        <time>2017-10-01T08:41:51Z</time>
      </trkpt>
      <trkpt lat="43.71426" lon="2.12646">
        <ele>326.99</ele>
        <time>2017-10-01T08:41:52Z</time>
      </trkpt>
      <trkpt lat="43.71426" lon="2.12648">
        <ele>326.5</ele>
        <time>2017-10-01T08:41:53Z</time>
      </trkpt>
      <trkpt lat="43.71427" lon="2.1265">
        <ele>326.5</ele>
        <time>2017-10-01T08:41:55Z</time>
      </trkpt>
      <trkpt lat="43.71427" lon="2.12653">
        <ele>326.5</ele>
        <time>2017-10-01T08:41:57Z</time>
      </trkpt>
      <trkpt lat="43.71426" lon="2.12658">
        <ele>326.5</ele>
        <time>2017-10-01T08:42:00Z</time>
      </trkpt>
      <trkpt lat="43.71427" lon="2.12662">
        <ele>326.5</ele>
        <time>2017-10-01T08:42:02Z</time>
      </trkpt>
      <trkpt lat="43.71427" lon="2.12663">
        <ele>326.5</ele>
        <time>2017-10-01T08:42:03Z</time>
      </trkpt>
      <trkpt lat="43.71427" lon="2.12665">
        <ele>326.5</ele>
        <time>2017-10-01T08:42:04Z</time>
      </trkpt>
      <trkpt lat="43.71427" lon="2.12668">
        <ele>326.5</ele>
        <time>2017-10-01T08:42:06Z</time>
      </trkpt>
      <trkpt lat="43.71427" lon="2.12671">
        <ele>326.5</ele>
        <time>2017-10-01T08:42:08Z</time>
      </trkpt>
      <trkpt lat="43.71427" lon="2.12673">
        <ele>326.5</ele>
        <time>2017-10-01T08:42:09Z</time>
      </trkpt>
      <trkpt lat="43.71428" lon="2.1268">
        <ele>326.02</ele>
        <time>2017-10-01T08:42:15Z</time>
      </trkpt>
      <trkpt lat="43.71428" lon="2.12682">
        <ele>326.5</ele>
        <time>2017-10-01T08:42:16Z</time>
      </trkpt>
      <trkpt lat="43.71429" lon="2.12683">
        <ele>326.5</ele>
        <time>2017-10-01T08:42:17Z</time>
      </trkpt>
      <trkpt lat="43.7143" lon="2.12686">
        <ele>326.02</ele>
        <time>2017-10-01T08:42:19Z</time>
      </trkpt>
      <trkpt lat="43.7143" lon="2.12687">
        <ele>326.5</ele>
        <time>2017-10-01T08:42:20Z</time>
      </trkpt>
      <trkpt lat="43.71431" lon="2.12689">
        <ele>326.02</ele>
        <time>2017-10-01T08:42:21Z</time>
      </trkpt>
      <trkpt lat="43.71432" lon="2.12692">
        <ele>326.02</ele>
        <time>2017-10-01T08:42:23Z</time>
      </trkpt>
      <trkpt lat="43.71435" lon="2.12709">
        <ele>324.1</ele>
        <time>2017-10-01T08:42:36Z</time>
      </trkpt>
      <trkpt lat="43.71437" lon="2.12717">
        <ele>323.62</ele>
        <time>2017-10-01T08:42:42Z</time>
      </trkpt>
      <trkpt lat="43.71438" lon="2.12718">
        <ele>323.62</ele>
        <time>2017-10-01T08:42:43Z</time>
      </trkpt>
      <trkpt lat="43.71438" lon="2.12719">
        <ele>323.62</ele>
        <time>2017-10-01T08:42:44Z</time>
      </trkpt>
      <trkpt lat="43.71439" lon="2.12721">
        <ele>323.62</ele>
        <time>2017-10-01T08:42:45Z</time>
      </trkpt>
      <trkpt lat="43.71439" lon="2.12722">
        <ele>323.14</ele>
        <time>2017-10-01T08:42:46Z</time>
      </trkpt>
      <trkpt lat="43.71444" lon="2.12739">
        <ele>322.66</ele>
        <time>2017-10-01T08:42:59Z</time>
      </trkpt>
      <trkpt lat="43.71445" lon="2.12742">
        <ele>322.18</ele>
        <time>2017-10-01T08:43:01Z</time>
      </trkpt>
      <trkpt lat="43.71445" lon="2.12743">
        <ele>322.66</ele>
        <time>2017-10-01T08:43:02Z</time>
      </trkpt>
      <trkpt lat="43.71448" lon="2.12749">
        <ele>322.18</ele>
        <time>2017-10-01T08:43:07Z</time>
      </trkpt>
      <trkpt lat="43.7145" lon="2.12765">
        <ele>321.22</ele>
        <time>2017-10-01T08:43:20Z</time>
      </trkpt>
      <trkpt lat="43.71451" lon="2.12771">
        <ele>321.22</ele>
        <time>2017-10-01T08:43:25Z</time>
      </trkpt>
      <trkpt lat="43.71454" lon="2.12788">
        <ele>320.74</ele>
        <time>2017-10-01T08:43:37Z</time>
      </trkpt>
      <trkpt lat="43.71457" lon="2.12802">
        <ele>320.74</ele>
        <time>2017-10-01T08:43:47Z</time>
      </trkpt>
      <trkpt lat="43.71461" lon="2.12815">
        <ele>320.26</ele>
        <time>2017-10-01T08:43:58Z</time>
      </trkpt>
      <trkpt lat="43.71464" lon="2.12823">
        <ele>319.78</ele>
        <time>2017-10-01T08:44:05Z</time>
      </trkpt>
      <trkpt lat="43.7147" lon="2.12835">
        <ele>319.78</ele>
        <time>2017-10-01T08:44:17Z</time>
      </trkpt>
      <trkpt lat="43.7147" lon="2.12836">
        <ele>319.3</ele>
        <time>2017-10-01T08:44:18Z</time>
      </trkpt>
      <trkpt lat="43.71479" lon="2.12851">
        <ele>319.3</ele>
        <time>2017-10-01T08:44:32Z</time>
      </trkpt>
      <trkpt lat="43.71481" lon="2.12853">
        <ele>319.3</ele>
        <time>2017-10-01T08:44:34Z</time>
      </trkpt>
      <trkpt lat="43.71488" lon="2.12869">
        <ele>319.3</ele>
        <time>2017-10-01T08:44:48Z</time>
      </trkpt>
      <trkpt lat="43.71492" lon="2.12879">
        <ele>319.3</ele>
        <time>2017-10-01T08:44:57Z</time>
      </trkpt>
      <trkpt lat="43.71498" lon="2.12887">
        <ele>319.3</ele>
        <time>2017-10-01T08:45:05Z</time>
      </trkpt>
      <trkpt lat="43.71499" lon="2.1289">
        <ele>319.3</ele>
        <time>2017-10-01T08:45:07Z</time>
      </trkpt>
      <trkpt lat="43.71508" lon="2.12903">
        <ele>318.33</ele>
        <time>2017-10-01T08:45:19Z</time>
      </trkpt>
      <trkpt lat="43.71517" lon="2.12915">
        <ele>317.37</ele>
        <time>2017-10-01T08:45:31Z</time>
      </trkpt>
      <trkpt lat="43.71527" lon="2.12927">
        <ele>316.89</ele>
        <time>2017-10-01T08:45:44Z</time>
      </trkpt>
      <trkpt lat="43.71535" lon="2.12934">
        <ele>316.89</ele>
        <time>2017-10-01T08:45:55Z</time>
      </trkpt>
      <trkpt lat="43.7154" lon="2.12938">
        <ele>316.89</ele>
        <time>2017-10-01T08:46:00Z</time>
      </trkpt>
      <trkpt lat="43.71546" lon="2.12939">
        <ele>316.89</ele>
        <time>2017-10-01T08:46:06Z</time>
      </trkpt>
      <trkpt lat="43.71553" lon="2.12943">
        <ele>316.89</ele>
        <time>2017-10-01T08:46:13Z</time>
      </trkpt>
      <trkpt lat="43.71567" lon="2.12947">
        <ele>315.45</ele>
        <time>2017-10-01T08:46:28Z</time>
      </trkpt>
      <trkpt lat="43.71577" lon="2.12949">
        <ele>314.49</ele>
        <time>2017-10-01T08:46:40Z</time>
      </trkpt>
      <trkpt lat="43.71591" lon="2.12954">
        <ele>314.01</ele>
        <time>2017-10-01T08:46:53Z</time>
      </trkpt>
      <trkpt lat="43.71592" lon="2.12955">
        <ele>314.01</ele>
        <time>2017-10-01T08:46:54Z</time>
      </trkpt>
      <trkpt lat="43.71598" lon="2.12958">
        <ele>313.05</ele>
        <time>2017-10-01T08:47:00Z</time>
      </trkpt>
      <trkpt lat="43.71602" lon="2.1296">
        <ele>313.05</ele>
        <time>2017-10-01T08:47:04Z</time>
      </trkpt>
      <trkpt lat="43.71606" lon="2.12963">
        <ele>312.57</ele>
        <time>2017-10-01T08:47:08Z</time>
      </trkpt>
      <trkpt lat="43.7161" lon="2.12966">
        <ele>312.09</ele>
        <time>2017-10-01T08:47:13Z</time>
      </trkpt>
      <trkpt lat="43.71623" lon="2.12979">
        <ele>310.64</ele>
        <time>2017-10-01T08:47:27Z</time>
      </trkpt>
      <trkpt lat="43.71627" lon="2.12982">
        <ele>310.64</ele>
        <time>2017-10-01T08:47:32Z</time>
      </trkpt>
      <trkpt lat="43.71631" lon="2.12985">
        <ele>310.16</ele>
        <time>2017-10-01T08:47:36Z</time>
      </trkpt>
      <trkpt lat="43.71639" lon="2.12994">
        <ele>309.68</ele>
        <time>2017-10-01T08:47:45Z</time>
      </trkpt>
      <trkpt lat="43.71641" lon="2.12995">
        <ele>309.68</ele>
        <time>2017-10-01T08:47:47Z</time>
      </trkpt>
      <trkpt lat="43.71648" lon="2.13005">
        <ele>309.68</ele>
        <time>2017-10-01T08:47:56Z</time>
      </trkpt>
      <trkpt lat="43.7165" lon="2.13009">
        <ele>309.68</ele>
        <time>2017-10-01T08:47:59Z</time>
      </trkpt>
      <trkpt lat="43.71652" lon="2.13011">
        <ele>309.68</ele>
        <time>2017-10-01T08:48:01Z</time>
      </trkpt>
      <trkpt lat="43.71663" lon="2.13028">
        <ele>310.16</ele>
        <time>2017-10-01T08:48:17Z</time>
      </trkpt>
      <trkpt lat="43.71671" lon="2.13038">
        <ele>310.16</ele>
        <time>2017-10-01T08:48:29Z</time>
      </trkpt>
      <trkpt lat="43.71676" lon="2.13047">
        <ele>310.64</ele>
        <time>2017-10-01T08:48:41Z</time>
      </trkpt>
      <trkpt lat="43.71679" lon="2.13056">
        <ele>311.6</ele>
        <time>2017-10-01T08:48:52Z</time>
      </trkpt>
      <trkpt lat="43.71678" lon="2.13067">
        <ele>312.09</ele>
        <time>2017-10-01T08:49:04Z</time>
      </trkpt>
      <trkpt lat="43.71677" lon="2.13068">
        <ele>312.09</ele>
        <time>2017-10-01T08:49:05Z</time>
      </trkpt>
      <trkpt lat="43.71668" lon="2.13077">
        <ele>312.57</ele>
        <time>2017-10-01T08:49:18Z</time>
      </trkpt>
      <trkpt lat="43.71663" lon="2.13081">
        <ele>312.09</ele>
        <time>2017-10-01T08:49:24Z</time>
      </trkpt>
      <trkpt lat="43.71654" lon="2.13091">
        <ele>312.09</ele>
        <time>2017-10-01T08:49:36Z</time>
      </trkpt>
      <trkpt lat="43.71651" lon="2.13093">
        <ele>312.57</ele>
        <time>2017-10-01T08:49:39Z</time>
      </trkpt>
      <trkpt lat="43.71643" lon="2.13102">
        <ele>312.57</ele>
        <time>2017-10-01T08:49:50Z</time>
      </trkpt>
      <trkpt lat="43.71637" lon="2.1311">
        <ele>312.57</ele>
        <time>2017-10-01T08:49:59Z</time>
      </trkpt>
      <trkpt lat="43.71627" lon="2.13118">
        <ele>312.57</ele>
        <time>2017-10-01T08:50:11Z</time>
      </trkpt>
      <trkpt lat="43.71623" lon="2.1312">
        <ele>312.57</ele>
        <time>2017-10-01T08:50:15Z</time>
      </trkpt>
      <trkpt lat="43.71621" lon="2.13122">
        <ele>312.57</ele>
        <time>2017-10-01T08:50:18Z</time>
      </trkpt>
      <trkpt lat="43.71617" lon="2.13125">
        <ele>312.57</ele>
        <time>2017-10-01T08:50:23Z</time>
      </trkpt>
      <trkpt lat="43.71612" lon="2.13128">
        <ele>313.05</ele>
        <time>2017-10-01T08:50:28Z</time>
      </trkpt>
      <trkpt lat="43.7161" lon="2.13128">
        <ele>313.05</ele>
        <time>2017-10-01T08:50:30Z</time>
      </trkpt>
      <trkpt lat="43.71605" lon="2.1313">
        <ele>313.05</ele>
        <time>2017-10-01T08:50:35Z</time>
      </trkpt>
      <trkpt lat="43.716" lon="2.13132">
        <ele>313.53</ele>
        <time>2017-10-01T08:50:42Z</time>
      </trkpt>
      <trkpt lat="43.71592" lon="2.13135">
        <ele>313.05</ele>
        <time>2017-10-01T08:50:50Z</time>
      </trkpt>
      <trkpt lat="43.71587" lon="2.13137">
        <ele>313.05</ele>
        <time>2017-10-01T08:50:55Z</time>
      </trkpt>
      <trkpt lat="43.71584" lon="2.13138">
        <ele>313.05</ele>
        <time>2017-10-01T08:50:58Z</time>
      </trkpt>
      <trkpt lat="43.71575" lon="2.13146">
        <ele>313.53</ele>
        <time>2017-10-01T08:51:10Z</time>
      </trkpt>
      <trkpt lat="43.71573" lon="2.13148">
        <ele>313.53</ele>
        <time>2017-10-01T08:51:13Z</time>
      </trkpt>
      <trkpt lat="43.71572" lon="2.1315">
        <ele>313.53</ele>
        <time>2017-10-01T08:51:15Z</time>
      </trkpt>
      <trkpt lat="43.7157" lon="2.13152">
        <ele>313.53</ele>
        <time>2017-10-01T08:51:17Z</time>
      </trkpt>
      <trkpt lat="43.71566" lon="2.13157">
        <ele>314.01</ele>
        <time>2017-10-01T08:51:23Z</time>
      </trkpt>
      <trkpt lat="43.71564" lon="2.13158">
        <ele>314.01</ele>
        <time>2017-10-01T08:51:25Z</time>
      </trkpt>
      <trkpt lat="43.71557" lon="2.13165">
        <ele>314.01</ele>
        <time>2017-10-01T08:51:34Z</time>
      </trkpt>
      <trkpt lat="43.71547" lon="2.13177">
        <ele>314.49</ele>
        <time>2017-10-01T08:51:48Z</time>
      </trkpt>
      <trkpt lat="43.71543" lon="2.13182">
        <ele>314.49</ele>
        <time>2017-10-01T08:51:54Z</time>
      </trkpt>
      <trkpt lat="43.71534" lon="2.13192">
        <ele>314.97</ele>
        <time>2017-10-01T08:52:05Z</time>
      </trkpt>
      <trkpt lat="43.71524" lon="2.13202">
        <ele>315.93</ele>
        <time>2017-10-01T08:52:17Z</time>
      </trkpt>
      <trkpt lat="43.71522" lon="2.13203">
        <ele>315.93</ele>
        <time>2017-10-01T08:52:19Z</time>
      </trkpt>
      <trkpt lat="43.71513" lon="2.13212">
        <ele>316.89</ele>
        <time>2017-10-01T08:52:31Z</time>
      </trkpt>
      <trkpt lat="43.71511" lon="2.13212">
        <ele>316.89</ele>
        <time>2017-10-01T08:52:33Z</time>
      </trkpt>
      <trkpt lat="43.71509" lon="2.13214">
        <ele>316.89</ele>
        <time>2017-10-01T08:52:35Z</time>
      </trkpt>
      <trkpt lat="43.71498" lon="2.1322">
        <ele>317.85</ele>
        <time>2017-10-01T08:52:47Z</time>
      </trkpt>
      <trkpt lat="43.71494" lon="2.13222">
        <ele>318.33</ele>
        <time>2017-10-01T08:52:52Z</time>
      </trkpt>
      <trkpt lat="43.7149" lon="2.13224">
        <ele>318.33</ele>
        <time>2017-10-01T08:52:57Z</time>
      </trkpt>
      <trkpt lat="43.71481" lon="2.13229">
        <ele>319.3</ele>
        <time>2017-10-01T08:53:07Z</time>
      </trkpt>
      <trkpt lat="43.7147" lon="2.13233">
        <ele>320.26</ele>
        <time>2017-10-01T08:53:20Z</time>
      </trkpt>
      <trkpt lat="43.71462" lon="2.13238">
        <ele>321.22</ele>
        <time>2017-10-01T08:53:31Z</time>
      </trkpt>
      <trkpt lat="43.71458" lon="2.13239">
        <ele>321.22</ele>
        <time>2017-10-01T08:53:35Z</time>
      </trkpt>
      <trkpt lat="43.71448" lon="2.13243">
        <ele>321.7</ele>
        <time>2017-10-01T08:53:47Z</time>
      </trkpt>
      <trkpt lat="43.71444" lon="2.13245">
        <ele>321.7</ele>
        <time>2017-10-01T08:53:51Z</time>
      </trkpt>
      <trkpt lat="43.71442" lon="2.13246">
        <ele>322.18</ele>
        <time>2017-10-01T08:53:54Z</time>
      </trkpt>
      <trkpt lat="43.7144" lon="2.13246">
        <ele>322.18</ele>
        <time>2017-10-01T08:53:56Z</time>
      </trkpt>
      <trkpt lat="43.71431" lon="2.13249">
        <ele>322.18</ele>
        <time>2017-10-01T08:54:05Z</time>
      </trkpt>
      <trkpt lat="43.71425" lon="2.13253">
        <ele>323.14</ele>
        <time>2017-10-01T08:54:13Z</time>
      </trkpt>
      <trkpt lat="43.71414" lon="2.13259">
        <ele>324.1</ele>
        <time>2017-10-01T08:54:25Z</time>
      </trkpt>
      <trkpt lat="43.71404" lon="2.13265">
        <ele>324.58</ele>
        <time>2017-10-01T08:54:37Z</time>
      </trkpt>
      <trkpt lat="43.71394" lon="2.13272">
        <ele>325.54</ele>
        <time>2017-10-01T08:54:49Z</time>
      </trkpt>
      <trkpt lat="43.71386" lon="2.13281">
        <ele>326.02</ele>
        <time>2017-10-01T08:55:00Z</time>
      </trkpt>
      <trkpt lat="43.71379" lon="2.1329">
        <ele>327.47</ele>
        <time>2017-10-01T08:55:12Z</time>
      </trkpt>
      <trkpt lat="43.71371" lon="2.13302">
        <ele>328.43</ele>
        <time>2017-10-01T08:55:24Z</time>
      </trkpt>
      <trkpt lat="43.71364" lon="2.13312">
        <ele>328.91</ele>
        <time>2017-10-01T08:55:37Z</time>
      </trkpt>
      <trkpt lat="43.71362" lon="2.13314">
        <ele>328.91</ele>
        <time>2017-10-01T08:55:39Z</time>
      </trkpt>
      <trkpt lat="43.71357" lon="2.1332">
        <ele>329.87</ele>
        <time>2017-10-01T08:55:47Z</time>
      </trkpt>
      <trkpt lat="43.71349" lon="2.1333">
        <ele>330.35</ele>
        <time>2017-10-01T08:55:59Z</time>
      </trkpt>
      <trkpt lat="43.71342" lon="2.1334">
        <ele>331.79</ele>
        <time>2017-10-01T08:56:10Z</time>
      </trkpt>
      <trkpt lat="43.71336" lon="2.13351">
        <ele>332.75</ele>
        <time>2017-10-01T08:56:21Z</time>
      </trkpt>
      <trkpt lat="43.71334" lon="2.13353">
        <ele>332.75</ele>
        <time>2017-10-01T08:56:24Z</time>
      </trkpt>
      <trkpt lat="43.7133" lon="2.13358">
        <ele>333.23</ele>
        <time>2017-10-01T08:56:29Z</time>
      </trkpt>
      <trkpt lat="43.71324" lon="2.1337">
        <ele>334.2</ele>
        <time>2017-10-01T08:56:41Z</time>
      </trkpt>
      <trkpt lat="43.71322" lon="2.13372">
        <ele>334.2</ele>
        <time>2017-10-01T08:56:44Z</time>
      </trkpt>
      <trkpt lat="43.71316" lon="2.1338">
        <ele>334.68</ele>
        <time>2017-10-01T08:56:53Z</time>
      </trkpt>
      <trkpt lat="43.71314" lon="2.13381">
        <ele>335.16</ele>
        <time>2017-10-01T08:56:55Z</time>
      </trkpt>
      <trkpt lat="43.71307" lon="2.13391">
        <ele>335.64</ele>
        <time>2017-10-01T08:57:07Z</time>
      </trkpt>
      <trkpt lat="43.71305" lon="2.13393">
        <ele>335.64</ele>
        <time>2017-10-01T08:57:09Z</time>
      </trkpt>
      <trkpt lat="43.71295" lon="2.13404">
        <ele>336.6</ele>
        <time>2017-10-01T08:57:22Z</time>
      </trkpt>
      <trkpt lat="43.71291" lon="2.13408">
        <ele>336.6</ele>
        <time>2017-10-01T08:57:27Z</time>
      </trkpt>
      <trkpt lat="43.71288" lon="2.13412">
        <ele>336.6</ele>
        <time>2017-10-01T08:57:31Z</time>
      </trkpt>
      <trkpt lat="43.71282" lon="2.13416">
        <ele>336.6</ele>
        <time>2017-10-01T08:57:37Z</time>
      </trkpt>
      <trkpt lat="43.71282" lon="2.13424">
        <ele>337.56</ele>
        <time>2017-10-01T08:57:48Z</time>
      </trkpt>
      <trkpt lat="43.71283" lon="2.13426">
        <ele>337.56</ele>
        <time>2017-10-01T08:57:50Z</time>
      </trkpt>
      <trkpt lat="43.71287" lon="2.13427">
        <ele>337.56</ele>
        <time>2017-10-01T08:57:54Z</time>
      </trkpt>
      <trkpt lat="43.71289" lon="2.13428">
        <ele>337.56</ele>
        <time>2017-10-01T08:57:56Z</time>
      </trkpt>
      <trkpt lat="43.71299" lon="2.1343">
        <ele>337.08</ele>
        <time>2017-10-01T08:58:06Z</time>
      </trkpt>
      <trkpt lat="43.71302" lon="2.13431">
        <ele>337.08</ele>
        <time>2017-10-01T08:58:09Z</time>
      </trkpt>
      <trkpt lat="43.71308" lon="2.13432">
        <ele>337.08</ele>
        <time>2017-10-01T08:58:15Z</time>
      </trkpt>
      <trkpt lat="43.71323" lon="2.13436">
        <ele>336.6</ele>
        <time>2017-10-01T08:58:27Z</time>
      </trkpt>
      <trkpt lat="43.71336" lon="2.13439">
        <ele>335.64</ele>
        <time>2017-10-01T08:58:39Z</time>
      </trkpt>
      <trkpt lat="43.71347" lon="2.13442">
        <ele>334.68</ele>
        <time>2017-10-01T08:58:50Z</time>
      </trkpt>
      <trkpt lat="43.71354" lon="2.13443">
        <ele>334.2</ele>
        <time>2017-10-01T08:58:56Z</time>
      </trkpt>
      <trkpt lat="43.7136" lon="2.13449">
        <ele>333.71</ele>
        <time>2017-10-01T08:59:02Z</time>
      </trkpt>
      <trkpt lat="43.71359" lon="2.13457">
        <ele>333.71</ele>
        <time>2017-10-01T08:59:06Z</time>
      </trkpt>
      <trkpt lat="43.71348" lon="2.13475">
        <ele>335.16</ele>
        <time>2017-10-01T08:59:20Z</time>
      </trkpt>
      <trkpt lat="43.71345" lon="2.13482">
        <ele>335.64</ele>
        <time>2017-10-01T08:59:26Z</time>
      </trkpt>
      <trkpt lat="43.71343" lon="2.13486">
        <ele>336.12</ele>
        <time>2017-10-01T08:59:30Z</time>
      </trkpt>
      <trkpt lat="43.71334" lon="2.13502">
        <ele>338.04</ele>
        <time>2017-10-01T08:59:44Z</time>
      </trkpt>
      <trkpt lat="43.71333" lon="2.13505">
        <ele>338.52</ele>
        <time>2017-10-01T08:59:46Z</time>
      </trkpt>
      <trkpt lat="43.71331" lon="2.13508">
        <ele>339</ele>
        <time>2017-10-01T08:59:49Z</time>
      </trkpt>
      <trkpt lat="43.71331" lon="2.1351">
        <ele>339.48</ele>
        <time>2017-10-01T08:59:51Z</time>
      </trkpt>
      <trkpt lat="43.71325" lon="2.13522">
        <ele>340.92</ele>
        <time>2017-10-01T09:00:03Z</time>
      </trkpt>
      <trkpt lat="43.71319" lon="2.13532">
        <ele>342.37</ele>
        <time>2017-10-01T09:00:14Z</time>
      </trkpt>
      <trkpt lat="43.71314" lon="2.13543">
        <ele>343.33</ele>
        <time>2017-10-01T09:00:25Z</time>
      </trkpt>
      <trkpt lat="43.7131" lon="2.1355">
        <ele>344.77</ele>
        <time>2017-10-01T09:00:33Z</time>
      </trkpt>
      <trkpt lat="43.71308" lon="2.13553">
        <ele>344.77</ele>
        <time>2017-10-01T09:00:36Z</time>
      </trkpt>
      <trkpt lat="43.71307" lon="2.13555">
        <ele>345.25</ele>
        <time>2017-10-01T09:00:38Z</time>
      </trkpt>
      <trkpt lat="43.71304" lon="2.13561">
        <ele>346.21</ele>
        <time>2017-10-01T09:00:45Z</time>
      </trkpt>
      <trkpt lat="43.71302" lon="2.13567">
        <ele>346.69</ele>
        <time>2017-10-01T09:00:51Z</time>
      </trkpt>
      <trkpt lat="43.71295" lon="2.13579">
        <ele>348.62</ele>
        <time>2017-10-01T09:01:05Z</time>
      </trkpt>
      <trkpt lat="43.71295" lon="2.1358">
        <ele>348.62</ele>
        <time>2017-10-01T09:01:06Z</time>
      </trkpt>
      <trkpt lat="43.71288" lon="2.13594">
        <ele>350.54</ele>
        <time>2017-10-01T09:01:21Z</time>
      </trkpt>
      <trkpt lat="43.71285" lon="2.13601">
        <ele>351.5</ele>
        <time>2017-10-01T09:01:28Z</time>
      </trkpt>
      <trkpt lat="43.71284" lon="2.13607">
        <ele>351.98</ele>
        <time>2017-10-01T09:01:34Z</time>
      </trkpt>
      <trkpt lat="43.7128" lon="2.1362">
        <ele>353.42</ele>
        <time>2017-10-01T09:01:44Z</time>
      </trkpt>
      <trkpt lat="43.71277" lon="2.13632">
        <ele>354.86</ele>
        <time>2017-10-01T09:01:56Z</time>
      </trkpt>
      <trkpt lat="43.71274" lon="2.13644">
        <ele>355.83</ele>
        <time>2017-10-01T09:02:06Z</time>
      </trkpt>
      <trkpt lat="43.7127" lon="2.13657">
        <ele>356.79</ele>
        <time>2017-10-01T09:02:17Z</time>
      </trkpt>
      <trkpt lat="43.71266" lon="2.13668">
        <ele>357.75</ele>
        <time>2017-10-01T09:02:28Z</time>
      </trkpt>
      <trkpt lat="43.71264" lon="2.13675">
        <ele>358.23</ele>
        <time>2017-10-01T09:02:33Z</time>
      </trkpt>
      <trkpt lat="43.71263" lon="2.13679">
        <ele>358.23</ele>
        <time>2017-10-01T09:02:37Z</time>
      </trkpt>
      <trkpt lat="43.71253" lon="2.13689">
        <ele>359.67</ele>
        <time>2017-10-01T09:02:51Z</time>
      </trkpt>
      <trkpt lat="43.71251" lon="2.1369">
        <ele>359.67</ele>
        <time>2017-10-01T09:02:53Z</time>
      </trkpt>
      <trkpt lat="43.71247" lon="2.13692">
        <ele>359.67</ele>
        <time>2017-10-01T09:02:57Z</time>
      </trkpt>
      <trkpt lat="43.71235" lon="2.13697">
        <ele>360.15</ele>
        <time>2017-10-01T09:03:09Z</time>
      </trkpt>
      <trkpt lat="43.71232" lon="2.13698">
        <ele>360.15</ele>
        <time>2017-10-01T09:03:12Z</time>
      </trkpt>
      <trkpt lat="43.71227" lon="2.13701">
        <ele>360.15</ele>
        <time>2017-10-01T09:03:17Z</time>
      </trkpt>
      <trkpt lat="43.71214" lon="2.13706">
        <ele>360.15</ele>
        <time>2017-10-01T09:03:31Z</time>
      </trkpt>
      <trkpt lat="43.71207" lon="2.1371">
        <ele>360.63</ele>
        <time>2017-10-01T09:03:40Z</time>
      </trkpt>
      <trkpt lat="43.71195" lon="2.13721">
        <ele>360.63</ele>
        <time>2017-10-01T09:03:54Z</time>
      </trkpt>
      <trkpt lat="43.71186" lon="2.13729">
        <ele>360.63</ele>
        <time>2017-10-01T09:04:06Z</time>
      </trkpt>
      <trkpt lat="43.71185" lon="2.13729">
        <ele>360.63</ele>
        <time>2017-10-01T09:04:07Z</time>
      </trkpt>
      <trkpt lat="43.71177" lon="2.13736">
        <ele>360.63</ele>
        <time>2017-10-01T09:04:16Z</time>
      </trkpt>
      <trkpt lat="43.7117" lon="2.13741">
        <ele>360.15</ele>
        <time>2017-10-01T09:04:24Z</time>
      </trkpt>
      <trkpt lat="43.71163" lon="2.13749">
        <ele>360.15</ele>
        <time>2017-10-01T09:04:33Z</time>
      </trkpt>
      <trkpt lat="43.71152" lon="2.13761">
        <ele>359.19</ele>
        <time>2017-10-01T09:04:48Z</time>
      </trkpt>
      <trkpt lat="43.71143" lon="2.13771">
        <ele>358.23</ele>
        <time>2017-10-01T09:05:01Z</time>
      </trkpt>
      <trkpt lat="43.71133" lon="2.13783">
        <ele>356.79</ele>
        <time>2017-10-01T09:05:15Z</time>
      </trkpt>
      <trkpt lat="43.71128" lon="2.1379">
        <ele>355.34</ele>
        <time>2017-10-01T09:05:23Z</time>
      </trkpt>
      <trkpt lat="43.71126" lon="2.13792">
        <ele>355.34</ele>
        <time>2017-10-01T09:05:25Z</time>
      </trkpt>
      <trkpt lat="43.71125" lon="2.13793">
        <ele>354.86</ele>
        <time>2017-10-01T09:05:27Z</time>
      </trkpt>
      <trkpt lat="43.71114" lon="2.13803">
        <ele>352.94</ele>
        <time>2017-10-01T09:05:41Z</time>
      </trkpt>
      <trkpt lat="43.71103" lon="2.13809">
        <ele>351.5</ele>
        <time>2017-10-01T09:05:54Z</time>
      </trkpt>
      <trkpt lat="43.71102" lon="2.13809">
        <ele>351.02</ele>
        <time>2017-10-01T09:05:55Z</time>
      </trkpt>
      <trkpt lat="43.71096" lon="2.13811">
        <ele>350.54</ele>
        <time>2017-10-01T09:06:01Z</time>
      </trkpt>
      <trkpt lat="43.71088" lon="2.1381">
        <ele>349.58</ele>
        <time>2017-10-01T09:06:09Z</time>
      </trkpt>
      <trkpt lat="43.71073" lon="2.13804">
        <ele>348.13</ele>
        <time>2017-10-01T09:06:25Z</time>
      </trkpt>
      <trkpt lat="43.71072" lon="2.13804">
        <ele>347.65</ele>
        <time>2017-10-01T09:06:26Z</time>
      </trkpt>
      <trkpt lat="43.71059" lon="2.13797">
        <ele>346.69</ele>
        <time>2017-10-01T09:06:40Z</time>
      </trkpt>
      <trkpt lat="43.71037" lon="2.13783">
        <ele>341.41</ele>
        <time>2017-10-01T09:10:22Z</time>
      </trkpt>
      <trkpt lat="43.71041" lon="2.13786">
        <ele>341.89</ele>
        <time>2017-10-01T09:10:26Z</time>
      </trkpt>
      <trkpt lat="43.71044" lon="2.1379">
        <ele>341.89</ele>
        <time>2017-10-01T09:10:30Z</time>
      </trkpt>
      <trkpt lat="43.71051" lon="2.13802">
        <ele>342.85</ele>
        <time>2017-10-01T09:10:42Z</time>
      </trkpt>
      <trkpt lat="43.71053" lon="2.13804">
        <ele>342.85</ele>
        <time>2017-10-01T09:10:44Z</time>
      </trkpt>
      <trkpt lat="43.71058" lon="2.13812">
        <ele>343.81</ele>
        <time>2017-10-01T09:10:51Z</time>
      </trkpt>
      <trkpt lat="43.71067" lon="2.13826">
        <ele>346.21</ele>
        <time>2017-10-01T09:11:05Z</time>
      </trkpt>
      <trkpt lat="43.71076" lon="2.13834">
        <ele>347.65</ele>
        <time>2017-10-01T09:11:18Z</time>
      </trkpt>
      <trkpt lat="43.71083" lon="2.13843">
        <ele>349.1</ele>
        <time>2017-10-01T09:11:30Z</time>
      </trkpt>
      <trkpt lat="43.71089" lon="2.1385">
        <ele>349.58</ele>
        <time>2017-10-01T09:11:38Z</time>
      </trkpt>
      <trkpt lat="43.71096" lon="2.1386">
        <ele>350.06</ele>
        <time>2017-10-01T09:11:50Z</time>
      </trkpt>
      <trkpt lat="43.71104" lon="2.1387">
        <ele>350.54</ele>
        <time>2017-10-01T09:12:00Z</time>
      </trkpt>
      <trkpt lat="43.71106" lon="2.13871">
        <ele>350.54</ele>
        <time>2017-10-01T09:12:02Z</time>
      </trkpt>
      <trkpt lat="43.71106" lon="2.13873">
        <ele>351.02</ele>
        <time>2017-10-01T09:12:04Z</time>
      </trkpt>
      <trkpt lat="43.71114" lon="2.13882">
        <ele>351.02</ele>
        <time>2017-10-01T09:12:13Z</time>
      </trkpt>
      <trkpt lat="43.71119" lon="2.13888">
        <ele>351.5</ele>
        <time>2017-10-01T09:12:19Z</time>
      </trkpt>
      <trkpt lat="43.71127" lon="2.13896">
        <ele>351.98</ele>
        <time>2017-10-01T09:12:28Z</time>
      </trkpt>
      <trkpt lat="43.71132" lon="2.13901">
        <ele>352.46</ele>
        <time>2017-10-01T09:12:33Z</time>
      </trkpt>
      <trkpt lat="43.71133" lon="2.13902">
        <ele>352.46</ele>
        <time>2017-10-01T09:12:35Z</time>
      </trkpt>
      <trkpt lat="43.71143" lon="2.13912">
        <ele>352.94</ele>
        <time>2017-10-01T09:12:46Z</time>
      </trkpt>
      <trkpt lat="43.71143" lon="2.13912">
        <ele>352.94</ele>
        <time>2017-10-01T09:12:47Z</time>
      </trkpt>
      <trkpt lat="43.7115" lon="2.13917">
        <ele>353.42</ele>
        <time>2017-10-01T09:12:53Z</time>
      </trkpt>
      <trkpt lat="43.71158" lon="2.13926">
        <ele>353.42</ele>
        <time>2017-10-01T09:13:02Z</time>
      </trkpt>
      <trkpt lat="43.71162" lon="2.13929">
        <ele>353.42</ele>
        <time>2017-10-01T09:13:07Z</time>
      </trkpt>
      <trkpt lat="43.71163" lon="2.13931">
        <ele>353.9</ele>
        <time>2017-10-01T09:13:09Z</time>
      </trkpt>
      <trkpt lat="43.71169" lon="2.13938">
        <ele>353.9</ele>
        <time>2017-10-01T09:13:16Z</time>
      </trkpt>
      <trkpt lat="43.71173" lon="2.13942">
        <ele>353.9</ele>
        <time>2017-10-01T09:13:21Z</time>
      </trkpt>
      <trkpt lat="43.71182" lon="2.1395">
        <ele>353.42</ele>
        <time>2017-10-01T09:13:32Z</time>
      </trkpt>
      <trkpt lat="43.71185" lon="2.13955">
        <ele>352.94</ele>
        <time>2017-10-01T09:13:36Z</time>
      </trkpt>
      <trkpt lat="43.71189" lon="2.13957">
        <ele>352.46</ele>
        <time>2017-10-01T09:13:39Z</time>
      </trkpt>
      <trkpt lat="43.71191" lon="2.13959">
        <ele>351.98</ele>
        <time>2017-10-01T09:13:42Z</time>
      </trkpt>
      <trkpt lat="43.71201" lon="2.13967">
        <ele>351.5</ele>
        <time>2017-10-01T09:13:53Z</time>
      </trkpt>
      <trkpt lat="43.71202" lon="2.13968">
        <ele>351.5</ele>
        <time>2017-10-01T09:13:55Z</time>
      </trkpt>
      <trkpt lat="43.71218" lon="2.13977">
        <ele>349.58</ele>
        <time>2017-10-01T09:14:11Z</time>
      </trkpt>
      <trkpt lat="43.71227" lon="2.13984">
        <ele>348.13</ele>
        <time>2017-10-01T09:14:23Z</time>
      </trkpt>
      <trkpt lat="43.71237" lon="2.13992">
        <ele>346.69</ele>
        <time>2017-10-01T09:14:35Z</time>
      </trkpt>
      <trkpt lat="43.71242" lon="2.13996">
        <ele>346.21</ele>
        <time>2017-10-01T09:14:41Z</time>
      </trkpt>
      <trkpt lat="43.7125" lon="2.14003">
        <ele>344.77</ele>
        <time>2017-10-01T09:14:50Z</time>
      </trkpt>
      <trkpt lat="43.71261" lon="2.14012">
        <ele>343.81</ele>
        <time>2017-10-01T09:15:03Z</time>
      </trkpt>
      <trkpt lat="43.71266" lon="2.14017">
        <ele>343.33</ele>
        <time>2017-10-01T09:15:09Z</time>
      </trkpt>
      <trkpt lat="43.71268" lon="2.1402">
        <ele>342.85</ele>
        <time>2017-10-01T09:15:12Z</time>
      </trkpt>
      <trkpt lat="43.71276" lon="2.14026">
        <ele>342.37</ele>
        <time>2017-10-01T09:15:20Z</time>
      </trkpt>
      <trkpt lat="43.71285" lon="2.14034">
        <ele>342.37</ele>
        <time>2017-10-01T09:15:30Z</time>
      </trkpt>
      <trkpt lat="43.71286" lon="2.14035">
        <ele>342.37</ele>
        <time>2017-10-01T09:15:32Z</time>
      </trkpt>
      <trkpt lat="43.71293" lon="2.1404">
        <ele>342.37</ele>
        <time>2017-10-01T09:15:39Z</time>
      </trkpt>
      <trkpt lat="43.71298" lon="2.14043">
        <ele>341.89</ele>
        <time>2017-10-01T09:15:44Z</time>
      </trkpt>
      <trkpt lat="43.71305" lon="2.14048">
        <ele>341.89</ele>
        <time>2017-10-01T09:15:52Z</time>
      </trkpt>
      <trkpt lat="43.7131" lon="2.14049">
        <ele>341.89</ele>
        <time>2017-10-01T09:15:57Z</time>
      </trkpt>
      <trkpt lat="43.71316" lon="2.14051">
        <ele>341.89</ele>
        <time>2017-10-01T09:16:03Z</time>
      </trkpt>
      <trkpt lat="43.7132" lon="2.14051">
        <ele>341.89</ele>
        <time>2017-10-01T09:16:07Z</time>
      </trkpt>
      <trkpt lat="43.71324" lon="2.1405">
        <ele>341.89</ele>
        <time>2017-10-01T09:16:12Z</time>
      </trkpt>
      <trkpt lat="43.71334" lon="2.14048">
        <ele>341.89</ele>
        <time>2017-10-01T09:16:22Z</time>
      </trkpt>
      <trkpt lat="43.71345" lon="2.14045">
        <ele>341.89</ele>
        <time>2017-10-01T09:16:33Z</time>
      </trkpt>
      <trkpt lat="43.7135" lon="2.14042">
        <ele>341.89</ele>
        <time>2017-10-01T09:16:38Z</time>
      </trkpt>
      <trkpt lat="43.71364" lon="2.14034">
        <ele>341.89</ele>
        <time>2017-10-01T09:16:52Z</time>
      </trkpt>
      <trkpt lat="43.71376" lon="2.14027">
        <ele>341.89</ele>
        <time>2017-10-01T09:17:05Z</time>
      </trkpt>
      <trkpt lat="43.71387" lon="2.1402">
        <ele>342.37</ele>
        <time>2017-10-01T09:17:17Z</time>
      </trkpt>
      <trkpt lat="43.714" lon="2.14013">
        <ele>341.89</ele>
        <time>2017-10-01T09:17:30Z</time>
      </trkpt>
      <trkpt lat="43.71401" lon="2.14012">
        <ele>341.89</ele>
        <time>2017-10-01T09:17:32Z</time>
      </trkpt>
      <trkpt lat="43.71405" lon="2.14012">
        <ele>341.41</ele>
        <time>2017-10-01T09:17:36Z</time>
      </trkpt>
      <trkpt lat="43.7141" lon="2.14008">
        <ele>341.41</ele>
        <time>2017-10-01T09:17:42Z</time>
      </trkpt>
      <trkpt lat="43.71425" lon="2.14001">
        <ele>340.92</ele>
        <time>2017-10-01T09:17:58Z</time>
      </trkpt>
      <trkpt lat="43.71432" lon="2.13997">
        <ele>340.44</ele>
        <time>2017-10-01T09:18:05Z</time>
      </trkpt>
      <trkpt lat="43.71441" lon="2.13991">
        <ele>339</ele>
        <time>2017-10-01T09:18:15Z</time>
      </trkpt>
      <trkpt lat="43.71445" lon="2.13991">
        <ele>339</ele>
        <time>2017-10-01T09:18:19Z</time>
      </trkpt>
      <trkpt lat="43.7145" lon="2.1399">
        <ele>338.52</ele>
        <time>2017-10-01T09:18:23Z</time>
      </trkpt>
      <trkpt lat="43.71455" lon="2.13988">
        <ele>338.52</ele>
        <time>2017-10-01T09:18:29Z</time>
      </trkpt>
      <trkpt lat="43.71468" lon="2.13986">
        <ele>337.08</ele>
        <time>2017-10-01T09:18:43Z</time>
      </trkpt>
      <trkpt lat="43.71482" lon="2.13985">
        <ele>335.16</ele>
        <time>2017-10-01T09:18:57Z</time>
      </trkpt>
      <trkpt lat="43.71493" lon="2.13987">
        <ele>333.71</ele>
        <time>2017-10-01T09:19:10Z</time>
      </trkpt>
      <trkpt lat="43.71505" lon="2.1399">
        <ele>332.27</ele>
        <time>2017-10-01T09:19:22Z</time>
      </trkpt>
      <trkpt lat="43.71517" lon="2.13996">
        <ele>331.31</ele>
        <time>2017-10-01T09:19:36Z</time>
      </trkpt>
      <trkpt lat="43.71518" lon="2.13996">
        <ele>330.83</ele>
        <time>2017-10-01T09:19:37Z</time>
      </trkpt>
      <trkpt lat="43.71527" lon="2.14001">
        <ele>330.35</ele>
        <time>2017-10-01T09:19:45Z</time>
      </trkpt>
      <trkpt lat="43.71539" lon="2.14009">
        <ele>329.87</ele>
        <time>2017-10-01T09:19:58Z</time>
      </trkpt>
      <trkpt lat="43.71553" lon="2.14014">
        <ele>329.39</ele>
        <time>2017-10-01T09:20:12Z</time>
      </trkpt>
      <trkpt lat="43.71554" lon="2.14016">
        <ele>329.39</ele>
        <time>2017-10-01T09:20:14Z</time>
      </trkpt>
      <trkpt lat="43.7156" lon="2.14016">
        <ele>328.91</ele>
        <time>2017-10-01T09:20:22Z</time>
      </trkpt>
      <trkpt lat="43.71562" lon="2.14013">
        <ele>328.91</ele>
        <time>2017-10-01T09:20:25Z</time>
      </trkpt>
      <trkpt lat="43.71573" lon="2.14">
        <ele>328.43</ele>
        <time>2017-10-01T09:20:39Z</time>
      </trkpt>
      <trkpt lat="43.71578" lon="2.13994">
        <ele>328.43</ele>
        <time>2017-10-01T09:20:45Z</time>
      </trkpt>
      <trkpt lat="43.71586" lon="2.13987">
        <ele>327.95</ele>
        <time>2017-10-01T09:20:54Z</time>
      </trkpt>
      <trkpt lat="43.71596" lon="2.13976">
        <ele>327.47</ele>
        <time>2017-10-01T09:21:06Z</time>
      </trkpt>
      <trkpt lat="43.71601" lon="2.13974">
        <ele>327.47</ele>
        <time>2017-10-01T09:21:11Z</time>
      </trkpt>
      <trkpt lat="43.71608" lon="2.13964">
        <ele>326.99</ele>
        <time>2017-10-01T09:21:21Z</time>
      </trkpt>
      <trkpt lat="43.7161" lon="2.13963">
        <ele>326.99</ele>
        <time>2017-10-01T09:21:23Z</time>
      </trkpt>
      <trkpt lat="43.71615" lon="2.13957">
        <ele>326.99</ele>
        <time>2017-10-01T09:21:29Z</time>
      </trkpt>
      <trkpt lat="43.71618" lon="2.13953">
        <ele>326.99</ele>
        <time>2017-10-01T09:21:33Z</time>
      </trkpt>
      <trkpt lat="43.71634" lon="2.13937">
        <ele>326.5</ele>
        <time>2017-10-01T09:21:51Z</time>
      </trkpt>
      <trkpt lat="43.71647" lon="2.13924">
        <ele>326.5</ele>
        <time>2017-10-01T09:22:06Z</time>
      </trkpt>
      <trkpt lat="43.71652" lon="2.13919">
        <ele>326.02</ele>
        <time>2017-10-01T09:22:12Z</time>
      </trkpt>
      <trkpt lat="43.71655" lon="2.13917">
        <ele>326.02</ele>
        <time>2017-10-01T09:22:15Z</time>
      </trkpt>
      <trkpt lat="43.7166" lon="2.13911">
        <ele>326.02</ele>
        <time>2017-10-01T09:22:20Z</time>
      </trkpt>
      <trkpt lat="43.71662" lon="2.13909">
        <ele>326.02</ele>
        <time>2017-10-01T09:22:22Z</time>
      </trkpt>
      <trkpt lat="43.71667" lon="2.13908">
        <ele>326.02</ele>
        <time>2017-10-01T09:22:38Z</time>
      </trkpt>
      <trkpt lat="43.7167" lon="2.13908">
        <ele>326.02</ele>
        <time>2017-10-01T09:22:42Z</time>
      </trkpt>
      <trkpt lat="43.71675" lon="2.13908">
        <ele>326.02</ele>
        <time>2017-10-01T09:22:47Z</time>
      </trkpt>
      <trkpt lat="43.71692" lon="2.13905">
        <ele>325.54</ele>
        <time>2017-10-01T09:23:03Z</time>
      </trkpt>
      <trkpt lat="43.71694" lon="2.13904">
        <ele>325.54</ele>
        <time>2017-10-01T09:23:05Z</time>
      </trkpt>
      <trkpt lat="43.71697" lon="2.13905">
        <ele>325.54</ele>
        <time>2017-10-01T09:23:08Z</time>
      </trkpt>
      <trkpt lat="43.71702" lon="2.13904">
        <ele>325.06</ele>
        <time>2017-10-01T09:23:13Z</time>
      </trkpt>
      <trkpt lat="43.7173" lon="2.13897">
        <ele>324.58</ele>
        <time>2017-10-01T09:24:20Z</time>
      </trkpt>
      <trkpt lat="43.71746" lon="2.13896">
        <ele>324.1</ele>
        <time>2017-10-01T09:24:34Z</time>
      </trkpt>
      <trkpt lat="43.71761" lon="2.1389">
        <ele>322.66</ele>
        <time>2017-10-01T09:24:48Z</time>
      </trkpt>
      <trkpt lat="43.71771" lon="2.13886">
        <ele>322.18</ele>
        <time>2017-10-01T09:24:58Z</time>
      </trkpt>
      <trkpt lat="43.71775" lon="2.13884">
        <ele>322.18</ele>
        <time>2017-10-01T09:25:02Z</time>
      </trkpt>
      <trkpt lat="43.71786" lon="2.13878">
        <ele>320.74</ele>
        <time>2017-10-01T09:25:16Z</time>
      </trkpt>
      <trkpt lat="43.71787" lon="2.13877">
        <ele>322.18</ele>
        <time>2017-10-01T09:25:18Z</time>
      </trkpt>
      <trkpt lat="43.71801" lon="2.13873">
        <ele>321.7</ele>
        <time>2017-10-01T09:25:31Z</time>
      </trkpt>
      <trkpt lat="43.7181" lon="2.13871">
        <ele>321.22</ele>
        <time>2017-10-01T09:25:39Z</time>
      </trkpt>
      <trkpt lat="43.71814" lon="2.1387">
        <ele>321.22</ele>
        <time>2017-10-01T09:25:42Z</time>
      </trkpt>
      <trkpt lat="43.71832" lon="2.13877">
        <ele>321.22</ele>
        <time>2017-10-01T09:25:57Z</time>
      </trkpt>
      <trkpt lat="43.71839" lon="2.1388">
        <ele>321.22</ele>
        <time>2017-10-01T09:26:03Z</time>
      </trkpt>
      <trkpt lat="43.71842" lon="2.13884">
        <ele>321.7</ele>
        <time>2017-10-01T09:26:06Z</time>
      </trkpt>
      <trkpt lat="43.71862" lon="2.13894">
        <ele>320.74</ele>
        <time>2017-10-01T09:26:23Z</time>
      </trkpt>
      <trkpt lat="43.7188" lon="2.13903">
        <ele>320.26</ele>
        <time>2017-10-01T09:26:38Z</time>
      </trkpt>
      <trkpt lat="43.71892" lon="2.13912">
        <ele>319.3</ele>
        <time>2017-10-01T09:26:49Z</time>
      </trkpt>
      <trkpt lat="43.71898" lon="2.13916">
        <ele>319.3</ele>
        <time>2017-10-01T09:26:54Z</time>
      </trkpt>
      <trkpt lat="43.71905" lon="2.1392">
        <ele>318.81</ele>
        <time>2017-10-01T09:27:01Z</time>
      </trkpt>
      <trkpt lat="43.7191" lon="2.13922">
        <ele>317.85</ele>
        <time>2017-10-01T09:27:06Z</time>
      </trkpt>
      <trkpt lat="43.71913" lon="2.13922">
        <ele>317.85</ele>
        <time>2017-10-01T09:27:09Z</time>
      </trkpt>
      <trkpt lat="43.71928" lon="2.13925">
        <ele>315.45</ele>
        <time>2017-10-01T09:27:23Z</time>
      </trkpt>
      <trkpt lat="43.7194" lon="2.13932">
        <ele>313.53</ele>
        <time>2017-10-01T09:27:36Z</time>
      </trkpt>
      <trkpt lat="43.71952" lon="2.13935">
        <ele>312.09</ele>
        <time>2017-10-01T09:27:50Z</time>
      </trkpt>
      <trkpt lat="43.71966" lon="2.13939">
        <ele>309.68</ele>
        <time>2017-10-01T09:28:05Z</time>
      </trkpt>
      <trkpt lat="43.71969" lon="2.1394">
        <ele>309.2</ele>
        <time>2017-10-01T09:28:08Z</time>
      </trkpt>
      <trkpt lat="43.71981" lon="2.13946">
        <ele>306.8</ele>
        <time>2017-10-01T09:28:19Z</time>
      </trkpt>
      <trkpt lat="43.71993" lon="2.13951">
        <ele>304.88</ele>
        <time>2017-10-01T09:28:29Z</time>
      </trkpt>
      <trkpt lat="43.71998" lon="2.13952">
        <ele>303.91</ele>
        <time>2017-10-01T09:28:32Z</time>
      </trkpt>
      <trkpt lat="43.72002" lon="2.13955">
        <ele>303.43</ele>
        <time>2017-10-01T09:28:36Z</time>
      </trkpt>
      <trkpt lat="43.72023" lon="2.13961">
        <ele>300.55</ele>
        <time>2017-10-01T09:28:52Z</time>
      </trkpt>
      <trkpt lat="43.72025" lon="2.13961">
        <ele>300.07</ele>
        <time>2017-10-01T09:28:54Z</time>
      </trkpt>
      <trkpt lat="43.72045" lon="2.13971">
        <ele>297.67</ele>
        <time>2017-10-01T09:29:10Z</time>
      </trkpt>
      <trkpt lat="43.72056" lon="2.13977">
        <ele>296.7</ele>
        <time>2017-10-01T09:29:19Z</time>
      </trkpt>
      <trkpt lat="43.72059" lon="2.13978">
        <ele>296.7</ele>
        <time>2017-10-01T09:29:21Z</time>
      </trkpt>
      <trkpt lat="43.7207" lon="2.13986">
        <ele>296.22</ele>
        <time>2017-10-01T09:29:30Z</time>
      </trkpt>
      <trkpt lat="43.72072" lon="2.13988">
        <ele>296.22</ele>
        <time>2017-10-01T09:29:32Z</time>
      </trkpt>
      <trkpt lat="43.72091" lon="2.13999">
        <ele>295.74</ele>
        <time>2017-10-01T09:29:47Z</time>
      </trkpt>
      <trkpt lat="43.72108" lon="2.14007">
        <ele>295.74</ele>
        <time>2017-10-01T09:30:00Z</time>
      </trkpt>
      <trkpt lat="43.7212" lon="2.1401">
        <ele>295.74</ele>
        <time>2017-10-01T09:30:09Z</time>
      </trkpt>
      <trkpt lat="43.72123" lon="2.14011">
        <ele>296.22</ele>
        <time>2017-10-01T09:30:12Z</time>
      </trkpt>
      <trkpt lat="43.72143" lon="2.1402">
        <ele>295.26</ele>
        <time>2017-10-01T09:30:28Z</time>
      </trkpt>
      <trkpt lat="43.72149" lon="2.14022">
        <ele>294.78</ele>
        <time>2017-10-01T09:30:33Z</time>
      </trkpt>
      <trkpt lat="43.7216" lon="2.1403">
        <ele>293.34</ele>
        <time>2017-10-01T09:30:43Z</time>
      </trkpt>
      <trkpt lat="43.72178" lon="2.14041">
        <ele>291.9</ele>
        <time>2017-10-01T09:30:59Z</time>
      </trkpt>
      <trkpt lat="43.72188" lon="2.14047">
        <ele>291.42</ele>
        <time>2017-10-01T09:31:10Z</time>
      </trkpt>
      <trkpt lat="43.72203" lon="2.14046">
        <ele>290.94</ele>
        <time>2017-10-01T09:31:22Z</time>
      </trkpt>
      <trkpt lat="43.72209" lon="2.14047">
        <ele>290.94</ele>
        <time>2017-10-01T09:31:36Z</time>
      </trkpt>
      <trkpt lat="43.7222" lon="2.14045">
        <ele>290.46</ele>
        <time>2017-10-01T09:31:48Z</time>
      </trkpt>
      <trkpt lat="43.72221" lon="2.14045">
        <ele>290.46</ele>
        <time>2017-10-01T09:31:49Z</time>
      </trkpt>
      <trkpt lat="43.72225" lon="2.14043">
        <ele>289.97</ele>
        <time>2017-10-01T09:31:53Z</time>
      </trkpt>
      <trkpt lat="43.72244" lon="2.14039">
        <ele>289.49</ele>
        <time>2017-10-01T09:32:09Z</time>
      </trkpt>
      <trkpt lat="43.72246" lon="2.14039">
        <ele>289.49</ele>
        <time>2017-10-01T09:32:11Z</time>
      </trkpt>
      <trkpt lat="43.72258" lon="2.14038">
        <ele>289.01</ele>
        <time>2017-10-01T09:32:23Z</time>
      </trkpt>
      <trkpt lat="43.72273" lon="2.14038">
        <ele>289.01</ele>
        <time>2017-10-01T09:32:38Z</time>
      </trkpt>
      <trkpt lat="43.72286" lon="2.1404">
        <ele>289.01</ele>
        <time>2017-10-01T09:32:50Z</time>
      </trkpt>
      <trkpt lat="43.72299" lon="2.14043">
        <ele>288.53</ele>
        <time>2017-10-01T09:33:02Z</time>
      </trkpt>
      <trkpt lat="43.72311" lon="2.14046">
        <ele>288.53</ele>
        <time>2017-10-01T09:33:12Z</time>
      </trkpt>
      <trkpt lat="43.72319" lon="2.14047">
        <ele>288.53</ele>
        <time>2017-10-01T09:33:19Z</time>
      </trkpt>
      <trkpt lat="43.72325" lon="2.14047">
        <ele>288.05</ele>
        <time>2017-10-01T09:33:24Z</time>
      </trkpt>
      <trkpt lat="43.72333" lon="2.14048">
        <ele>288.05</ele>
        <time>2017-10-01T09:33:32Z</time>
      </trkpt>
      <trkpt lat="43.72348" lon="2.14049">
        <ele>287.57</ele>
        <time>2017-10-01T09:33:45Z</time>
      </trkpt>
      <trkpt lat="43.72362" lon="2.1405">
        <ele>287.09</ele>
        <time>2017-10-01T09:33:58Z</time>
      </trkpt>
      <trkpt lat="43.72369" lon="2.14052">
        <ele>287.09</ele>
        <time>2017-10-01T09:34:05Z</time>
      </trkpt>
      <trkpt lat="43.72382" lon="2.14053">
        <ele>286.61</ele>
        <time>2017-10-01T09:34:18Z</time>
      </trkpt>
      <trkpt lat="43.72387" lon="2.14055">
        <ele>286.61</ele>
        <time>2017-10-01T09:34:23Z</time>
      </trkpt>
      <trkpt lat="43.72394" lon="2.14055">
        <ele>286.61</ele>
        <time>2017-10-01T09:34:30Z</time>
      </trkpt>
      <trkpt lat="43.72405" lon="2.14057">
        <ele>286.61</ele>
        <time>2017-10-01T09:34:41Z</time>
      </trkpt>
      <trkpt lat="43.7241" lon="2.14059">
        <ele>286.61</ele>
        <time>2017-10-01T09:34:46Z</time>
      </trkpt>
      <trkpt lat="43.72418" lon="2.14059">
        <ele>286.61</ele>
        <time>2017-10-01T09:34:55Z</time>
      </trkpt>
      <trkpt lat="43.72426" lon="2.14059">
        <ele>286.61</ele>
        <time>2017-10-01T09:35:02Z</time>
      </trkpt>
      <trkpt lat="43.72428" lon="2.14059">
        <ele>286.61</ele>
        <time>2017-10-01T09:35:04Z</time>
      </trkpt>
      <trkpt lat="43.72443" lon="2.14058">
        <ele>286.13</ele>
        <time>2017-10-01T09:35:19Z</time>
      </trkpt>
      <trkpt lat="43.72449" lon="2.14059">
        <ele>285.65</ele>
        <time>2017-10-01T09:35:25Z</time>
      </trkpt>
      <trkpt lat="43.72466" lon="2.1406">
        <ele>285.17</ele>
        <time>2017-10-01T09:35:40Z</time>
      </trkpt>
      <trkpt lat="43.72481" lon="2.1406">
        <ele>284.69</ele>
        <time>2017-10-01T09:35:54Z</time>
      </trkpt>
      <trkpt lat="43.72487" lon="2.14059">
        <ele>284.69</ele>
        <time>2017-10-01T09:36:00Z</time>
      </trkpt>
      <trkpt lat="43.72501" lon="2.14058">
        <ele>284.21</ele>
        <time>2017-10-01T09:36:14Z</time>
      </trkpt>
      <trkpt lat="43.72502" lon="2.14058">
        <ele>284.21</ele>
        <time>2017-10-01T09:36:16Z</time>
      </trkpt>
      <trkpt lat="43.72511" lon="2.14058">
        <ele>283.73</ele>
        <time>2017-10-01T09:36:24Z</time>
      </trkpt>
      <trkpt lat="43.72525" lon="2.14056">
        <ele>284.21</ele>
        <time>2017-10-01T09:36:38Z</time>
      </trkpt>
      <trkpt lat="43.72531" lon="2.14056">
        <ele>283.73</ele>
        <time>2017-10-01T09:36:43Z</time>
      </trkpt>
      <trkpt lat="43.72543" lon="2.14055">
        <ele>284.21</ele>
        <time>2017-10-01T09:36:55Z</time>
      </trkpt>
      <trkpt lat="43.72545" lon="2.14055">
        <ele>284.21</ele>
        <time>2017-10-01T09:36:56Z</time>
      </trkpt>
      <trkpt lat="43.72547" lon="2.14054">
        <ele>284.21</ele>
        <time>2017-10-01T09:36:58Z</time>
      </trkpt>
      <trkpt lat="43.72559" lon="2.1405">
        <ele>285.17</ele>
        <time>2017-10-01T09:37:11Z</time>
      </trkpt>
      <trkpt lat="43.72565" lon="2.1404">
        <ele>286.13</ele>
        <time>2017-10-01T09:37:23Z</time>
      </trkpt>
      <trkpt lat="43.72566" lon="2.14038">
        <ele>286.13</ele>
        <time>2017-10-01T09:37:25Z</time>
      </trkpt>
      <trkpt lat="43.72572" lon="2.14025">
        <ele>287.09</ele>
        <time>2017-10-01T09:37:39Z</time>
      </trkpt>
      <trkpt lat="43.72575" lon="2.14016">
        <ele>288.05</ele>
        <time>2017-10-01T09:37:47Z</time>
      </trkpt>
      <trkpt lat="43.72576" lon="2.14015">
        <ele>288.05</ele>
        <time>2017-10-01T09:37:49Z</time>
      </trkpt>
      <trkpt lat="43.72578" lon="2.14007">
        <ele>288.53</ele>
        <time>2017-10-01T09:37:55Z</time>
      </trkpt>
      <trkpt lat="43.72585" lon="2.13995">
        <ele>289.97</ele>
        <time>2017-10-01T09:38:08Z</time>
      </trkpt>
      <trkpt lat="43.72591" lon="2.13988">
        <ele>290.94</ele>
        <time>2017-10-01T09:38:17Z</time>
      </trkpt>
      <trkpt lat="43.72593" lon="2.13985">
        <ele>291.42</ele>
        <time>2017-10-01T09:38:20Z</time>
      </trkpt>
      <trkpt lat="43.726" lon="2.13978">
        <ele>291.9</ele>
        <time>2017-10-01T09:38:29Z</time>
      </trkpt>
      <trkpt lat="43.72608" lon="2.13974">
        <ele>293.34</ele>
        <time>2017-10-01T09:38:39Z</time>
      </trkpt>
      <trkpt lat="43.72614" lon="2.13974">
        <ele>293.82</ele>
        <time>2017-10-01T09:38:51Z</time>
      </trkpt>
      <trkpt lat="43.72617" lon="2.13973">
        <ele>293.82</ele>
        <time>2017-10-01T09:41:57Z</time>
      </trkpt>
      <trkpt lat="43.7262" lon="2.1397">
        <ele>293.82</ele>
        <time>2017-10-01T09:42:19Z</time>
      </trkpt>
      <trkpt lat="43.72636" lon="2.1397">
        <ele>294.3</ele>
        <time>2017-10-01T09:42:34Z</time>
      </trkpt>
      <trkpt lat="43.72649" lon="2.13971">
        <ele>293.82</ele>
        <time>2017-10-01T09:42:47Z</time>
      </trkpt>
      <trkpt lat="43.72664" lon="2.13973">
        <ele>293.34</ele>
        <time>2017-10-01T09:43:03Z</time>
      </trkpt>
      <trkpt lat="43.72678" lon="2.13974">
        <ele>292.38</ele>
        <time>2017-10-01T09:43:17Z</time>
      </trkpt>
      <trkpt lat="43.72691" lon="2.13975">
        <ele>291.42</ele>
        <time>2017-10-01T09:43:29Z</time>
      </trkpt>
      <trkpt lat="43.72707" lon="2.13975">
        <ele>290.46</ele>
        <time>2017-10-01T09:43:43Z</time>
      </trkpt>
      <trkpt lat="43.72711" lon="2.13976">
        <ele>289.97</ele>
        <time>2017-10-01T09:43:46Z</time>
      </trkpt>
      <trkpt lat="43.72716" lon="2.13977">
        <ele>289.49</ele>
        <time>2017-10-01T09:43:51Z</time>
      </trkpt>
      <trkpt lat="43.72728" lon="2.13977">
        <ele>289.49</ele>
        <time>2017-10-01T09:44:03Z</time>
      </trkpt>
      <trkpt lat="43.72738" lon="2.13976">
        <ele>289.49</ele>
        <time>2017-10-01T09:44:14Z</time>
      </trkpt>
      <trkpt lat="43.7274" lon="2.13975">
        <ele>289.49</ele>
        <time>2017-10-01T09:44:16Z</time>
      </trkpt>
      <trkpt lat="43.72742" lon="2.13976">
        <ele>289.49</ele>
        <time>2017-10-01T09:44:18Z</time>
      </trkpt>
      <trkpt lat="43.72744" lon="2.13976">
        <ele>289.49</ele>
        <time>2017-10-01T09:44:20Z</time>
      </trkpt>
      <trkpt lat="43.72756" lon="2.13978">
        <ele>289.97</ele>
        <time>2017-10-01T09:44:32Z</time>
      </trkpt>
      <trkpt lat="43.7277" lon="2.13982">
        <ele>290.46</ele>
        <time>2017-10-01T09:44:46Z</time>
      </trkpt>
      <trkpt lat="43.72782" lon="2.13989">
        <ele>291.9</ele>
        <time>2017-10-01T09:45:00Z</time>
      </trkpt>
      <trkpt lat="43.72792" lon="2.13995">
        <ele>293.82</ele>
        <time>2017-10-01T09:45:14Z</time>
      </trkpt>
      <trkpt lat="43.72802" lon="2.14002">
        <ele>295.26</ele>
        <time>2017-10-01T09:45:27Z</time>
      </trkpt>
      <trkpt lat="43.72808" lon="2.1401">
        <ele>297.18</ele>
        <time>2017-10-01T09:45:39Z</time>
      </trkpt>
      <trkpt lat="43.72815" lon="2.1401">
        <ele>298.63</ele>
        <time>2017-10-01T09:45:51Z</time>
      </trkpt>
      <trkpt lat="43.72815" lon="2.1401">
        <ele>298.63</ele>
        <time>2017-10-01T09:45:52Z</time>
      </trkpt>
      <trkpt lat="43.72815" lon="2.14007">
        <ele>298.63</ele>
        <time>2017-10-01T09:45:54Z</time>
      </trkpt>
      <trkpt lat="43.72815" lon="2.14005">
        <ele>299.11</ele>
        <time>2017-10-01T09:45:56Z</time>
      </trkpt>
      <trkpt lat="43.72812" lon="2.13987">
        <ele>300.07</ele>
        <time>2017-10-01T09:46:10Z</time>
      </trkpt>
      <trkpt lat="43.72816" lon="2.1397">
        <ele>301.51</ele>
        <time>2017-10-01T09:46:24Z</time>
      </trkpt>
      <trkpt lat="43.72818" lon="2.13966">
        <ele>301.99</ele>
        <time>2017-10-01T09:46:29Z</time>
      </trkpt>
      <trkpt lat="43.72825" lon="2.13957">
        <ele>302.95</ele>
        <time>2017-10-01T09:46:40Z</time>
      </trkpt>
      <trkpt lat="43.72833" lon="2.13949">
        <ele>303.91</ele>
        <time>2017-10-01T09:46:51Z</time>
      </trkpt>
      <trkpt lat="43.72834" lon="2.13948">
        <ele>303.91</ele>
        <time>2017-10-01T09:46:53Z</time>
      </trkpt>
      <trkpt lat="43.72836" lon="2.13946">
        <ele>303.91</ele>
        <time>2017-10-01T09:46:55Z</time>
      </trkpt>
      <trkpt lat="43.72844" lon="2.1394">
        <ele>303.91</ele>
        <time>2017-10-01T09:47:04Z</time>
      </trkpt>
      <trkpt lat="43.72849" lon="2.13936">
        <ele>303.91</ele>
        <time>2017-10-01T09:47:09Z</time>
      </trkpt>
      <trkpt lat="43.72858" lon="2.13929">
        <ele>303.91</ele>
        <time>2017-10-01T09:47:19Z</time>
      </trkpt>
      <trkpt lat="43.72859" lon="2.13927">
        <ele>303.43</ele>
        <time>2017-10-01T09:47:21Z</time>
      </trkpt>
      <trkpt lat="43.72872" lon="2.13918">
        <ele>302.95</ele>
        <time>2017-10-01T09:47:34Z</time>
      </trkpt>
      <trkpt lat="43.72876" lon="2.13915">
        <ele>302.95</ele>
        <time>2017-10-01T09:47:39Z</time>
      </trkpt>
      <trkpt lat="43.7289" lon="2.13905">
        <ele>301.99</ele>
        <time>2017-10-01T09:47:54Z</time>
      </trkpt>
      <trkpt lat="43.72895" lon="2.13901">
        <ele>301.51</ele>
        <time>2017-10-01T09:48:05Z</time>
      </trkpt>
      <trkpt lat="43.72903" lon="2.13894">
        <ele>301.51</ele>
        <time>2017-10-01T09:48:13Z</time>
      </trkpt>
      <trkpt lat="43.72906" lon="2.13892">
        <ele>301.03</ele>
        <time>2017-10-01T09:48:16Z</time>
      </trkpt>
      <trkpt lat="43.72914" lon="2.13885">
        <ele>300.55</ele>
        <time>2017-10-01T09:48:24Z</time>
      </trkpt>
      <trkpt lat="43.72915" lon="2.13883">
        <ele>300.55</ele>
        <time>2017-10-01T09:48:26Z</time>
      </trkpt>
      <trkpt lat="43.72928" lon="2.13873">
        <ele>300.07</ele>
        <time>2017-10-01T09:48:40Z</time>
      </trkpt>
      <trkpt lat="43.72942" lon="2.1386">
        <ele>298.63</ele>
        <time>2017-10-01T09:48:56Z</time>
      </trkpt>
      <trkpt lat="43.72954" lon="2.13848">
        <ele>297.67</ele>
        <time>2017-10-01T09:49:12Z</time>
      </trkpt>
      <trkpt lat="43.72965" lon="2.13835">
        <ele>297.18</ele>
        <time>2017-10-01T09:49:25Z</time>
      </trkpt>
      <trkpt lat="43.72974" lon="2.13817">
        <ele>296.22</ele>
        <time>2017-10-01T09:49:42Z</time>
      </trkpt>
      <trkpt lat="43.72979" lon="2.13815">
        <ele>295.74</ele>
        <time>2017-10-01T09:49:53Z</time>
      </trkpt>
      <trkpt lat="43.72979" lon="2.13836">
        <ele>294.3</ele>
        <time>2017-10-01T09:50:08Z</time>
      </trkpt>
      <trkpt lat="43.72979" lon="2.13837">
        <ele>293.82</ele>
        <time>2017-10-01T09:50:09Z</time>
      </trkpt>
      <trkpt lat="43.72979" lon="2.13843">
        <ele>293.82</ele>
        <time>2017-10-01T09:50:13Z</time>
      </trkpt>
      <trkpt lat="43.72976" lon="2.13861">
        <ele>291.9</ele>
        <time>2017-10-01T09:50:27Z</time>
      </trkpt>
      <trkpt lat="43.72975" lon="2.13878">
        <ele>289.49</ele>
        <time>2017-10-01T09:50:41Z</time>
      </trkpt>
      <trkpt lat="43.72975" lon="2.13897">
        <ele>287.57</ele>
        <time>2017-10-01T09:50:57Z</time>
      </trkpt>
      <trkpt lat="43.72973" lon="2.13918">
        <ele>285.65</ele>
        <time>2017-10-01T09:51:12Z</time>
      </trkpt>
      <trkpt lat="43.7297" lon="2.13938">
        <ele>284.21</ele>
        <time>2017-10-01T09:51:28Z</time>
      </trkpt>
      <trkpt lat="43.7297" lon="2.13949">
        <ele>283.73</ele>
        <time>2017-10-01T09:51:35Z</time>
      </trkpt>
      <trkpt lat="43.7297" lon="2.13959">
        <ele>283.25</ele>
        <time>2017-10-01T09:51:42Z</time>
      </trkpt>
      <trkpt lat="43.72973" lon="2.13982">
        <ele>282.28</ele>
        <time>2017-10-01T09:51:58Z</time>
      </trkpt>
      <trkpt lat="43.72976" lon="2.13986">
        <ele>281.8</ele>
        <time>2017-10-01T09:52:02Z</time>
      </trkpt>
      <trkpt lat="43.72979" lon="2.13988">
        <ele>281.8</ele>
        <time>2017-10-01T09:52:04Z</time>
      </trkpt>
      <trkpt lat="43.72982" lon="2.13989">
        <ele>281.8</ele>
        <time>2017-10-01T09:52:09Z</time>
      </trkpt>
      <trkpt lat="43.72983" lon="2.13991">
        <ele>281.8</ele>
        <time>2017-10-01T09:52:11Z</time>
      </trkpt>
      <trkpt lat="43.72998" lon="2.1399">
        <ele>280.36</ele>
        <time>2017-10-01T09:52:27Z</time>
      </trkpt>
      <trkpt lat="43.73014" lon="2.13986">
        <ele>278.92</ele>
        <time>2017-10-01T09:52:43Z</time>
      </trkpt>
      <trkpt lat="43.73026" lon="2.13983">
        <ele>277.96</ele>
        <time>2017-10-01T09:52:54Z</time>
      </trkpt>
      <trkpt lat="43.73034" lon="2.13983">
        <ele>277</ele>
        <time>2017-10-01T09:53:02Z</time>
      </trkpt>
      <trkpt lat="43.73036" lon="2.13982">
        <ele>277</ele>
        <time>2017-10-01T09:53:04Z</time>
      </trkpt>
      <trkpt lat="43.73049" lon="2.13982">
        <ele>275.56</ele>
        <time>2017-10-01T09:53:18Z</time>
      </trkpt>
      <trkpt lat="43.73063" lon="2.13981">
        <ele>274.59</ele>
        <time>2017-10-01T09:53:32Z</time>
      </trkpt>
      <trkpt lat="43.73073" lon="2.13979">
        <ele>273.63</ele>
        <time>2017-10-01T09:53:42Z</time>
      </trkpt>
      <trkpt lat="43.73076" lon="2.13979">
        <ele>273.15</ele>
        <time>2017-10-01T09:53:45Z</time>
      </trkpt>
      <trkpt lat="43.73078" lon="2.13978">
        <ele>272.67</ele>
        <time>2017-10-01T09:53:47Z</time>
      </trkpt>
      <trkpt lat="43.73093" lon="2.13977">
        <ele>271.23</ele>
        <time>2017-10-01T09:54:03Z</time>
      </trkpt>
      <trkpt lat="43.73105" lon="2.13974">
        <ele>270.27</ele>
        <time>2017-10-01T09:54:14Z</time>
      </trkpt>
      <trkpt lat="43.73108" lon="2.13973">
        <ele>269.79</ele>
        <time>2017-10-01T09:54:17Z</time>
      </trkpt>
      <trkpt lat="43.73112" lon="2.13971">
        <ele>269.31</ele>
        <time>2017-10-01T09:54:20Z</time>
      </trkpt>
      <trkpt lat="43.73119" lon="2.13968">
        <ele>268.35</ele>
        <time>2017-10-01T09:54:28Z</time>
      </trkpt>
      <trkpt lat="43.73121" lon="2.13967">
        <ele>267.86</ele>
        <time>2017-10-01T09:54:30Z</time>
      </trkpt>
      <trkpt lat="43.73124" lon="2.13967">
        <ele>267.86</ele>
        <time>2017-10-01T09:54:33Z</time>
      </trkpt>
      <trkpt lat="43.73129" lon="2.13965">
        <ele>266.9</ele>
        <time>2017-10-01T09:54:38Z</time>
      </trkpt>
      <trkpt lat="43.73135" lon="2.13963">
        <ele>265.94</ele>
        <time>2017-10-01T09:54:43Z</time>
      </trkpt>
      <trkpt lat="43.73148" lon="2.13968">
        <ele>264.02</ele>
        <time>2017-10-01T09:54:57Z</time>
      </trkpt>
      <trkpt lat="43.7316" lon="2.13986">
        <ele>261.62</ele>
        <time>2017-10-01T09:55:13Z</time>
      </trkpt>
      <trkpt lat="43.73164" lon="2.13994">
        <ele>260.65</ele>
        <time>2017-10-01T09:55:20Z</time>
      </trkpt>
      <trkpt lat="43.73173" lon="2.1401">
        <ele>258.73</ele>
        <time>2017-10-01T09:55:36Z</time>
      </trkpt>
      <trkpt lat="43.7318" lon="2.14023">
        <ele>257.29</ele>
        <time>2017-10-01T09:55:48Z</time>
      </trkpt>
      <trkpt lat="43.73185" lon="2.14027">
        <ele>256.33</ele>
        <time>2017-10-01T09:55:53Z</time>
      </trkpt>
      <trkpt lat="43.73196" lon="2.14037">
        <ele>254.89</ele>
        <time>2017-10-01T09:56:07Z</time>
      </trkpt>
      <trkpt lat="43.73197" lon="2.14037">
        <ele>254.89</ele>
        <time>2017-10-01T09:56:08Z</time>
      </trkpt>
      <trkpt lat="43.73203" lon="2.1404">
        <ele>253.93</ele>
        <time>2017-10-01T09:56:14Z</time>
      </trkpt>
      <trkpt lat="43.73207" lon="2.14042">
        <ele>253.44</ele>
        <time>2017-10-01T09:56:18Z</time>
      </trkpt>
      <trkpt lat="43.73219" lon="2.14049">
        <ele>252.48</ele>
        <time>2017-10-01T09:56:30Z</time>
      </trkpt>
      <trkpt lat="43.7323" lon="2.14055">
        <ele>252</ele>
        <time>2017-10-01T09:56:41Z</time>
      </trkpt>
      <trkpt lat="43.73243" lon="2.14061">
        <ele>251.52</ele>
        <time>2017-10-01T09:56:54Z</time>
      </trkpt>
      <trkpt lat="43.73247" lon="2.14063">
        <ele>251.04</ele>
        <time>2017-10-01T09:56:58Z</time>
      </trkpt>
      <trkpt lat="43.7326" lon="2.1407">
        <ele>251.04</ele>
        <time>2017-10-01T09:57:11Z</time>
      </trkpt>
      <trkpt lat="43.73263" lon="2.14072">
        <ele>250.56</ele>
        <time>2017-10-01T09:57:14Z</time>
      </trkpt>
      <trkpt lat="43.73265" lon="2.14073">
        <ele>251.04</ele>
        <time>2017-10-01T09:57:16Z</time>
      </trkpt>
      <trkpt lat="43.7328" lon="2.14082">
        <ele>250.56</ele>
        <time>2017-10-01T09:57:31Z</time>
      </trkpt>
      <trkpt lat="43.73289" lon="2.14088">
        <ele>250.08</ele>
        <time>2017-10-01T09:57:41Z</time>
      </trkpt>
      <trkpt lat="43.73295" lon="2.14091">
        <ele>250.08</ele>
        <time>2017-10-01T09:57:47Z</time>
      </trkpt>
      <trkpt lat="43.73308" lon="2.14102">
        <ele>250.08</ele>
        <time>2017-10-01T09:58:02Z</time>
      </trkpt>
      <trkpt lat="43.73322" lon="2.14113">
        <ele>250.08</ele>
        <time>2017-10-01T09:58:16Z</time>
      </trkpt>
      <trkpt lat="43.7333" lon="2.14119">
        <ele>250.08</ele>
        <time>2017-10-01T09:58:24Z</time>
      </trkpt>
      <trkpt lat="43.73332" lon="2.1412">
        <ele>250.56</ele>
        <time>2017-10-01T09:58:26Z</time>
      </trkpt>
      <trkpt lat="43.73335" lon="2.14123">
        <ele>250.56</ele>
        <time>2017-10-01T09:58:30Z</time>
      </trkpt>
      <trkpt lat="43.7334" lon="2.14126">
        <ele>250.56</ele>
        <time>2017-10-01T09:58:35Z</time>
      </trkpt>
      <trkpt lat="43.73347" lon="2.14131">
        <ele>250.08</ele>
        <time>2017-10-01T09:58:42Z</time>
      </trkpt>
      <trkpt lat="43.73357" lon="2.14138">
        <ele>249.6</ele>
        <time>2017-10-01T09:58:53Z</time>
      </trkpt>
      <trkpt lat="43.73369" lon="2.14147">
        <ele>249.12</ele>
        <time>2017-10-01T09:59:07Z</time>
      </trkpt>
      <trkpt lat="43.7338" lon="2.1414">
        <ele>248.16</ele>
        <time>2017-10-01T09:59:22Z</time>
      </trkpt>
      <trkpt lat="43.73378" lon="2.14139">
        <ele>248.64</ele>
        <time>2017-10-01T09:59:39Z</time>
      </trkpt>
      <trkpt lat="43.73378" lon="2.14143">
        <ele>248.64</ele>
        <time>2017-10-01T09:59:58Z</time>
      </trkpt>
      <trkpt lat="43.73379" lon="2.14137">
        <ele>248.64</ele>
        <time>2017-10-01T10:00:13Z</time>
      </trkpt>
      <trkpt lat="43.73376" lon="2.14138">
        <ele>248.64</ele>
        <time>2017-10-01T10:00:31Z</time>
      </trkpt>
      <trkpt lat="43.7338" lon="2.14138">
        <ele>248.64</ele>
        <time>2017-10-01T10:00:55Z</time>
      </trkpt>
      <trkpt lat="43.73382" lon="2.14137">
        <ele>248.64</ele>
        <time>2017-10-01T10:01:16Z</time>
      </trkpt>
      <trkpt lat="43.73382" lon="2.14135">
        <ele>248.64</ele>
        <time>2017-10-01T10:01:37Z</time>
      </trkpt>
      <trkpt lat="43.73386" lon="2.14133">
        <ele>248.16</ele>
        <time>2017-10-01T10:02:00Z</time>
      </trkpt>
      <trkpt lat="43.73389" lon="2.14127">
        <ele>248.16</ele>
        <time>2017-10-01T10:02:18Z</time>
      </trkpt>
      <trkpt lat="43.73391" lon="2.14126">
        <ele>247.68</ele>
        <time>2017-10-01T10:02:35Z</time>
      </trkpt>
      <trkpt lat="43.73398" lon="2.14119">
        <ele>247.2</ele>
        <time>2017-10-01T10:02:48Z</time>
      </trkpt>
      <trkpt lat="43.73409" lon="2.14111">
        <ele>246.23</ele>
        <time>2017-10-01T10:03:05Z</time>
      </trkpt>
      <trkpt lat="43.73416" lon="2.14106">
        <ele>245.75</ele>
        <time>2017-10-01T10:03:14Z</time>
      </trkpt>
      <trkpt lat="43.73431" lon="2.14096">
        <ele>244.31</ele>
        <time>2017-10-01T10:03:33Z</time>
      </trkpt>
      <trkpt lat="43.73436" lon="2.14095">
        <ele>243.83</ele>
        <time>2017-10-01T10:03:41Z</time>
      </trkpt>
      <trkpt lat="43.73441" lon="2.14092">
        <ele>243.83</ele>
        <time>2017-10-01T10:03:46Z</time>
      </trkpt>
      <trkpt lat="43.73447" lon="2.14081">
        <ele>242.87</ele>
        <time>2017-10-01T10:04:03Z</time>
      </trkpt>
      <trkpt lat="43.73446" lon="2.14071">
        <ele>245.75</ele>
        <time>2017-10-01T10:04:19Z</time>
      </trkpt>
      <trkpt lat="43.73442" lon="2.14058">
        <ele>246.23</ele>
        <time>2017-10-01T10:04:39Z</time>
      </trkpt>
      <trkpt lat="43.73441" lon="2.14055">
        <ele>246.23</ele>
        <time>2017-10-01T10:05:02Z</time>
      </trkpt>
      <trkpt lat="43.73444" lon="2.14058">
        <ele>246.72</ele>
        <time>2017-10-01T10:05:30Z</time>
      </trkpt>
      <trkpt lat="43.73447" lon="2.14076">
        <ele>246.23</ele>
        <time>2017-10-01T10:05:42Z</time>
      </trkpt>
      <trkpt lat="43.73451" lon="2.14083">
        <ele>243.35</ele>
        <time>2017-10-01T10:05:54Z</time>
      </trkpt>
      <trkpt lat="43.73457" lon="2.14079">
        <ele>242.39</ele>
        <time>2017-10-01T10:06:07Z</time>
      </trkpt>
      <trkpt lat="43.73457" lon="2.14073">
        <ele>242.39</ele>
        <time>2017-10-01T10:06:21Z</time>
      </trkpt>
      <trkpt lat="43.73463" lon="2.14066">
        <ele>241.91</ele>
        <time>2017-10-01T10:06:35Z</time>
      </trkpt>
      <trkpt lat="43.7347" lon="2.14053">
        <ele>241.91</ele>
        <time>2017-10-01T10:06:50Z</time>
      </trkpt>
      <trkpt lat="43.73471" lon="2.14048">
        <ele>241.43</ele>
        <time>2017-10-01T10:06:55Z</time>
      </trkpt>
      <trkpt lat="43.73477" lon="2.1403">
        <ele>240.95</ele>
        <time>2017-10-01T10:07:09Z</time>
      </trkpt>
      <trkpt lat="43.73483" lon="2.14012">
        <ele>240.47</ele>
        <time>2017-10-01T10:07:23Z</time>
      </trkpt>
      <trkpt lat="43.73488" lon="2.13995">
        <ele>239.99</ele>
        <time>2017-10-01T10:07:37Z</time>
      </trkpt>
      <trkpt lat="43.73489" lon="2.13993">
        <ele>239.99</ele>
        <time>2017-10-01T10:07:39Z</time>
      </trkpt>
      <trkpt lat="43.73497" lon="2.13977">
        <ele>239.51</ele>
        <time>2017-10-01T10:07:52Z</time>
      </trkpt>
      <trkpt lat="43.73507" lon="2.13958">
        <ele>238.54</ele>
        <time>2017-10-01T10:08:08Z</time>
      </trkpt>
      <trkpt lat="43.73509" lon="2.13956">
        <ele>238.54</ele>
        <time>2017-10-01T10:08:11Z</time>
      </trkpt>
      <trkpt lat="43.73512" lon="2.1395">
        <ele>238.06</ele>
        <time>2017-10-01T10:08:16Z</time>
      </trkpt>
      <trkpt lat="43.73519" lon="2.13939">
        <ele>237.58</ele>
        <time>2017-10-01T10:08:26Z</time>
      </trkpt>
      <trkpt lat="43.73522" lon="2.13933">
        <ele>237.58</ele>
        <time>2017-10-01T10:08:31Z</time>
      </trkpt>
      <trkpt lat="43.73529" lon="2.13921">
        <ele>237.1</ele>
        <time>2017-10-01T10:08:42Z</time>
      </trkpt>
      <trkpt lat="43.73538" lon="2.13907">
        <ele>237.1</ele>
        <time>2017-10-01T10:08:55Z</time>
      </trkpt>
      <trkpt lat="43.7355" lon="2.13896">
        <ele>236.62</ele>
        <time>2017-10-01T10:09:09Z</time>
      </trkpt>
      <trkpt lat="43.73557" lon="2.13889">
        <ele>236.62</ele>
        <time>2017-10-01T10:09:17Z</time>
      </trkpt>
      <trkpt lat="43.7356" lon="2.13887">
        <ele>236.62</ele>
        <time>2017-10-01T10:09:21Z</time>
      </trkpt>
      <trkpt lat="43.73563" lon="2.13885">
        <ele>236.62</ele>
        <time>2017-10-01T10:09:24Z</time>
      </trkpt>
      <trkpt lat="43.73569" lon="2.13881">
        <ele>236.62</ele>
        <time>2017-10-01T10:09:30Z</time>
      </trkpt>
      <trkpt lat="43.73584" lon="2.13875">
        <ele>236.14</ele>
        <time>2017-10-01T10:09:46Z</time>
      </trkpt>
      <trkpt lat="43.73587" lon="2.13872">
        <ele>236.62</ele>
        <time>2017-10-01T10:09:49Z</time>
      </trkpt>
      <trkpt lat="43.73592" lon="2.13869">
        <ele>236.62</ele>
        <time>2017-10-01T10:09:54Z</time>
      </trkpt>
      <trkpt lat="43.73594" lon="2.13868">
        <ele>236.62</ele>
        <time>2017-10-01T10:09:56Z</time>
      </trkpt>
      <trkpt lat="43.73602" lon="2.13864">
        <ele>236.14</ele>
        <time>2017-10-01T10:10:08Z</time>
      </trkpt>
      <trkpt lat="43.73608" lon="2.13858">
        <ele>236.14</ele>
        <time>2017-10-01T10:10:19Z</time>
      </trkpt>
      <trkpt lat="43.73619" lon="2.13854">
        <ele>236.14</ele>
        <time>2017-10-01T10:10:30Z</time>
      </trkpt>
      <trkpt lat="43.73633" lon="2.13846">
        <ele>236.14</ele>
        <time>2017-10-01T10:10:45Z</time>
      </trkpt>
      <trkpt lat="43.73634" lon="2.13846">
        <ele>236.14</ele>
        <time>2017-10-01T10:10:46Z</time>
      </trkpt>
      <trkpt lat="43.73644" lon="2.13841">
        <ele>236.14</ele>
        <time>2017-10-01T10:10:56Z</time>
      </trkpt>
      <trkpt lat="43.73653" lon="2.13836">
        <ele>236.14</ele>
        <time>2017-10-01T10:11:06Z</time>
      </trkpt>
      <trkpt lat="43.73669" lon="2.13826">
        <ele>235.66</ele>
        <time>2017-10-01T10:11:23Z</time>
      </trkpt>
      <trkpt lat="43.73673" lon="2.13825">
        <ele>235.66</ele>
        <time>2017-10-01T10:11:27Z</time>
      </trkpt>
      <trkpt lat="43.73675" lon="2.13823">
        <ele>235.66</ele>
        <time>2017-10-01T10:11:29Z</time>
      </trkpt>
      <trkpt lat="43.73678" lon="2.13821">
        <ele>235.66</ele>
        <time>2017-10-01T10:11:32Z</time>
      </trkpt>
      <trkpt lat="43.73679" lon="2.1382">
        <ele>235.66</ele>
        <time>2017-10-01T10:11:34Z</time>
      </trkpt>
      <trkpt lat="43.73682" lon="2.13818">
        <ele>235.66</ele>
        <time>2017-10-01T10:11:37Z</time>
      </trkpt>
      <trkpt lat="43.73687" lon="2.13812">
        <ele>235.18</ele>
        <time>2017-10-01T10:11:44Z</time>
      </trkpt>
      <trkpt lat="43.73691" lon="2.13806">
        <ele>234.7</ele>
        <time>2017-10-01T10:11:50Z</time>
      </trkpt>
      <trkpt lat="43.73697" lon="2.13797">
        <ele>233.74</ele>
        <time>2017-10-01T10:11:58Z</time>
      </trkpt>
      <trkpt lat="43.73706" lon="2.13788">
        <ele>232.78</ele>
        <time>2017-10-01T10:12:09Z</time>
      </trkpt>
      <trkpt lat="43.73709" lon="2.13787">
        <ele>232.3</ele>
        <time>2017-10-01T10:12:12Z</time>
      </trkpt>
      <trkpt lat="43.7371" lon="2.13786">
        <ele>231.81</ele>
        <time>2017-10-01T10:12:14Z</time>
      </trkpt>
      <trkpt lat="43.73713" lon="2.13786">
        <ele>231.33</ele>
        <time>2017-10-01T10:12:17Z</time>
      </trkpt>
      <trkpt lat="43.73721" lon="2.13786">
        <ele>230.85</ele>
        <time>2017-10-01T10:12:28Z</time>
      </trkpt>
      <trkpt lat="43.73722" lon="2.13785">
        <ele>230.85</ele>
        <time>2017-10-01T10:12:29Z</time>
      </trkpt>
      <trkpt lat="43.73732" lon="2.13787">
        <ele>229.89</ele>
        <time>2017-10-01T10:12:40Z</time>
      </trkpt>
      <trkpt lat="43.73739" lon="2.13789">
        <ele>228.93</ele>
        <time>2017-10-01T10:12:48Z</time>
      </trkpt>
      <trkpt lat="43.73745" lon="2.1379">
        <ele>228.45</ele>
        <time>2017-10-01T10:12:53Z</time>
      </trkpt>
      <trkpt lat="43.73753" lon="2.13793">
        <ele>227.49</ele>
        <time>2017-10-01T10:13:03Z</time>
      </trkpt>
      <trkpt lat="43.73755" lon="2.13793">
        <ele>227.49</ele>
        <time>2017-10-01T10:13:05Z</time>
      </trkpt>
      <trkpt lat="43.73766" lon="2.13797">
        <ele>226.53</ele>
        <time>2017-10-01T10:13:17Z</time>
      </trkpt>
      <trkpt lat="43.73769" lon="2.13798">
        <ele>226.53</ele>
        <time>2017-10-01T10:13:20Z</time>
      </trkpt>
      <trkpt lat="43.73771" lon="2.13798">
        <ele>226.05</ele>
        <time>2017-10-01T10:13:22Z</time>
      </trkpt>
      <trkpt lat="43.73773" lon="2.13799">
        <ele>226.05</ele>
        <time>2017-10-01T10:13:24Z</time>
      </trkpt>
      <trkpt lat="43.73782" lon="2.138">
        <ele>225.09</ele>
        <time>2017-10-01T10:13:33Z</time>
      </trkpt>
      <trkpt lat="43.73785" lon="2.13799">
        <ele>224.61</ele>
        <time>2017-10-01T10:13:36Z</time>
      </trkpt>
      <trkpt lat="43.73797" lon="2.13799">
        <ele>223.16</ele>
        <time>2017-10-01T10:13:49Z</time>
      </trkpt>
      <trkpt lat="43.73801" lon="2.13799">
        <ele>223.16</ele>
        <time>2017-10-01T10:13:53Z</time>
      </trkpt>
      <trkpt lat="43.73812" lon="2.13798">
        <ele>222.2</ele>
        <time>2017-10-01T10:14:05Z</time>
      </trkpt>
      <trkpt lat="43.73813" lon="2.13798">
        <ele>222.2</ele>
        <time>2017-10-01T10:14:06Z</time>
      </trkpt>
      <trkpt lat="43.73825" lon="2.13797">
        <ele>221.24</ele>
        <time>2017-10-01T10:14:19Z</time>
      </trkpt>
      <trkpt lat="43.73836" lon="2.13796">
        <ele>220.28</ele>
        <time>2017-10-01T10:14:32Z</time>
      </trkpt>
      <trkpt lat="43.73843" lon="2.13794">
        <ele>220.28</ele>
        <time>2017-10-01T10:14:40Z</time>
      </trkpt>
      <trkpt lat="43.73845" lon="2.13793">
        <ele>219.8</ele>
        <time>2017-10-01T10:14:43Z</time>
      </trkpt>
      <trkpt lat="43.73854" lon="2.13792">
        <ele>219.8</ele>
        <time>2017-10-01T10:14:52Z</time>
      </trkpt>
      <trkpt lat="43.73856" lon="2.13791">
        <ele>219.8</ele>
        <time>2017-10-01T10:14:54Z</time>
      </trkpt>
      <trkpt lat="43.73866" lon="2.13791">
        <ele>219.8</ele>
        <time>2017-10-01T10:15:04Z</time>
      </trkpt>
      <trkpt lat="43.73873" lon="2.13789">
        <ele>219.32</ele>
        <time>2017-10-01T10:15:12Z</time>
      </trkpt>
      <trkpt lat="43.73881" lon="2.13791">
        <ele>219.32</ele>
        <time>2017-10-01T10:15:23Z</time>
      </trkpt>
      <trkpt lat="43.73884" lon="2.13794">
        <ele>219.32</ele>
        <time>2017-10-01T10:15:27Z</time>
      </trkpt>
      <trkpt lat="43.73889" lon="2.13796">
        <ele>219.32</ele>
        <time>2017-10-01T10:15:32Z</time>
      </trkpt>
      <trkpt lat="43.73894" lon="2.13797">
        <ele>219.32</ele>
        <time>2017-10-01T10:15:38Z</time>
      </trkpt>
      <trkpt lat="43.73908" lon="2.1381">
        <ele>219.8</ele>
        <time>2017-10-01T10:15:53Z</time>
      </trkpt>
      <trkpt lat="43.7391" lon="2.13812">
        <ele>220.28</ele>
        <time>2017-10-01T10:15:56Z</time>
      </trkpt>
      <trkpt lat="43.73913" lon="2.13815">
        <ele>220.28</ele>
        <time>2017-10-01T10:16:00Z</time>
      </trkpt>
      <trkpt lat="43.73925" lon="2.13823">
        <ele>220.76</ele>
        <time>2017-10-01T10:16:13Z</time>
      </trkpt>
      <trkpt lat="43.73928" lon="2.13825">
        <ele>220.76</ele>
        <time>2017-10-01T10:16:16Z</time>
      </trkpt>
      <trkpt lat="43.73936" lon="2.13832">
        <ele>221.24</ele>
        <time>2017-10-01T10:16:26Z</time>
      </trkpt>
      <trkpt lat="43.7395" lon="2.13843">
        <ele>222.2</ele>
        <time>2017-10-01T10:16:42Z</time>
      </trkpt>
      <trkpt lat="43.73957" lon="2.13848">
        <ele>222.68</ele>
        <time>2017-10-01T10:16:49Z</time>
      </trkpt>
      <trkpt lat="43.7396" lon="2.13851">
        <ele>223.16</ele>
        <time>2017-10-01T10:16:54Z</time>
      </trkpt>
      <trkpt lat="43.73972" lon="2.1386">
        <ele>224.12</ele>
        <time>2017-10-01T10:17:08Z</time>
      </trkpt>
      <trkpt lat="43.73982" lon="2.1387">
        <ele>225.57</ele>
        <time>2017-10-01T10:17:21Z</time>
      </trkpt>
      <trkpt lat="43.73991" lon="2.13878">
        <ele>227.01</ele>
        <time>2017-10-01T10:17:34Z</time>
      </trkpt>
      <trkpt lat="43.74001" lon="2.13885">
        <ele>228.45</ele>
        <time>2017-10-01T10:17:47Z</time>
      </trkpt>
      <trkpt lat="43.74011" lon="2.13892">
        <ele>229.89</ele>
        <time>2017-10-01T10:18:00Z</time>
      </trkpt>
      <trkpt lat="43.74012" lon="2.13893">
        <ele>230.37</ele>
        <time>2017-10-01T10:18:01Z</time>
      </trkpt>
      <trkpt lat="43.74015" lon="2.13894">
        <ele>230.85</ele>
        <time>2017-10-01T10:18:06Z</time>
      </trkpt>
      <trkpt lat="43.74024" lon="2.13902">
        <ele>232.3</ele>
        <time>2017-10-01T10:18:20Z</time>
      </trkpt>
      <trkpt lat="43.74026" lon="2.13904">
        <ele>232.78</ele>
        <time>2017-10-01T10:18:22Z</time>
      </trkpt>
      <trkpt lat="43.74028" lon="2.13905">
        <ele>232.78</ele>
        <time>2017-10-01T10:18:24Z</time>
      </trkpt>
      <trkpt lat="43.74037" lon="2.13911">
        <ele>234.22</ele>
        <time>2017-10-01T10:18:36Z</time>
      </trkpt>
      <trkpt lat="43.7404" lon="2.13913">
        <ele>234.22</ele>
        <time>2017-10-01T10:18:40Z</time>
      </trkpt>
      <trkpt lat="43.74049" lon="2.13919">
        <ele>234.7</ele>
        <time>2017-10-01T10:18:51Z</time>
      </trkpt>
      <trkpt lat="43.74057" lon="2.13926">
        <ele>236.14</ele>
        <time>2017-10-01T10:19:03Z</time>
      </trkpt>
      <trkpt lat="43.74061" lon="2.1393">
        <ele>236.62</ele>
        <time>2017-10-01T10:19:08Z</time>
      </trkpt>
      <trkpt lat="43.7407" lon="2.13935">
        <ele>237.58</ele>
        <time>2017-10-01T10:19:20Z</time>
      </trkpt>
      <trkpt lat="43.7408" lon="2.13943">
        <ele>238.54</ele>
        <time>2017-10-01T10:19:33Z</time>
      </trkpt>
      <trkpt lat="43.74085" lon="2.13947">
        <ele>239.51</ele>
        <time>2017-10-01T10:19:39Z</time>
      </trkpt>
      <trkpt lat="43.74087" lon="2.13949">
        <ele>239.51</ele>
        <time>2017-10-01T10:19:42Z</time>
      </trkpt>
      <trkpt lat="43.74096" lon="2.13955">
        <ele>240.95</ele>
        <time>2017-10-01T10:19:55Z</time>
      </trkpt>
      <trkpt lat="43.74105" lon="2.13963">
        <ele>242.39</ele>
        <time>2017-10-01T10:20:08Z</time>
      </trkpt>
      <trkpt lat="43.74113" lon="2.1397">
        <ele>243.83</ele>
        <time>2017-10-01T10:20:20Z</time>
      </trkpt>
      <trkpt lat="43.74124" lon="2.13977">
        <ele>245.75</ele>
        <time>2017-10-01T10:20:36Z</time>
      </trkpt>
      <trkpt lat="43.74133" lon="2.13985">
        <ele>248.16</ele>
        <time>2017-10-01T10:20:50Z</time>
      </trkpt>
      <trkpt lat="43.74139" lon="2.13991">
        <ele>249.6</ele>
        <time>2017-10-01T10:21:01Z</time>
      </trkpt>
      <trkpt lat="43.74146" lon="2.13996">
        <ele>251.52</ele>
        <time>2017-10-01T10:21:15Z</time>
      </trkpt>
      <trkpt lat="43.74153" lon="2.14">
        <ele>252.96</ele>
        <time>2017-10-01T10:21:26Z</time>
      </trkpt>
      <trkpt lat="43.74166" lon="2.14009">
        <ele>256.81</ele>
        <time>2017-10-01T10:22:55Z</time>
      </trkpt>
      <trkpt lat="43.74184" lon="2.13999">
        <ele>259.69</ele>
        <time>2017-10-01T10:23:53Z</time>
      </trkpt>
      <trkpt lat="43.74198" lon="2.13993">
        <ele>261.14</ele>
        <time>2017-10-01T10:24:08Z</time>
      </trkpt>
      <trkpt lat="43.74202" lon="2.13989">
        <ele>261.62</ele>
        <time>2017-10-01T10:24:14Z</time>
      </trkpt>
      <trkpt lat="43.74204" lon="2.13988">
        <ele>261.62</ele>
        <time>2017-10-01T10:24:16Z</time>
      </trkpt>
      <trkpt lat="43.74211" lon="2.13977">
        <ele>262.58</ele>
        <time>2017-10-01T10:24:26Z</time>
      </trkpt>
      <trkpt lat="43.74217" lon="2.13962">
        <ele>263.06</ele>
        <time>2017-10-01T10:24:40Z</time>
      </trkpt>
      <trkpt lat="43.74225" lon="2.13951">
        <ele>264.02</ele>
        <time>2017-10-01T10:24:54Z</time>
      </trkpt>
      <trkpt lat="43.74229" lon="2.13938">
        <ele>264.5</ele>
        <time>2017-10-01T10:25:06Z</time>
      </trkpt>
      <trkpt lat="43.74236" lon="2.1393">
        <ele>264.5</ele>
        <time>2017-10-01T10:25:19Z</time>
      </trkpt>
      <trkpt lat="43.74244" lon="2.1393">
        <ele>263.54</ele>
        <time>2017-10-01T10:25:40Z</time>
      </trkpt>
      <trkpt lat="43.74252" lon="2.13929">
        <ele>262.58</ele>
        <time>2017-10-01T10:25:51Z</time>
      </trkpt>
      <trkpt lat="43.74263" lon="2.13926">
        <ele>261.14</ele>
        <time>2017-10-01T10:26:03Z</time>
      </trkpt>
      <trkpt lat="43.74266" lon="2.13925">
        <ele>261.14</ele>
        <time>2017-10-01T10:26:05Z</time>
      </trkpt>
      <trkpt lat="43.74268" lon="2.13925">
        <ele>261.14</ele>
        <time>2017-10-01T10:26:07Z</time>
      </trkpt>
      <trkpt lat="43.74273" lon="2.13928">
        <ele>260.65</ele>
        <time>2017-10-01T10:26:11Z</time>
      </trkpt>
      <trkpt lat="43.74284" lon="2.13939">
        <ele>258.73</ele>
        <time>2017-10-01T10:26:24Z</time>
      </trkpt>
      <trkpt lat="43.74286" lon="2.13943">
        <ele>258.25</ele>
        <time>2017-10-01T10:26:28Z</time>
      </trkpt>
      <trkpt lat="43.74293" lon="2.1395">
        <ele>257.29</ele>
        <time>2017-10-01T10:26:37Z</time>
      </trkpt>
      <trkpt lat="43.74295" lon="2.13953">
        <ele>256.81</ele>
        <time>2017-10-01T10:26:40Z</time>
      </trkpt>
      <trkpt lat="43.743" lon="2.13961">
        <ele>255.85</ele>
        <time>2017-10-01T10:26:48Z</time>
      </trkpt>
      <trkpt lat="43.74309" lon="2.13973">
        <ele>253.44</ele>
        <time>2017-10-01T10:27:02Z</time>
      </trkpt>
      <trkpt lat="43.74313" lon="2.13979">
        <ele>252.48</ele>
        <time>2017-10-01T10:27:09Z</time>
      </trkpt>
      <trkpt lat="43.74315" lon="2.13982">
        <ele>252</ele>
        <time>2017-10-01T10:27:13Z</time>
      </trkpt>
      <trkpt lat="43.74321" lon="2.13991">
        <ele>250.56</ele>
        <time>2017-10-01T10:27:23Z</time>
      </trkpt>
      <trkpt lat="43.74322" lon="2.13993">
        <ele>250.08</ele>
        <time>2017-10-01T10:27:25Z</time>
      </trkpt>
      <trkpt lat="43.74325" lon="2.13997">
        <ele>249.6</ele>
        <time>2017-10-01T10:27:29Z</time>
      </trkpt>
      <trkpt lat="43.74327" lon="2.13999">
        <ele>249.6</ele>
        <time>2017-10-01T10:27:32Z</time>
      </trkpt>
      <trkpt lat="43.74331" lon="2.14002">
        <ele>249.12</ele>
        <time>2017-10-01T10:27:36Z</time>
      </trkpt>
      <trkpt lat="43.74334" lon="2.14006">
        <ele>248.64</ele>
        <time>2017-10-01T10:27:41Z</time>
      </trkpt>
      <trkpt lat="43.74335" lon="2.14009">
        <ele>248.16</ele>
        <time>2017-10-01T10:27:44Z</time>
      </trkpt>
      <trkpt lat="43.74343" lon="2.14021">
        <ele>246.72</ele>
        <time>2017-10-01T10:27:57Z</time>
      </trkpt>
      <trkpt lat="43.74345" lon="2.14025">
        <ele>246.23</ele>
        <time>2017-10-01T10:28:01Z</time>
      </trkpt>
      <trkpt lat="43.74354" lon="2.14035">
        <ele>244.31</ele>
        <time>2017-10-01T10:28:15Z</time>
      </trkpt>
      <trkpt lat="43.74362" lon="2.14046">
        <ele>242.87</ele>
        <time>2017-10-01T10:28:29Z</time>
      </trkpt>
      <trkpt lat="43.74367" lon="2.14054">
        <ele>241.43</ele>
        <time>2017-10-01T10:28:41Z</time>
      </trkpt>
      <trkpt lat="43.74373" lon="2.14062">
        <ele>239.99</ele>
        <time>2017-10-01T10:28:58Z</time>
      </trkpt>
      <trkpt lat="43.74375" lon="2.14067">
        <ele>239.51</ele>
        <time>2017-10-01T10:29:04Z</time>
      </trkpt>
      <trkpt lat="43.74379" lon="2.14073">
        <ele>238.54</ele>
        <time>2017-10-01T10:29:11Z</time>
      </trkpt>
      <trkpt lat="43.74389" lon="2.14085">
        <ele>237.1</ele>
        <time>2017-10-01T10:29:25Z</time>
      </trkpt>
      <trkpt lat="43.74392" lon="2.1409">
        <ele>236.62</ele>
        <time>2017-10-01T10:29:30Z</time>
      </trkpt>
      <trkpt lat="43.74396" lon="2.14095">
        <ele>235.66</ele>
        <time>2017-10-01T10:29:44Z</time>
      </trkpt>
      <trkpt lat="43.74398" lon="2.14098">
        <ele>235.66</ele>
        <time>2017-10-01T10:29:48Z</time>
      </trkpt>
      <trkpt lat="43.74404" lon="2.14103">
        <ele>235.18</ele>
        <time>2017-10-01T10:30:00Z</time>
      </trkpt>
      <trkpt lat="43.74404" lon="2.14111">
        <ele>236.62</ele>
        <time>2017-10-01T11:22:48Z</time>
      </trkpt>
      <trkpt lat="43.74403" lon="2.14123">
        <ele>233.74</ele>
        <time>2017-10-01T11:23:39Z</time>
      </trkpt>
      <trkpt lat="43.74398" lon="2.14131">
        <ele>234.22</ele>
        <time>2017-10-01T11:23:55Z</time>
      </trkpt>
      <trkpt lat="43.74396" lon="2.14136">
        <ele>233.74</ele>
        <time>2017-10-01T11:24:02Z</time>
      </trkpt>
      <trkpt lat="43.74392" lon="2.1414">
        <ele>233.74</ele>
        <time>2017-10-01T11:24:19Z</time>
      </trkpt>
      <trkpt lat="43.74392" lon="2.14141">
        <ele>233.74</ele>
        <time>2017-10-01T11:24:34Z</time>
      </trkpt>
      <trkpt lat="43.7439" lon="2.14142">
        <ele>234.22</ele>
        <time>2017-10-01T11:24:43Z</time>
      </trkpt>
      <trkpt lat="43.74387" lon="2.14146">
        <ele>234.22</ele>
        <time>2017-10-01T11:24:47Z</time>
      </trkpt>
      <trkpt lat="43.74375" lon="2.14156">
        <ele>234.22</ele>
        <time>2017-10-01T11:25:01Z</time>
      </trkpt>
      <trkpt lat="43.74367" lon="2.14166">
        <ele>234.22</ele>
        <time>2017-10-01T11:25:12Z</time>
      </trkpt>
      <trkpt lat="43.74364" lon="2.14168">
        <ele>234.22</ele>
        <time>2017-10-01T11:25:15Z</time>
      </trkpt>
      <trkpt lat="43.7435" lon="2.14181">
        <ele>234.22</ele>
        <time>2017-10-01T11:25:32Z</time>
      </trkpt>
      <trkpt lat="43.74344" lon="2.14186">
        <ele>234.22</ele>
        <time>2017-10-01T11:25:38Z</time>
      </trkpt>
      <trkpt lat="43.7434" lon="2.14191">
        <ele>234.22</ele>
        <time>2017-10-01T11:25:43Z</time>
      </trkpt>
      <trkpt lat="43.74327" lon="2.14204">
        <ele>234.22</ele>
        <time>2017-10-01T11:25:58Z</time>
      </trkpt>
      <trkpt lat="43.74324" lon="2.14206">
        <ele>234.22</ele>
        <time>2017-10-01T11:26:01Z</time>
      </trkpt>
      <trkpt lat="43.74313" lon="2.1422">
        <ele>234.22</ele>
        <time>2017-10-01T11:26:15Z</time>
      </trkpt>
      <trkpt lat="43.743" lon="2.14233">
        <ele>234.22</ele>
        <time>2017-10-01T11:26:31Z</time>
      </trkpt>
      <trkpt lat="43.74293" lon="2.14239">
        <ele>234.22</ele>
        <time>2017-10-01T11:26:38Z</time>
      </trkpt>
      <trkpt lat="43.74281" lon="2.14251">
        <ele>234.22</ele>
        <time>2017-10-01T11:26:53Z</time>
      </trkpt>
      <trkpt lat="43.74278" lon="2.14255">
        <ele>234.22</ele>
        <time>2017-10-01T11:27:08Z</time>
      </trkpt>
      <trkpt lat="43.74274" lon="2.14259">
        <ele>234.22</ele>
        <time>2017-10-01T11:27:21Z</time>
      </trkpt>
      <trkpt lat="43.74273" lon="2.1426">
        <ele>234.22</ele>
        <time>2017-10-01T11:27:38Z</time>
      </trkpt>
      <trkpt lat="43.74269" lon="2.14262">
        <ele>234.22</ele>
        <time>2017-10-01T11:27:58Z</time>
      </trkpt>
      <trkpt lat="43.74258" lon="2.14275">
        <ele>234.22</ele>
        <time>2017-10-01T11:28:13Z</time>
      </trkpt>
      <trkpt lat="43.74245" lon="2.14288">
        <ele>234.22</ele>
        <time>2017-10-01T11:28:28Z</time>
      </trkpt>
      <trkpt lat="43.74244" lon="2.14289">
        <ele>234.7</ele>
        <time>2017-10-01T11:28:29Z</time>
      </trkpt>
      <trkpt lat="43.74232" lon="2.14303">
        <ele>234.7</ele>
        <time>2017-10-01T11:28:44Z</time>
      </trkpt>
      <trkpt lat="43.7423" lon="2.14306">
        <ele>234.7</ele>
        <time>2017-10-01T11:28:47Z</time>
      </trkpt>
      <trkpt lat="43.74216" lon="2.14322">
        <ele>234.7</ele>
        <time>2017-10-01T11:29:03Z</time>
      </trkpt>
      <trkpt lat="43.74214" lon="2.14324">
        <ele>234.7</ele>
        <time>2017-10-01T11:29:05Z</time>
      </trkpt>
      <trkpt lat="43.74206" lon="2.14333">
        <ele>234.7</ele>
        <time>2017-10-01T11:29:14Z</time>
      </trkpt>
      <trkpt lat="43.74196" lon="2.14345">
        <ele>235.18</ele>
        <time>2017-10-01T11:29:27Z</time>
      </trkpt>
      <trkpt lat="43.74194" lon="2.14347">
        <ele>234.7</ele>
        <time>2017-10-01T11:29:29Z</time>
      </trkpt>
      <trkpt lat="43.74182" lon="2.14362">
        <ele>235.18</ele>
        <time>2017-10-01T11:29:43Z</time>
      </trkpt>
      <trkpt lat="43.74179" lon="2.14366">
        <ele>235.18</ele>
        <time>2017-10-01T11:29:46Z</time>
      </trkpt>
      <trkpt lat="43.74167" lon="2.14379">
        <ele>235.18</ele>
        <time>2017-10-01T11:30:00Z</time>
      </trkpt>
      <trkpt lat="43.74163" lon="2.14382">
        <ele>235.18</ele>
        <time>2017-10-01T11:30:04Z</time>
      </trkpt>
      <trkpt lat="43.74162" lon="2.14384">
        <ele>235.18</ele>
        <time>2017-10-01T11:30:06Z</time>
      </trkpt>
      <trkpt lat="43.74149" lon="2.14396">
        <ele>235.66</ele>
        <time>2017-10-01T11:30:21Z</time>
      </trkpt>
      <trkpt lat="43.7414" lon="2.14408">
        <ele>235.66</ele>
        <time>2017-10-01T11:30:33Z</time>
      </trkpt>
      <trkpt lat="43.74136" lon="2.14413">
        <ele>235.66</ele>
        <time>2017-10-01T11:30:38Z</time>
      </trkpt>
      <trkpt lat="43.74124" lon="2.14425">
        <ele>235.66</ele>
        <time>2017-10-01T11:30:51Z</time>
      </trkpt>
      <trkpt lat="43.74114" lon="2.14437">
        <ele>236.14</ele>
        <time>2017-10-01T11:31:04Z</time>
      </trkpt>
      <trkpt lat="43.74113" lon="2.14439">
        <ele>236.14</ele>
        <time>2017-10-01T11:31:06Z</time>
      </trkpt>
      <trkpt lat="43.74108" lon="2.14445">
        <ele>236.14</ele>
        <time>2017-10-01T11:31:12Z</time>
      </trkpt>
      <trkpt lat="43.74097" lon="2.14456">
        <ele>236.14</ele>
        <time>2017-10-01T11:31:25Z</time>
      </trkpt>
      <trkpt lat="43.74096" lon="2.14459">
        <ele>236.14</ele>
        <time>2017-10-01T11:31:27Z</time>
      </trkpt>
      <trkpt lat="43.74091" lon="2.14463">
        <ele>236.14</ele>
        <time>2017-10-01T11:31:32Z</time>
      </trkpt>
      <trkpt lat="43.74085" lon="2.14472">
        <ele>236.62</ele>
        <time>2017-10-01T11:31:41Z</time>
      </trkpt>
      <trkpt lat="43.7408" lon="2.14478">
        <ele>236.62</ele>
        <time>2017-10-01T11:31:47Z</time>
      </trkpt>
      <trkpt lat="43.74076" lon="2.14483">
        <ele>236.62</ele>
        <time>2017-10-01T11:31:52Z</time>
      </trkpt>
      <trkpt lat="43.74073" lon="2.14486">
        <ele>236.62</ele>
        <time>2017-10-01T11:31:55Z</time>
      </trkpt>
      <trkpt lat="43.74066" lon="2.14493">
        <ele>236.62</ele>
        <time>2017-10-01T11:32:03Z</time>
      </trkpt>
      <trkpt lat="43.74062" lon="2.14497">
        <ele>237.1</ele>
        <time>2017-10-01T11:32:08Z</time>
      </trkpt>
      <trkpt lat="43.74059" lon="2.145">
        <ele>237.1</ele>
        <time>2017-10-01T11:32:11Z</time>
      </trkpt>
      <trkpt lat="43.74058" lon="2.14503">
        <ele>237.58</ele>
        <time>2017-10-01T11:32:14Z</time>
      </trkpt>
      <trkpt lat="43.74053" lon="2.14509">
        <ele>237.58</ele>
        <time>2017-10-01T11:32:20Z</time>
      </trkpt>
      <trkpt lat="43.74051" lon="2.14512">
        <ele>237.58</ele>
        <time>2017-10-01T11:32:23Z</time>
      </trkpt>
      <trkpt lat="43.74046" lon="2.14514">
        <ele>237.1</ele>
        <time>2017-10-01T11:32:27Z</time>
      </trkpt>
      <trkpt lat="43.74043" lon="2.14515">
        <ele>237.1</ele>
        <time>2017-10-01T11:32:30Z</time>
      </trkpt>
      <trkpt lat="43.74041" lon="2.14518">
        <ele>237.58</ele>
        <time>2017-10-01T11:32:33Z</time>
      </trkpt>
      <trkpt lat="43.74038" lon="2.14524">
        <ele>237.1</ele>
        <time>2017-10-01T11:32:38Z</time>
      </trkpt>
      <trkpt lat="43.74029" lon="2.14533">
        <ele>237.1</ele>
        <time>2017-10-01T11:32:48Z</time>
      </trkpt>
      <trkpt lat="43.74026" lon="2.14539">
        <ele>237.58</ele>
        <time>2017-10-01T11:32:53Z</time>
      </trkpt>
      <trkpt lat="43.74012" lon="2.14552">
        <ele>237.58</ele>
        <time>2017-10-01T11:33:08Z</time>
      </trkpt>
      <trkpt lat="43.74001" lon="2.14566">
        <ele>237.58</ele>
        <time>2017-10-01T11:33:22Z</time>
      </trkpt>
      <trkpt lat="43.73992" lon="2.14576">
        <ele>237.58</ele>
        <time>2017-10-01T11:33:33Z</time>
      </trkpt>
      <trkpt lat="43.73987" lon="2.14582">
        <ele>238.06</ele>
        <time>2017-10-01T11:33:40Z</time>
      </trkpt>
      <trkpt lat="43.73979" lon="2.14589">
        <ele>238.06</ele>
        <time>2017-10-01T11:33:49Z</time>
      </trkpt>
      <trkpt lat="43.73965" lon="2.14605">
        <ele>238.06</ele>
        <time>2017-10-01T11:34:05Z</time>
      </trkpt>
      <trkpt lat="43.73954" lon="2.14617">
        <ele>238.06</ele>
        <time>2017-10-01T11:34:17Z</time>
      </trkpt>
      <trkpt lat="43.73941" lon="2.14632">
        <ele>238.06</ele>
        <time>2017-10-01T11:34:33Z</time>
      </trkpt>
      <trkpt lat="43.73936" lon="2.14638">
        <ele>238.06</ele>
        <time>2017-10-01T11:34:39Z</time>
      </trkpt>
      <trkpt lat="43.7393" lon="2.14646">
        <ele>238.54</ele>
        <time>2017-10-01T11:34:47Z</time>
      </trkpt>
      <trkpt lat="43.73928" lon="2.14648">
        <ele>238.06</ele>
        <time>2017-10-01T11:34:49Z</time>
      </trkpt>
      <trkpt lat="43.73921" lon="2.14656">
        <ele>238.54</ele>
        <time>2017-10-01T11:34:57Z</time>
      </trkpt>
      <trkpt lat="43.7392" lon="2.14658">
        <ele>238.06</ele>
        <time>2017-10-01T11:34:59Z</time>
      </trkpt>
      <trkpt lat="43.73908" lon="2.14671">
        <ele>238.54</ele>
        <time>2017-10-01T11:35:13Z</time>
      </trkpt>
      <trkpt lat="43.73907" lon="2.14672">
        <ele>238.54</ele>
        <time>2017-10-01T11:35:14Z</time>
      </trkpt>
      <trkpt lat="43.73901" lon="2.1468">
        <ele>238.54</ele>
        <time>2017-10-01T11:35:21Z</time>
      </trkpt>
      <trkpt lat="43.73889" lon="2.14693">
        <ele>238.54</ele>
        <time>2017-10-01T11:35:36Z</time>
      </trkpt>
      <trkpt lat="43.73888" lon="2.14694">
        <ele>238.54</ele>
        <time>2017-10-01T11:35:37Z</time>
      </trkpt>
      <trkpt lat="43.73876" lon="2.14708">
        <ele>239.02</ele>
        <time>2017-10-01T11:35:50Z</time>
      </trkpt>
      <trkpt lat="43.73873" lon="2.14712">
        <ele>238.54</ele>
        <time>2017-10-01T11:35:54Z</time>
      </trkpt>
      <trkpt lat="43.73867" lon="2.14719">
        <ele>238.54</ele>
        <time>2017-10-01T11:36:01Z</time>
      </trkpt>
      <trkpt lat="43.73865" lon="2.14721">
        <ele>238.54</ele>
        <time>2017-10-01T11:36:03Z</time>
      </trkpt>
      <trkpt lat="43.73859" lon="2.14729">
        <ele>239.02</ele>
        <time>2017-10-01T11:36:11Z</time>
      </trkpt>
      <trkpt lat="43.73846" lon="2.14742">
        <ele>238.54</ele>
        <time>2017-10-01T11:36:26Z</time>
      </trkpt>
      <trkpt lat="43.73844" lon="2.14744">
        <ele>239.02</ele>
        <time>2017-10-01T11:36:28Z</time>
      </trkpt>
      <trkpt lat="43.73832" lon="2.14759">
        <ele>239.02</ele>
        <time>2017-10-01T11:36:43Z</time>
      </trkpt>
      <trkpt lat="43.7382" lon="2.14771">
        <ele>239.02</ele>
        <time>2017-10-01T11:36:57Z</time>
      </trkpt>
      <trkpt lat="43.73809" lon="2.14783">
        <ele>239.02</ele>
        <time>2017-10-01T11:37:10Z</time>
      </trkpt>
      <trkpt lat="43.73803" lon="2.14792">
        <ele>239.02</ele>
        <time>2017-10-01T11:37:20Z</time>
      </trkpt>
      <trkpt lat="43.73791" lon="2.14805">
        <ele>238.54</ele>
        <time>2017-10-01T11:37:33Z</time>
      </trkpt>
      <trkpt lat="43.7378" lon="2.14817">
        <ele>238.54</ele>
        <time>2017-10-01T11:37:46Z</time>
      </trkpt>
      <trkpt lat="43.73779" lon="2.14818">
        <ele>238.54</ele>
        <time>2017-10-01T11:37:47Z</time>
      </trkpt>
      <trkpt lat="43.73767" lon="2.14833">
        <ele>238.54</ele>
        <time>2017-10-01T11:38:02Z</time>
      </trkpt>
      <trkpt lat="43.73766" lon="2.14835">
        <ele>238.54</ele>
        <time>2017-10-01T11:38:04Z</time>
      </trkpt>
      <trkpt lat="43.7376" lon="2.1484">
        <ele>238.54</ele>
        <time>2017-10-01T11:38:10Z</time>
      </trkpt>
      <trkpt lat="43.73755" lon="2.14846">
        <ele>238.54</ele>
        <time>2017-10-01T11:38:16Z</time>
      </trkpt>
      <trkpt lat="43.73752" lon="2.14849">
        <ele>238.54</ele>
        <time>2017-10-01T11:38:20Z</time>
      </trkpt>
      <trkpt lat="43.73746" lon="2.14856">
        <ele>238.54</ele>
        <time>2017-10-01T11:38:26Z</time>
      </trkpt>
      <trkpt lat="43.73745" lon="2.14858">
        <ele>238.54</ele>
        <time>2017-10-01T11:38:28Z</time>
      </trkpt>
      <trkpt lat="43.73743" lon="2.14859">
        <ele>238.54</ele>
        <time>2017-10-01T11:38:30Z</time>
      </trkpt>
      <trkpt lat="43.7374" lon="2.14862">
        <ele>238.06</ele>
        <time>2017-10-01T11:38:33Z</time>
      </trkpt>
      <trkpt lat="43.73729" lon="2.14875">
        <ele>238.06</ele>
        <time>2017-10-01T11:38:46Z</time>
      </trkpt>
      <trkpt lat="43.7372" lon="2.14885">
        <ele>238.06</ele>
        <time>2017-10-01T11:38:57Z</time>
      </trkpt>
      <trkpt lat="43.73709" lon="2.14897">
        <ele>238.06</ele>
        <time>2017-10-01T11:39:10Z</time>
      </trkpt>
      <trkpt lat="43.73698" lon="2.1491">
        <ele>237.58</ele>
        <time>2017-10-01T11:39:23Z</time>
      </trkpt>
      <trkpt lat="43.73687" lon="2.14924">
        <ele>238.06</ele>
        <time>2017-10-01T11:39:36Z</time>
      </trkpt>
      <trkpt lat="43.73685" lon="2.14926">
        <ele>238.06</ele>
        <time>2017-10-01T11:39:38Z</time>
      </trkpt>
      <trkpt lat="43.73678" lon="2.14932">
        <ele>237.58</ele>
        <time>2017-10-01T11:39:46Z</time>
      </trkpt>
      <trkpt lat="43.73665" lon="2.14944">
        <ele>237.1</ele>
        <time>2017-10-01T11:40:01Z</time>
      </trkpt>
      <trkpt lat="43.7366" lon="2.14949">
        <ele>237.1</ele>
        <time>2017-10-01T11:40:06Z</time>
      </trkpt>
      <trkpt lat="43.73654" lon="2.14955">
        <ele>237.1</ele>
        <time>2017-10-01T11:40:13Z</time>
      </trkpt>
      <trkpt lat="43.73641" lon="2.14967">
        <ele>237.1</ele>
        <time>2017-10-01T11:40:27Z</time>
      </trkpt>
      <trkpt lat="43.73631" lon="2.14977">
        <ele>237.1</ele>
        <time>2017-10-01T11:40:38Z</time>
      </trkpt>
      <trkpt lat="43.73615" lon="2.1499">
        <ele>237.1</ele>
        <time>2017-10-01T11:40:54Z</time>
      </trkpt>
      <trkpt lat="43.73612" lon="2.14993">
        <ele>236.62</ele>
        <time>2017-10-01T11:40:58Z</time>
      </trkpt>
      <trkpt lat="43.73601" lon="2.15001">
        <ele>236.62</ele>
        <time>2017-10-01T11:41:09Z</time>
      </trkpt>
      <trkpt lat="43.73586" lon="2.15011">
        <ele>236.62</ele>
        <time>2017-10-01T11:41:24Z</time>
      </trkpt>
      <trkpt lat="43.73574" lon="2.15022">
        <ele>236.62</ele>
        <time>2017-10-01T11:41:37Z</time>
      </trkpt>
      <trkpt lat="43.73572" lon="2.15023">
        <ele>236.14</ele>
        <time>2017-10-01T11:41:39Z</time>
      </trkpt>
      <trkpt lat="43.73557" lon="2.15036">
        <ele>236.14</ele>
        <time>2017-10-01T11:41:54Z</time>
      </trkpt>
      <trkpt lat="43.73545" lon="2.15045">
        <ele>236.14</ele>
        <time>2017-10-01T11:42:07Z</time>
      </trkpt>
      <trkpt lat="43.73533" lon="2.15055">
        <ele>236.14</ele>
        <time>2017-10-01T11:42:19Z</time>
      </trkpt>
      <trkpt lat="43.73525" lon="2.15061">
        <ele>236.14</ele>
        <time>2017-10-01T11:42:28Z</time>
      </trkpt>
      <trkpt lat="43.73521" lon="2.15064">
        <ele>236.14</ele>
        <time>2017-10-01T11:42:32Z</time>
      </trkpt>
      <trkpt lat="43.7351" lon="2.15074">
        <ele>236.62</ele>
        <time>2017-10-01T11:42:44Z</time>
      </trkpt>
      <trkpt lat="43.73497" lon="2.15085">
        <ele>236.14</ele>
        <time>2017-10-01T11:42:59Z</time>
      </trkpt>
      <trkpt lat="43.73497" lon="2.15086">
        <ele>236.14</ele>
        <time>2017-10-01T11:43:00Z</time>
      </trkpt>
      <trkpt lat="43.73492" lon="2.15092">
        <ele>236.14</ele>
        <time>2017-10-01T11:43:06Z</time>
      </trkpt>
      <trkpt lat="43.7348" lon="2.15106">
        <ele>236.62</ele>
        <time>2017-10-01T11:43:20Z</time>
      </trkpt>
      <trkpt lat="43.73474" lon="2.15113">
        <ele>236.14</ele>
        <time>2017-10-01T11:43:27Z</time>
      </trkpt>
      <trkpt lat="43.7347" lon="2.1512">
        <ele>236.62</ele>
        <time>2017-10-01T11:43:33Z</time>
      </trkpt>
      <trkpt lat="43.73463" lon="2.15129">
        <ele>236.62</ele>
        <time>2017-10-01T11:43:42Z</time>
      </trkpt>
      <trkpt lat="43.73461" lon="2.15132">
        <ele>236.14</ele>
        <time>2017-10-01T11:43:44Z</time>
      </trkpt>
      <trkpt lat="43.7345" lon="2.15147">
        <ele>236.62</ele>
        <time>2017-10-01T11:43:59Z</time>
      </trkpt>
      <trkpt lat="43.73445" lon="2.15156">
        <ele>236.14</ele>
        <time>2017-10-01T11:44:06Z</time>
      </trkpt>
      <trkpt lat="43.73438" lon="2.15166">
        <ele>236.14</ele>
        <time>2017-10-01T11:44:15Z</time>
      </trkpt>
      <trkpt lat="43.73428" lon="2.15186">
        <ele>236.14</ele>
        <time>2017-10-01T11:44:31Z</time>
      </trkpt>
      <trkpt lat="43.73423" lon="2.15198">
        <ele>236.14</ele>
        <time>2017-10-01T11:44:40Z</time>
      </trkpt>
      <trkpt lat="43.73415" lon="2.15216">
        <ele>236.14</ele>
        <time>2017-10-01T11:44:54Z</time>
      </trkpt>
      <trkpt lat="43.73406" lon="2.15235">
        <ele>236.14</ele>
        <time>2017-10-01T11:45:09Z</time>
      </trkpt>
      <trkpt lat="43.73397" lon="2.15257">
        <ele>236.14</ele>
        <time>2017-10-01T11:45:24Z</time>
      </trkpt>
      <trkpt lat="43.73394" lon="2.15263">
        <ele>236.14</ele>
        <time>2017-10-01T11:45:29Z</time>
      </trkpt>
      <trkpt lat="43.73391" lon="2.15271">
        <ele>236.14</ele>
        <time>2017-10-01T11:45:35Z</time>
      </trkpt>
      <trkpt lat="43.73389" lon="2.15277">
        <ele>235.66</ele>
        <time>2017-10-01T11:45:39Z</time>
      </trkpt>
      <trkpt lat="43.73381" lon="2.15296">
        <ele>235.66</ele>
        <time>2017-10-01T11:45:54Z</time>
      </trkpt>
      <trkpt lat="43.73374" lon="2.15313">
        <ele>235.66</ele>
        <time>2017-10-01T11:46:07Z</time>
      </trkpt>
      <trkpt lat="43.73365" lon="2.15333">
        <ele>235.66</ele>
        <time>2017-10-01T11:46:21Z</time>
      </trkpt>
      <trkpt lat="43.73361" lon="2.15341">
        <ele>235.66</ele>
        <time>2017-10-01T11:46:27Z</time>
      </trkpt>
      <trkpt lat="43.73358" lon="2.15348">
        <ele>235.66</ele>
        <time>2017-10-01T11:46:33Z</time>
      </trkpt>
      <trkpt lat="43.73348" lon="2.15367">
        <ele>235.66</ele>
        <time>2017-10-01T11:46:48Z</time>
      </trkpt>
      <trkpt lat="43.73348" lon="2.15368">
        <ele>235.66</ele>
        <time>2017-10-01T11:46:49Z</time>
      </trkpt>
      <trkpt lat="43.73344" lon="2.15375">
        <ele>235.66</ele>
        <time>2017-10-01T11:46:55Z</time>
      </trkpt>
      <trkpt lat="43.73343" lon="2.15378">
        <ele>235.66</ele>
        <time>2017-10-01T11:46:57Z</time>
      </trkpt>
      <trkpt lat="43.73339" lon="2.15382">
        <ele>235.66</ele>
        <time>2017-10-01T11:47:01Z</time>
      </trkpt>
      <trkpt lat="43.73331" lon="2.15395">
        <ele>235.66</ele>
        <time>2017-10-01T11:47:13Z</time>
      </trkpt>
      <trkpt lat="43.7332" lon="2.15407">
        <ele>235.66</ele>
        <time>2017-10-01T11:47:25Z</time>
      </trkpt>
      <trkpt lat="43.73312" lon="2.15419">
        <ele>235.18</ele>
        <time>2017-10-01T11:47:36Z</time>
      </trkpt>
      <trkpt lat="43.73308" lon="2.15425">
        <ele>235.18</ele>
        <time>2017-10-01T11:47:41Z</time>
      </trkpt>
      <trkpt lat="43.73303" lon="2.15432">
        <ele>235.18</ele>
        <time>2017-10-01T11:47:47Z</time>
      </trkpt>
      <trkpt lat="43.73293" lon="2.15444">
        <ele>235.66</ele>
        <time>2017-10-01T11:48:00Z</time>
      </trkpt>
      <trkpt lat="43.73287" lon="2.15448">
        <ele>235.66</ele>
        <time>2017-10-01T11:48:05Z</time>
      </trkpt>
      <trkpt lat="43.73285" lon="2.1545">
        <ele>235.66</ele>
        <time>2017-10-01T11:48:08Z</time>
      </trkpt>
      <trkpt lat="43.73276" lon="2.15457">
        <ele>235.66</ele>
        <time>2017-10-01T11:48:17Z</time>
      </trkpt>
      <trkpt lat="43.73264" lon="2.15465">
        <ele>235.66</ele>
        <time>2017-10-01T11:48:29Z</time>
      </trkpt>
      <trkpt lat="43.73251" lon="2.15477">
        <ele>235.66</ele>
        <time>2017-10-01T11:48:42Z</time>
      </trkpt>
      <trkpt lat="43.73248" lon="2.15479">
        <ele>235.66</ele>
        <time>2017-10-01T11:48:45Z</time>
      </trkpt>
      <trkpt lat="43.73232" lon="2.1549">
        <ele>235.66</ele>
        <time>2017-10-01T11:49:01Z</time>
      </trkpt>
      <trkpt lat="43.73222" lon="2.15497">
        <ele>235.66</ele>
        <time>2017-10-01T11:49:11Z</time>
      </trkpt>
      <trkpt lat="43.73218" lon="2.15498">
        <ele>235.66</ele>
        <time>2017-10-01T11:49:15Z</time>
      </trkpt>
      <trkpt lat="43.73213" lon="2.155">
        <ele>235.18</ele>
        <time>2017-10-01T11:49:20Z</time>
      </trkpt>
      <trkpt lat="43.7321" lon="2.15505">
        <ele>235.66</ele>
        <time>2017-10-01T11:49:35Z</time>
      </trkpt>
      <trkpt lat="43.73205" lon="2.15506">
        <ele>235.66</ele>
        <time>2017-10-01T11:49:53Z</time>
      </trkpt>
      <trkpt lat="43.73197" lon="2.1551">
        <ele>235.66</ele>
        <time>2017-10-01T11:50:05Z</time>
      </trkpt>
      <trkpt lat="43.73197" lon="2.15509">
        <ele>235.66</ele>
        <time>2017-10-01T11:50:19Z</time>
      </trkpt>
      <trkpt lat="43.73193" lon="2.15511">
        <ele>235.66</ele>
        <time>2017-10-01T11:50:44Z</time>
      </trkpt>
      <trkpt lat="43.73193" lon="2.15511">
        <ele>235.66</ele>
        <time>2017-10-01T11:51:05Z</time>
      </trkpt>
      <trkpt lat="43.7319" lon="2.15514">
        <ele>235.66</ele>
        <time>2017-10-01T11:51:19Z</time>
      </trkpt>
      <trkpt lat="43.73187" lon="2.15518">
        <ele>235.66</ele>
        <time>2017-10-01T11:51:33Z</time>
      </trkpt>
      <trkpt lat="43.73185" lon="2.1552">
        <ele>235.66</ele>
        <time>2017-10-01T11:51:43Z</time>
      </trkpt>
      <trkpt lat="43.73174" lon="2.15527">
        <ele>235.66</ele>
        <time>2017-10-01T11:51:55Z</time>
      </trkpt>
      <trkpt lat="43.73166" lon="2.15532">
        <ele>235.66</ele>
        <time>2017-10-01T11:52:03Z</time>
      </trkpt>
      <trkpt lat="43.7316" lon="2.15535">
        <ele>235.66</ele>
        <time>2017-10-01T11:52:08Z</time>
      </trkpt>
      <trkpt lat="43.73158" lon="2.15537">
        <ele>235.66</ele>
        <time>2017-10-01T11:52:11Z</time>
      </trkpt>
      <trkpt lat="43.7315" lon="2.15542">
        <ele>235.66</ele>
        <time>2017-10-01T11:52:19Z</time>
      </trkpt>
      <trkpt lat="43.73147" lon="2.15544">
        <ele>235.66</ele>
        <time>2017-10-01T11:52:23Z</time>
      </trkpt>
      <trkpt lat="43.73135" lon="2.15552">
        <ele>235.66</ele>
        <time>2017-10-01T11:52:35Z</time>
      </trkpt>
      <trkpt lat="43.73127" lon="2.15555">
        <ele>235.66</ele>
        <time>2017-10-01T11:52:42Z</time>
      </trkpt>
      <trkpt lat="43.73124" lon="2.15557">
        <ele>235.66</ele>
        <time>2017-10-01T11:52:45Z</time>
      </trkpt>
      <trkpt lat="43.73118" lon="2.15562">
        <ele>235.66</ele>
        <time>2017-10-01T11:52:52Z</time>
      </trkpt>
      <trkpt lat="43.73109" lon="2.15568">
        <ele>235.66</ele>
        <time>2017-10-01T11:53:01Z</time>
      </trkpt>
      <trkpt lat="43.73096" lon="2.15575">
        <ele>235.66</ele>
        <time>2017-10-01T11:53:14Z</time>
      </trkpt>
      <trkpt lat="43.73085" lon="2.15583">
        <ele>235.66</ele>
        <time>2017-10-01T11:53:24Z</time>
      </trkpt>
      <trkpt lat="43.7308" lon="2.15587">
        <ele>235.66</ele>
        <time>2017-10-01T11:53:30Z</time>
      </trkpt>
      <trkpt lat="43.73068" lon="2.15595">
        <ele>235.66</ele>
        <time>2017-10-01T11:53:41Z</time>
      </trkpt>
      <trkpt lat="43.73056" lon="2.15604">
        <ele>235.66</ele>
        <time>2017-10-01T11:53:54Z</time>
      </trkpt>
      <trkpt lat="43.73044" lon="2.15615">
        <ele>235.66</ele>
        <time>2017-10-01T11:54:07Z</time>
      </trkpt>
      <trkpt lat="43.73034" lon="2.15623">
        <ele>235.66</ele>
        <time>2017-10-01T11:54:19Z</time>
      </trkpt>
      <trkpt lat="43.73026" lon="2.15631">
        <ele>235.18</ele>
        <time>2017-10-01T11:54:28Z</time>
      </trkpt>
      <trkpt lat="43.73019" lon="2.15639">
        <ele>235.18</ele>
        <time>2017-10-01T11:54:36Z</time>
      </trkpt>
      <trkpt lat="43.73013" lon="2.15647">
        <ele>235.18</ele>
        <time>2017-10-01T11:54:43Z</time>
      </trkpt>
      <trkpt lat="43.72998" lon="2.15664">
        <ele>235.66</ele>
        <time>2017-10-01T11:55:00Z</time>
      </trkpt>
      <trkpt lat="43.72997" lon="2.15666">
        <ele>235.66</ele>
        <time>2017-10-01T11:55:02Z</time>
      </trkpt>
      <trkpt lat="43.72993" lon="2.15672">
        <ele>235.66</ele>
        <time>2017-10-01T11:55:07Z</time>
      </trkpt>
      <trkpt lat="43.72989" lon="2.15677">
        <ele>235.66</ele>
        <time>2017-10-01T11:55:12Z</time>
      </trkpt>
      <trkpt lat="43.72985" lon="2.15682">
        <ele>235.18</ele>
        <time>2017-10-01T11:55:17Z</time>
      </trkpt>
      <trkpt lat="43.7298" lon="2.15691">
        <ele>235.66</ele>
        <time>2017-10-01T11:55:25Z</time>
      </trkpt>
      <trkpt lat="43.72975" lon="2.15697">
        <ele>235.66</ele>
        <time>2017-10-01T11:55:30Z</time>
      </trkpt>
      <trkpt lat="43.72972" lon="2.15702">
        <ele>235.66</ele>
        <time>2017-10-01T11:55:34Z</time>
      </trkpt>
      <trkpt lat="43.72971" lon="2.15705">
        <ele>235.66</ele>
        <time>2017-10-01T11:55:36Z</time>
      </trkpt>
      <trkpt lat="43.7296" lon="2.15722">
        <ele>236.14</ele>
        <time>2017-10-01T11:55:51Z</time>
      </trkpt>
      <trkpt lat="43.72949" lon="2.1574">
        <ele>236.14</ele>
        <time>2017-10-01T11:56:06Z</time>
      </trkpt>
      <trkpt lat="43.72946" lon="2.15743">
        <ele>235.66</ele>
        <time>2017-10-01T11:56:09Z</time>
      </trkpt>
      <trkpt lat="43.72938" lon="2.15757">
        <ele>236.14</ele>
        <time>2017-10-01T11:56:21Z</time>
      </trkpt>
      <trkpt lat="43.72936" lon="2.1576">
        <ele>236.14</ele>
        <time>2017-10-01T11:56:24Z</time>
      </trkpt>
      <trkpt lat="43.72929" lon="2.15771">
        <ele>236.14</ele>
        <time>2017-10-01T11:56:33Z</time>
      </trkpt>
      <trkpt lat="43.72919" lon="2.15788">
        <ele>236.14</ele>
        <time>2017-10-01T11:56:47Z</time>
      </trkpt>
      <trkpt lat="43.72918" lon="2.15791">
        <ele>236.14</ele>
        <time>2017-10-01T11:56:49Z</time>
      </trkpt>
      <trkpt lat="43.72917" lon="2.15793">
        <ele>236.62</ele>
        <time>2017-10-01T11:56:51Z</time>
      </trkpt>
      <trkpt lat="43.72904" lon="2.15811">
        <ele>236.14</ele>
        <time>2017-10-01T11:57:07Z</time>
      </trkpt>
      <trkpt lat="43.72901" lon="2.15818">
        <ele>236.62</ele>
        <time>2017-10-01T11:57:12Z</time>
      </trkpt>
      <trkpt lat="43.72892" lon="2.15833">
        <ele>236.14</ele>
        <time>2017-10-01T11:57:26Z</time>
      </trkpt>
      <trkpt lat="43.72887" lon="2.15843">
        <ele>236.62</ele>
        <time>2017-10-01T11:57:34Z</time>
      </trkpt>
      <trkpt lat="43.72884" lon="2.15848">
        <ele>236.62</ele>
        <time>2017-10-01T11:57:38Z</time>
      </trkpt>
      <trkpt lat="43.72876" lon="2.15859">
        <ele>236.14</ele>
        <time>2017-10-01T11:57:49Z</time>
      </trkpt>
      <trkpt lat="43.72865" lon="2.15877">
        <ele>236.62</ele>
        <time>2017-10-01T11:58:04Z</time>
      </trkpt>
      <trkpt lat="43.72863" lon="2.15881">
        <ele>236.62</ele>
        <time>2017-10-01T11:58:09Z</time>
      </trkpt>
      <trkpt lat="43.72854" lon="2.15897">
        <ele>236.62</ele>
        <time>2017-10-01T11:58:22Z</time>
      </trkpt>
      <trkpt lat="43.72851" lon="2.159">
        <ele>236.62</ele>
        <time>2017-10-01T11:58:25Z</time>
      </trkpt>
      <trkpt lat="43.7285" lon="2.15902">
        <ele>236.62</ele>
        <time>2017-10-01T11:58:27Z</time>
      </trkpt>
      <trkpt lat="43.72839" lon="2.15919">
        <ele>236.62</ele>
        <time>2017-10-01T11:58:43Z</time>
      </trkpt>
      <trkpt lat="43.72836" lon="2.15924">
        <ele>236.62</ele>
        <time>2017-10-01T11:59:04Z</time>
      </trkpt>
      <trkpt lat="43.72823" lon="2.15945">
        <ele>236.62</ele>
        <time>2017-10-01T11:59:21Z</time>
      </trkpt>
      <trkpt lat="43.7282" lon="2.1595">
        <ele>236.62</ele>
        <time>2017-10-01T11:59:26Z</time>
      </trkpt>
      <trkpt lat="43.72816" lon="2.15956">
        <ele>236.62</ele>
        <time>2017-10-01T11:59:31Z</time>
      </trkpt>
      <trkpt lat="43.72812" lon="2.15963">
        <ele>236.62</ele>
        <time>2017-10-01T11:59:36Z</time>
      </trkpt>
      <trkpt lat="43.728" lon="2.15983">
        <ele>237.1</ele>
        <time>2017-10-01T11:59:52Z</time>
      </trkpt>
      <trkpt lat="43.72798" lon="2.15986">
        <ele>236.62</ele>
        <time>2017-10-01T11:59:54Z</time>
      </trkpt>
      <trkpt lat="43.72796" lon="2.15989">
        <ele>236.62</ele>
        <time>2017-10-01T11:59:57Z</time>
      </trkpt>
      <trkpt lat="43.72792" lon="2.15997">
        <ele>236.62</ele>
        <time>2017-10-01T12:00:03Z</time>
      </trkpt>
      <trkpt lat="43.72786" lon="2.16008">
        <ele>236.62</ele>
        <time>2017-10-01T12:00:11Z</time>
      </trkpt>
      <trkpt lat="43.72776" lon="2.16023">
        <ele>237.1</ele>
        <time>2017-10-01T12:00:25Z</time>
      </trkpt>
      <trkpt lat="43.72767" lon="2.16038">
        <ele>237.1</ele>
        <time>2017-10-01T12:00:38Z</time>
      </trkpt>
      <trkpt lat="43.7276" lon="2.16051">
        <ele>237.1</ele>
        <time>2017-10-01T12:00:48Z</time>
      </trkpt>
      <trkpt lat="43.72758" lon="2.16054">
        <ele>237.1</ele>
        <time>2017-10-01T12:00:51Z</time>
      </trkpt>
      <trkpt lat="43.72756" lon="2.16058">
        <ele>237.1</ele>
        <time>2017-10-01T12:00:54Z</time>
      </trkpt>
      <trkpt lat="43.72745" lon="2.16076">
        <ele>237.1</ele>
        <time>2017-10-01T12:01:10Z</time>
      </trkpt>
      <trkpt lat="43.72735" lon="2.16092">
        <ele>237.1</ele>
        <time>2017-10-01T12:01:24Z</time>
      </trkpt>
      <trkpt lat="43.72727" lon="2.16105">
        <ele>237.1</ele>
        <time>2017-10-01T12:01:35Z</time>
      </trkpt>
      <trkpt lat="43.72717" lon="2.16122">
        <ele>237.1</ele>
        <time>2017-10-01T12:01:49Z</time>
      </trkpt>
      <trkpt lat="43.72714" lon="2.16125">
        <ele>237.1</ele>
        <time>2017-10-01T12:01:52Z</time>
      </trkpt>
      <trkpt lat="43.72703" lon="2.16141">
        <ele>237.1</ele>
        <time>2017-10-01T12:02:07Z</time>
      </trkpt>
      <trkpt lat="43.72694" lon="2.1616">
        <ele>237.1</ele>
        <time>2017-10-01T12:02:22Z</time>
      </trkpt>
      <trkpt lat="43.72691" lon="2.16164">
        <ele>237.1</ele>
        <time>2017-10-01T12:02:26Z</time>
      </trkpt>
      <trkpt lat="43.72681" lon="2.1618">
        <ele>237.1</ele>
        <time>2017-10-01T12:02:41Z</time>
      </trkpt>
      <trkpt lat="43.72672" lon="2.16195">
        <ele>237.1</ele>
        <time>2017-10-01T12:02:54Z</time>
      </trkpt>
      <trkpt lat="43.72661" lon="2.1621">
        <ele>237.1</ele>
        <time>2017-10-01T12:03:08Z</time>
      </trkpt>
      <trkpt lat="43.7266" lon="2.16212">
        <ele>237.1</ele>
        <time>2017-10-01T12:03:09Z</time>
      </trkpt>
      <trkpt lat="43.72652" lon="2.16223">
        <ele>237.1</ele>
        <time>2017-10-01T12:03:19Z</time>
      </trkpt>
      <trkpt lat="43.7264" lon="2.16236">
        <ele>237.1</ele>
        <time>2017-10-01T12:03:33Z</time>
      </trkpt>
      <trkpt lat="43.72633" lon="2.16244">
        <ele>237.1</ele>
        <time>2017-10-01T12:03:45Z</time>
      </trkpt>
      <trkpt lat="43.72624" lon="2.16253">
        <ele>237.1</ele>
        <time>2017-10-01T12:03:54Z</time>
      </trkpt>
      <trkpt lat="43.72616" lon="2.16262">
        <ele>237.1</ele>
        <time>2017-10-01T12:04:04Z</time>
      </trkpt>
      <trkpt lat="43.72612" lon="2.16265">
        <ele>237.1</ele>
        <time>2017-10-01T12:04:08Z</time>
      </trkpt>
      <trkpt lat="43.7261" lon="2.16267">
        <ele>237.1</ele>
        <time>2017-10-01T12:04:10Z</time>
      </trkpt>
      <trkpt lat="43.72597" lon="2.1628">
        <ele>237.1</ele>
        <time>2017-10-01T12:04:25Z</time>
      </trkpt>
      <trkpt lat="43.72592" lon="2.16286">
        <ele>236.62</ele>
        <time>2017-10-01T12:04:31Z</time>
      </trkpt>
      <trkpt lat="43.72576" lon="2.163">
        <ele>237.1</ele>
        <time>2017-10-01T12:04:48Z</time>
      </trkpt>
      <trkpt lat="43.72569" lon="2.16307">
        <ele>236.62</ele>
        <time>2017-10-01T12:04:56Z</time>
      </trkpt>
      <trkpt lat="43.72565" lon="2.1631">
        <ele>236.62</ele>
        <time>2017-10-01T12:05:00Z</time>
      </trkpt>
      <trkpt lat="43.72552" lon="2.16321">
        <ele>236.62</ele>
        <time>2017-10-01T12:05:14Z</time>
      </trkpt>
      <trkpt lat="43.7254" lon="2.1633">
        <ele>236.62</ele>
        <time>2017-10-01T12:05:27Z</time>
      </trkpt>
      <trkpt lat="43.72532" lon="2.16334">
        <ele>236.62</ele>
        <time>2017-10-01T12:05:34Z</time>
      </trkpt>
      <trkpt lat="43.72517" lon="2.16342">
        <ele>236.62</ele>
        <time>2017-10-01T12:05:48Z</time>
      </trkpt>
      <trkpt lat="43.72508" lon="2.16348">
        <ele>236.62</ele>
        <time>2017-10-01T12:05:58Z</time>
      </trkpt>
      <trkpt lat="43.72506" lon="2.16349">
        <ele>236.62</ele>
        <time>2017-10-01T12:06:00Z</time>
      </trkpt>
      <trkpt lat="43.72491" lon="2.16357">
        <ele>236.62</ele>
        <time>2017-10-01T12:06:15Z</time>
      </trkpt>
      <trkpt lat="43.72487" lon="2.1636">
        <ele>236.62</ele>
        <time>2017-10-01T12:06:19Z</time>
      </trkpt>
      <trkpt lat="43.72472" lon="2.16366">
        <ele>236.62</ele>
        <time>2017-10-01T12:06:33Z</time>
      </trkpt>
      <trkpt lat="43.72458" lon="2.16372">
        <ele>236.62</ele>
        <time>2017-10-01T12:06:47Z</time>
      </trkpt>
      <trkpt lat="43.72456" lon="2.16373">
        <ele>236.62</ele>
        <time>2017-10-01T12:06:49Z</time>
      </trkpt>
      <trkpt lat="43.72444" lon="2.16378">
        <ele>236.62</ele>
        <time>2017-10-01T12:07:00Z</time>
      </trkpt>
      <trkpt lat="43.72429" lon="2.16385">
        <ele>236.62</ele>
        <time>2017-10-01T12:07:14Z</time>
      </trkpt>
      <trkpt lat="43.72417" lon="2.16389">
        <ele>236.62</ele>
        <time>2017-10-01T12:07:26Z</time>
      </trkpt>
      <trkpt lat="43.72407" lon="2.16394">
        <ele>236.62</ele>
        <time>2017-10-01T12:07:34Z</time>
      </trkpt>
      <trkpt lat="43.72391" lon="2.164">
        <ele>236.62</ele>
        <time>2017-10-01T12:07:48Z</time>
      </trkpt>
      <trkpt lat="43.72383" lon="2.16404">
        <ele>236.62</ele>
        <time>2017-10-01T12:07:56Z</time>
      </trkpt>
      <trkpt lat="43.72372" lon="2.16408">
        <ele>236.62</ele>
        <time>2017-10-01T12:08:07Z</time>
      </trkpt>
      <trkpt lat="43.72356" lon="2.16416">
        <ele>236.62</ele>
        <time>2017-10-01T12:08:20Z</time>
      </trkpt>
      <trkpt lat="43.72352" lon="2.16418">
        <ele>236.62</ele>
        <time>2017-10-01T12:08:24Z</time>
      </trkpt>
      <trkpt lat="43.72336" lon="2.16424">
        <ele>236.62</ele>
        <time>2017-10-01T12:08:38Z</time>
      </trkpt>
      <trkpt lat="43.7233" lon="2.16427">
        <ele>236.62</ele>
        <time>2017-10-01T12:08:44Z</time>
      </trkpt>
      <trkpt lat="43.72319" lon="2.1643">
        <ele>236.62</ele>
        <time>2017-10-01T12:08:57Z</time>
      </trkpt>
      <trkpt lat="43.72303" lon="2.16439">
        <ele>236.62</ele>
        <time>2017-10-01T12:09:11Z</time>
      </trkpt>
      <trkpt lat="43.72297" lon="2.16441">
        <ele>236.62</ele>
        <time>2017-10-01T12:09:17Z</time>
      </trkpt>
      <trkpt lat="43.72281" lon="2.16448">
        <ele>236.62</ele>
        <time>2017-10-01T12:09:32Z</time>
      </trkpt>
      <trkpt lat="43.72265" lon="2.16454">
        <ele>236.62</ele>
        <time>2017-10-01T12:09:48Z</time>
      </trkpt>
      <trkpt lat="43.72254" lon="2.1646">
        <ele>236.62</ele>
        <time>2017-10-01T12:10:13Z</time>
      </trkpt>
      <trkpt lat="43.72237" lon="2.16466">
        <ele>236.62</ele>
        <time>2017-10-01T12:10:30Z</time>
      </trkpt>
      <trkpt lat="43.72223" lon="2.16473">
        <ele>236.62</ele>
        <time>2017-10-01T12:10:44Z</time>
      </trkpt>
      <trkpt lat="43.72204" lon="2.16481">
        <ele>236.14</ele>
        <time>2017-10-01T12:11:00Z</time>
      </trkpt>
      <trkpt lat="43.72191" lon="2.16487">
        <ele>236.14</ele>
        <time>2017-10-01T12:11:12Z</time>
      </trkpt>
      <trkpt lat="43.72176" lon="2.16493">
        <ele>236.62</ele>
        <time>2017-10-01T12:11:27Z</time>
      </trkpt>
      <trkpt lat="43.72163" lon="2.16501">
        <ele>236.62</ele>
        <time>2017-10-01T12:11:42Z</time>
      </trkpt>
      <trkpt lat="43.72145" lon="2.16507">
        <ele>237.1</ele>
        <time>2017-10-01T12:15:46Z</time>
      </trkpt>
      <trkpt lat="43.72132" lon="2.16511">
        <ele>237.58</ele>
        <time>2017-10-01T12:16:00Z</time>
      </trkpt>
      <trkpt lat="43.72121" lon="2.16518">
        <ele>237.58</ele>
        <time>2017-10-01T12:16:12Z</time>
      </trkpt>
      <trkpt lat="43.72112" lon="2.16522">
        <ele>237.58</ele>
        <time>2017-10-01T12:16:21Z</time>
      </trkpt>
      <trkpt lat="43.72107" lon="2.16525">
        <ele>237.58</ele>
        <time>2017-10-01T12:16:27Z</time>
      </trkpt>
      <trkpt lat="43.72104" lon="2.16526">
        <ele>237.58</ele>
        <time>2017-10-01T12:16:29Z</time>
      </trkpt>
      <trkpt lat="43.72092" lon="2.16531">
        <ele>237.58</ele>
        <time>2017-10-01T12:16:42Z</time>
      </trkpt>
      <trkpt lat="43.72081" lon="2.16537">
        <ele>237.58</ele>
        <time>2017-10-01T12:16:54Z</time>
      </trkpt>
      <trkpt lat="43.72069" lon="2.16542">
        <ele>237.58</ele>
        <time>2017-10-01T12:17:07Z</time>
      </trkpt>
      <trkpt lat="43.72055" lon="2.16549">
        <ele>237.58</ele>
        <time>2017-10-01T12:17:21Z</time>
      </trkpt>
      <trkpt lat="43.72054" lon="2.16552">
        <ele>238.06</ele>
        <time>2017-10-01T12:17:36Z</time>
      </trkpt>
      <trkpt lat="43.72044" lon="2.16555">
        <ele>238.06</ele>
        <time>2017-10-01T12:17:46Z</time>
      </trkpt>
      <trkpt lat="43.72033" lon="2.16561">
        <ele>238.06</ele>
        <time>2017-10-01T12:17:57Z</time>
      </trkpt>
      <trkpt lat="43.72017" lon="2.16568">
        <ele>238.06</ele>
        <time>2017-10-01T12:18:12Z</time>
      </trkpt>
      <trkpt lat="43.72008" lon="2.16573">
        <ele>238.06</ele>
        <time>2017-10-01T12:18:23Z</time>
      </trkpt>
      <trkpt lat="43.72003" lon="2.16576">
        <ele>238.06</ele>
        <time>2017-10-01T12:18:29Z</time>
      </trkpt>
      <trkpt lat="43.7199" lon="2.16584">
        <ele>238.06</ele>
        <time>2017-10-01T12:18:44Z</time>
      </trkpt>
      <trkpt lat="43.71979" lon="2.16589">
        <ele>238.54</ele>
        <time>2017-10-01T12:18:54Z</time>
      </trkpt>
      <trkpt lat="43.71964" lon="2.16598">
        <ele>238.54</ele>
        <time>2017-10-01T12:19:09Z</time>
      </trkpt>
      <trkpt lat="43.71949" lon="2.16606">
        <ele>238.54</ele>
        <time>2017-10-01T12:19:22Z</time>
      </trkpt>
      <trkpt lat="43.71947" lon="2.16607">
        <ele>238.54</ele>
        <time>2017-10-01T12:19:24Z</time>
      </trkpt>
      <trkpt lat="43.7194" lon="2.16611">
        <ele>238.54</ele>
        <time>2017-10-01T12:19:33Z</time>
      </trkpt>
      <trkpt lat="43.71933" lon="2.16614">
        <ele>239.02</ele>
        <time>2017-10-01T12:19:49Z</time>
      </trkpt>
      <trkpt lat="43.71927" lon="2.16617">
        <ele>238.54</ele>
        <time>2017-10-01T12:19:55Z</time>
      </trkpt>
      <trkpt lat="43.71925" lon="2.16617">
        <ele>239.02</ele>
        <time>2017-10-01T12:19:58Z</time>
      </trkpt>
      <trkpt lat="43.71923" lon="2.16619">
        <ele>238.54</ele>
        <time>2017-10-01T12:20:00Z</time>
      </trkpt>
      <trkpt lat="43.71919" lon="2.16622">
        <ele>238.54</ele>
        <time>2017-10-01T12:20:05Z</time>
      </trkpt>
      <trkpt lat="43.71917" lon="2.16623">
        <ele>238.54</ele>
        <time>2017-10-01T12:20:07Z</time>
      </trkpt>
      <trkpt lat="43.71913" lon="2.16623">
        <ele>238.54</ele>
        <time>2017-10-01T12:20:22Z</time>
      </trkpt>
      <trkpt lat="43.71907" lon="2.16628">
        <ele>238.54</ele>
        <time>2017-10-01T12:20:30Z</time>
      </trkpt>
      <trkpt lat="43.7189" lon="2.16637">
        <ele>238.54</ele>
        <time>2017-10-01T12:20:46Z</time>
      </trkpt>
      <trkpt lat="43.71887" lon="2.16639">
        <ele>238.54</ele>
        <time>2017-10-01T12:20:49Z</time>
      </trkpt>
      <trkpt lat="43.71873" lon="2.16646">
        <ele>238.06</ele>
        <time>2017-10-01T12:21:02Z</time>
      </trkpt>
      <trkpt lat="43.71868" lon="2.16649">
        <ele>238.54</ele>
        <time>2017-10-01T12:21:08Z</time>
      </trkpt>
      <trkpt lat="43.71855" lon="2.16655">
        <ele>238.06</ele>
        <time>2017-10-01T12:21:21Z</time>
      </trkpt>
      <trkpt lat="43.71841" lon="2.16664">
        <ele>238.54</ele>
        <time>2017-10-01T12:21:35Z</time>
      </trkpt>
      <trkpt lat="43.71825" lon="2.16671">
        <ele>238.54</ele>
        <time>2017-10-01T12:21:50Z</time>
      </trkpt>
      <trkpt lat="43.71824" lon="2.16672">
        <ele>238.54</ele>
        <time>2017-10-01T12:21:52Z</time>
      </trkpt>
      <trkpt lat="43.71807" lon="2.16681">
        <ele>238.54</ele>
        <time>2017-10-01T12:22:08Z</time>
      </trkpt>
      <trkpt lat="43.71798" lon="2.16687">
        <ele>238.54</ele>
        <time>2017-10-01T12:22:17Z</time>
      </trkpt>
      <trkpt lat="43.7178" lon="2.16696">
        <ele>238.54</ele>
        <time>2017-10-01T12:22:34Z</time>
      </trkpt>
      <trkpt lat="43.71777" lon="2.16698">
        <ele>238.54</ele>
        <time>2017-10-01T12:22:38Z</time>
      </trkpt>
      <trkpt lat="43.71771" lon="2.16701">
        <ele>238.54</ele>
        <time>2017-10-01T12:22:43Z</time>
      </trkpt>
      <trkpt lat="43.71768" lon="2.16702">
        <ele>238.54</ele>
        <time>2017-10-01T12:22:46Z</time>
      </trkpt>
      <trkpt lat="43.71759" lon="2.16707">
        <ele>238.06</ele>
        <time>2017-10-01T12:22:55Z</time>
      </trkpt>
      <trkpt lat="43.71744" lon="2.16716">
        <ele>238.06</ele>
        <time>2017-10-01T12:23:10Z</time>
      </trkpt>
      <trkpt lat="43.71729" lon="2.16724">
        <ele>238.06</ele>
        <time>2017-10-01T12:23:25Z</time>
      </trkpt>
      <trkpt lat="43.71712" lon="2.16733">
        <ele>238.06</ele>
        <time>2017-10-01T12:23:40Z</time>
      </trkpt>
      <trkpt lat="43.71695" lon="2.16743">
        <ele>238.06</ele>
        <time>2017-10-01T12:23:57Z</time>
      </trkpt>
      <trkpt lat="43.71693" lon="2.16744">
        <ele>238.06</ele>
        <time>2017-10-01T12:23:59Z</time>
      </trkpt>
      <trkpt lat="43.71687" lon="2.16747">
        <ele>238.06</ele>
        <time>2017-10-01T12:24:05Z</time>
      </trkpt>
      <trkpt lat="43.71685" lon="2.16749">
        <ele>238.06</ele>
        <time>2017-10-01T12:24:07Z</time>
      </trkpt>
      <trkpt lat="43.71671" lon="2.16755">
        <ele>238.54</ele>
        <time>2017-10-01T12:24:21Z</time>
      </trkpt>
      <trkpt lat="43.7167" lon="2.16755">
        <ele>238.54</ele>
        <time>2017-10-01T12:24:22Z</time>
      </trkpt>
      <trkpt lat="43.71655" lon="2.16764">
        <ele>238.06</ele>
        <time>2017-10-01T12:24:37Z</time>
      </trkpt>
      <trkpt lat="43.71641" lon="2.16771">
        <ele>238.06</ele>
        <time>2017-10-01T12:24:51Z</time>
      </trkpt>
      <trkpt lat="43.71628" lon="2.16778">
        <ele>238.54</ele>
        <time>2017-10-01T12:25:03Z</time>
      </trkpt>
      <trkpt lat="43.71623" lon="2.16781">
        <ele>238.54</ele>
        <time>2017-10-01T12:25:08Z</time>
      </trkpt>
      <trkpt lat="43.71619" lon="2.16782">
        <ele>238.54</ele>
        <time>2017-10-01T12:25:11Z</time>
      </trkpt>
      <trkpt lat="43.71603" lon="2.16791">
        <ele>238.54</ele>
        <time>2017-10-01T12:25:26Z</time>
      </trkpt>
      <trkpt lat="43.71598" lon="2.16795">
        <ele>238.54</ele>
        <time>2017-10-01T12:25:31Z</time>
      </trkpt>
      <trkpt lat="43.71592" lon="2.16796">
        <ele>238.54</ele>
        <time>2017-10-01T12:25:37Z</time>
      </trkpt>
      <trkpt lat="43.71588" lon="2.16801">
        <ele>238.54</ele>
        <time>2017-10-01T12:25:41Z</time>
      </trkpt>
      <trkpt lat="43.7157" lon="2.16811">
        <ele>238.54</ele>
        <time>2017-10-01T12:25:58Z</time>
      </trkpt>
      <trkpt lat="43.71569" lon="2.16812">
        <ele>238.54</ele>
        <time>2017-10-01T12:25:59Z</time>
      </trkpt>
      <trkpt lat="43.71557" lon="2.16819">
        <ele>238.54</ele>
        <time>2017-10-01T12:26:12Z</time>
      </trkpt>
      <trkpt lat="43.71553" lon="2.16821">
        <ele>238.54</ele>
        <time>2017-10-01T12:26:16Z</time>
      </trkpt>
      <trkpt lat="43.71545" lon="2.16823">
        <ele>238.06</ele>
        <time>2017-10-01T12:26:23Z</time>
      </trkpt>
      <trkpt lat="43.71538" lon="2.16828">
        <ele>238.06</ele>
        <time>2017-10-01T12:26:30Z</time>
      </trkpt>
      <trkpt lat="43.71533" lon="2.16832">
        <ele>238.06</ele>
        <time>2017-10-01T12:26:35Z</time>
      </trkpt>
      <trkpt lat="43.71523" lon="2.16837">
        <ele>237.58</ele>
        <time>2017-10-01T12:26:44Z</time>
      </trkpt>
      <trkpt lat="43.71504" lon="2.16848">
        <ele>237.1</ele>
        <time>2017-10-01T12:27:03Z</time>
      </trkpt>
      <trkpt lat="43.71492" lon="2.16854">
        <ele>237.1</ele>
        <time>2017-10-01T12:27:15Z</time>
      </trkpt>
      <trkpt lat="43.71477" lon="2.16861">
        <ele>236.62</ele>
        <time>2017-10-01T12:27:29Z</time>
      </trkpt>
      <trkpt lat="43.71464" lon="2.16868">
        <ele>236.62</ele>
        <time>2017-10-01T12:27:42Z</time>
      </trkpt>
      <trkpt lat="43.71451" lon="2.16876">
        <ele>236.14</ele>
        <time>2017-10-01T12:27:56Z</time>
      </trkpt>
      <trkpt lat="43.71449" lon="2.16876">
        <ele>236.14</ele>
        <time>2017-10-01T12:27:58Z</time>
      </trkpt>
      <trkpt lat="43.71432" lon="2.16886">
        <ele>236.14</ele>
        <time>2017-10-01T12:28:14Z</time>
      </trkpt>
      <trkpt lat="43.71424" lon="2.16889">
        <ele>236.14</ele>
        <time>2017-10-01T12:28:21Z</time>
      </trkpt>
      <trkpt lat="43.71423" lon="2.16891">
        <ele>236.14</ele>
        <time>2017-10-01T12:28:23Z</time>
      </trkpt>
      <trkpt lat="43.71408" lon="2.16899">
        <ele>235.66</ele>
        <time>2017-10-01T12:28:37Z</time>
      </trkpt>
      <trkpt lat="43.71392" lon="2.16908">
        <ele>235.66</ele>
        <time>2017-10-01T12:28:53Z</time>
      </trkpt>
      <trkpt lat="43.7138" lon="2.16915">
        <ele>235.66</ele>
        <time>2017-10-01T12:29:05Z</time>
      </trkpt>
      <trkpt lat="43.71365" lon="2.16923">
        <ele>235.66</ele>
        <time>2017-10-01T12:29:20Z</time>
      </trkpt>
      <trkpt lat="43.71357" lon="2.16928">
        <ele>235.66</ele>
        <time>2017-10-01T12:29:29Z</time>
      </trkpt>
      <trkpt lat="43.71348" lon="2.16933">
        <ele>235.66</ele>
        <time>2017-10-01T12:29:38Z</time>
      </trkpt>
      <trkpt lat="43.71333" lon="2.16939">
        <ele>235.18</ele>
        <time>2017-10-01T12:29:52Z</time>
      </trkpt>
      <trkpt lat="43.71318" lon="2.16949">
        <ele>235.66</ele>
        <time>2017-10-01T12:30:06Z</time>
      </trkpt>
      <trkpt lat="43.71301" lon="2.16958">
        <ele>235.18</ele>
        <time>2017-10-01T12:30:23Z</time>
      </trkpt>
      <trkpt lat="43.71297" lon="2.16959">
        <ele>235.18</ele>
        <time>2017-10-01T12:30:26Z</time>
      </trkpt>
      <trkpt lat="43.71295" lon="2.1696">
        <ele>235.18</ele>
        <time>2017-10-01T12:30:28Z</time>
      </trkpt>
      <trkpt lat="43.7128" lon="2.16967">
        <ele>235.18</ele>
        <time>2017-10-01T12:30:43Z</time>
      </trkpt>
      <trkpt lat="43.71276" lon="2.16969">
        <ele>235.18</ele>
        <time>2017-10-01T12:30:47Z</time>
      </trkpt>
      <trkpt lat="43.71263" lon="2.16974">
        <ele>235.18</ele>
        <time>2017-10-01T12:30:59Z</time>
      </trkpt>
      <trkpt lat="43.7125" lon="2.16976">
        <ele>235.18</ele>
        <time>2017-10-01T12:31:12Z</time>
      </trkpt>
      <trkpt lat="43.71248" lon="2.16977">
        <ele>235.18</ele>
        <time>2017-10-01T12:31:14Z</time>
      </trkpt>
      <trkpt lat="43.71232" lon="2.16981">
        <ele>235.18</ele>
        <time>2017-10-01T12:31:29Z</time>
      </trkpt>
      <trkpt lat="43.71218" lon="2.16982">
        <ele>235.66</ele>
        <time>2017-10-01T12:31:42Z</time>
      </trkpt>
      <trkpt lat="43.71213" lon="2.16982">
        <ele>235.66</ele>
        <time>2017-10-01T12:31:47Z</time>
      </trkpt>
      <trkpt lat="43.71211" lon="2.16983">
        <ele>235.66</ele>
        <time>2017-10-01T12:31:49Z</time>
      </trkpt>
      <trkpt lat="43.71199" lon="2.16984">
        <ele>235.18</ele>
        <time>2017-10-01T12:32:00Z</time>
      </trkpt>
      <trkpt lat="43.71181" lon="2.16984">
        <ele>235.66</ele>
        <time>2017-10-01T12:32:15Z</time>
      </trkpt>
      <trkpt lat="43.71175" lon="2.16983">
        <ele>235.18</ele>
        <time>2017-10-01T12:32:21Z</time>
      </trkpt>
      <trkpt lat="43.7117" lon="2.16982">
        <ele>235.66</ele>
        <time>2017-10-01T12:32:25Z</time>
      </trkpt>
      <trkpt lat="43.71153" lon="2.16979">
        <ele>235.66</ele>
        <time>2017-10-01T12:32:41Z</time>
      </trkpt>
      <trkpt lat="43.71134" lon="2.16973">
        <ele>235.18</ele>
        <time>2017-10-01T12:32:58Z</time>
      </trkpt>
      <trkpt lat="43.71128" lon="2.16971">
        <ele>235.18</ele>
        <time>2017-10-01T12:33:04Z</time>
      </trkpt>
      <trkpt lat="43.71124" lon="2.16969">
        <ele>235.18</ele>
        <time>2017-10-01T12:33:08Z</time>
      </trkpt>
      <trkpt lat="43.71119" lon="2.16967">
        <ele>235.18</ele>
        <time>2017-10-01T12:33:13Z</time>
      </trkpt>
      <trkpt lat="43.71105" lon="2.16959">
        <ele>235.18</ele>
        <time>2017-10-01T12:33:27Z</time>
      </trkpt>
      <trkpt lat="43.71102" lon="2.16958">
        <ele>235.18</ele>
        <time>2017-10-01T12:33:30Z</time>
      </trkpt>
      <trkpt lat="43.71094" lon="2.16953">
        <ele>235.18</ele>
        <time>2017-10-01T12:33:37Z</time>
      </trkpt>
      <trkpt lat="43.71088" lon="2.16949">
        <ele>235.18</ele>
        <time>2017-10-01T12:33:43Z</time>
      </trkpt>
      <trkpt lat="43.71075" lon="2.16939">
        <ele>234.7</ele>
        <time>2017-10-01T12:33:56Z</time>
      </trkpt>
      <trkpt lat="43.71071" lon="2.16937">
        <ele>234.7</ele>
        <time>2017-10-01T12:34:00Z</time>
      </trkpt>
      <trkpt lat="43.71066" lon="2.16934">
        <ele>234.7</ele>
        <time>2017-10-01T12:34:05Z</time>
      </trkpt>
      <trkpt lat="43.71062" lon="2.1693">
        <ele>235.18</ele>
        <time>2017-10-01T12:34:09Z</time>
      </trkpt>
      <trkpt lat="43.7106" lon="2.16928">
        <ele>234.7</ele>
        <time>2017-10-01T12:34:11Z</time>
      </trkpt>
      <trkpt lat="43.71048" lon="2.16918">
        <ele>234.7</ele>
        <time>2017-10-01T12:34:25Z</time>
      </trkpt>
      <trkpt lat="43.71044" lon="2.16914">
        <ele>234.22</ele>
        <time>2017-10-01T12:34:30Z</time>
      </trkpt>
      <trkpt lat="43.7103" lon="2.16899">
        <ele>234.22</ele>
        <time>2017-10-01T12:34:46Z</time>
      </trkpt>
      <trkpt lat="43.7103" lon="2.16898">
        <ele>234.7</ele>
        <time>2017-10-01T12:36:44Z</time>
      </trkpt>
      <trkpt lat="43.71026" lon="2.16893">
        <ele>234.7</ele>
        <time>2017-10-01T12:37:13Z</time>
      </trkpt>
      <trkpt lat="43.71025" lon="2.16892">
        <ele>234.7</ele>
        <time>2017-10-01T12:37:14Z</time>
      </trkpt>
      <trkpt lat="43.71016" lon="2.16886">
        <ele>234.7</ele>
        <time>2017-10-01T12:37:27Z</time>
      </trkpt>
      <trkpt lat="43.71007" lon="2.1687">
        <ele>234.7</ele>
        <time>2017-10-01T12:37:42Z</time>
      </trkpt>
      <trkpt lat="43.70999" lon="2.16859">
        <ele>234.22</ele>
        <time>2017-10-01T12:37:52Z</time>
      </trkpt>
      <trkpt lat="43.70995" lon="2.16853">
        <ele>234.22</ele>
        <time>2017-10-01T12:37:57Z</time>
      </trkpt>
      <trkpt lat="43.70986" lon="2.16841">
        <ele>234.22</ele>
        <time>2017-10-01T12:38:11Z</time>
      </trkpt>
      <trkpt lat="43.70981" lon="2.16833">
        <ele>234.22</ele>
        <time>2017-10-01T12:38:22Z</time>
      </trkpt>
      <trkpt lat="43.70976" lon="2.16825">
        <ele>234.22</ele>
        <time>2017-10-01T12:38:29Z</time>
      </trkpt>
      <trkpt lat="43.70972" lon="2.1682">
        <ele>233.74</ele>
        <time>2017-10-01T12:38:34Z</time>
      </trkpt>
      <trkpt lat="43.70963" lon="2.16807">
        <ele>233.74</ele>
        <time>2017-10-01T12:38:47Z</time>
      </trkpt>
      <trkpt lat="43.70956" lon="2.16799">
        <ele>233.74</ele>
        <time>2017-10-01T12:38:56Z</time>
      </trkpt>
      <trkpt lat="43.70947" lon="2.16787">
        <ele>233.26</ele>
        <time>2017-10-01T12:39:09Z</time>
      </trkpt>
      <trkpt lat="43.70941" lon="2.16778">
        <ele>233.26</ele>
        <time>2017-10-01T12:39:17Z</time>
      </trkpt>
      <trkpt lat="43.70933" lon="2.16765">
        <ele>233.26</ele>
        <time>2017-10-01T12:39:30Z</time>
      </trkpt>
      <trkpt lat="43.70926" lon="2.16757">
        <ele>233.26</ele>
        <time>2017-10-01T12:39:39Z</time>
      </trkpt>
      <trkpt lat="43.70914" lon="2.16739">
        <ele>233.26</ele>
        <time>2017-10-01T12:39:56Z</time>
      </trkpt>
      <trkpt lat="43.70909" lon="2.16733">
        <ele>233.26</ele>
        <time>2017-10-01T12:40:03Z</time>
      </trkpt>
      <trkpt lat="43.70898" lon="2.16715">
        <ele>233.26</ele>
        <time>2017-10-01T12:40:19Z</time>
      </trkpt>
      <trkpt lat="43.70889" lon="2.16704">
        <ele>233.26</ele>
        <time>2017-10-01T12:40:30Z</time>
      </trkpt>
      <trkpt lat="43.70879" lon="2.16692">
        <ele>233.26</ele>
        <time>2017-10-01T12:40:42Z</time>
      </trkpt>
      <trkpt lat="43.7087" lon="2.16679">
        <ele>233.26</ele>
        <time>2017-10-01T12:40:57Z</time>
      </trkpt>
      <trkpt lat="43.70868" lon="2.16678">
        <ele>233.26</ele>
        <time>2017-10-01T12:40:59Z</time>
      </trkpt>
      <trkpt lat="43.70862" lon="2.16668">
        <ele>233.26</ele>
        <time>2017-10-01T12:41:07Z</time>
      </trkpt>
      <trkpt lat="43.70851" lon="2.16652">
        <ele>233.26</ele>
        <time>2017-10-01T12:41:21Z</time>
      </trkpt>
      <trkpt lat="43.70851" lon="2.16652">
        <ele>233.26</ele>
        <time>2017-10-01T12:41:22Z</time>
      </trkpt>
      <trkpt lat="43.70845" lon="2.16644">
        <ele>233.26</ele>
        <time>2017-10-01T12:41:30Z</time>
      </trkpt>
      <trkpt lat="43.70836" lon="2.1663">
        <ele>233.26</ele>
        <time>2017-10-01T12:41:43Z</time>
      </trkpt>
      <trkpt lat="43.70826" lon="2.16616">
        <ele>233.74</ele>
        <time>2017-10-01T12:41:58Z</time>
      </trkpt>
      <trkpt lat="43.70817" lon="2.16605">
        <ele>233.74</ele>
        <time>2017-10-01T12:42:09Z</time>
      </trkpt>
      <trkpt lat="43.70811" lon="2.16597">
        <ele>233.74</ele>
        <time>2017-10-01T12:42:17Z</time>
      </trkpt>
      <trkpt lat="43.708" lon="2.16581">
        <ele>233.74</ele>
        <time>2017-10-01T12:42:32Z</time>
      </trkpt>
      <trkpt lat="43.70798" lon="2.16579">
        <ele>233.74</ele>
        <time>2017-10-01T12:42:34Z</time>
      </trkpt>
      <trkpt lat="43.70787" lon="2.16564">
        <ele>233.74</ele>
        <time>2017-10-01T12:42:48Z</time>
      </trkpt>
      <trkpt lat="43.70776" lon="2.16548">
        <ele>234.22</ele>
        <time>2017-10-01T12:43:03Z</time>
      </trkpt>
      <trkpt lat="43.70767" lon="2.16535">
        <ele>234.22</ele>
        <time>2017-10-01T12:43:17Z</time>
      </trkpt>
      <trkpt lat="43.70766" lon="2.16533">
        <ele>234.7</ele>
        <time>2017-10-01T12:43:19Z</time>
      </trkpt>
      <trkpt lat="43.70758" lon="2.1652">
        <ele>234.7</ele>
        <time>2017-10-01T12:43:31Z</time>
      </trkpt>
      <trkpt lat="43.70749" lon="2.16507">
        <ele>234.7</ele>
        <time>2017-10-01T12:43:41Z</time>
      </trkpt>
      <trkpt lat="43.70746" lon="2.16501">
        <ele>234.7</ele>
        <time>2017-10-01T12:43:45Z</time>
      </trkpt>
      <trkpt lat="43.70737" lon="2.16484">
        <ele>234.7</ele>
        <time>2017-10-01T12:43:59Z</time>
      </trkpt>
      <trkpt lat="43.70735" lon="2.16478">
        <ele>234.7</ele>
        <time>2017-10-01T12:44:04Z</time>
      </trkpt>
      <trkpt lat="43.70728" lon="2.16466">
        <ele>235.18</ele>
        <time>2017-10-01T12:44:14Z</time>
      </trkpt>
      <trkpt lat="43.7072" lon="2.16446">
        <ele>235.18</ele>
        <time>2017-10-01T12:44:30Z</time>
      </trkpt>
      <trkpt lat="43.70714" lon="2.16427">
        <ele>235.18</ele>
        <time>2017-10-01T12:44:43Z</time>
      </trkpt>
      <trkpt lat="43.70713" lon="2.16424">
        <ele>235.66</ele>
        <time>2017-10-01T12:44:45Z</time>
      </trkpt>
      <trkpt lat="43.70706" lon="2.16402">
        <ele>235.66</ele>
        <time>2017-10-01T12:45:02Z</time>
      </trkpt>
      <trkpt lat="43.70701" lon="2.16379">
        <ele>235.66</ele>
        <time>2017-10-01T12:45:18Z</time>
      </trkpt>
      <trkpt lat="43.70696" lon="2.16357">
        <ele>235.66</ele>
        <time>2017-10-01T12:45:33Z</time>
      </trkpt>
      <trkpt lat="43.70693" lon="2.16333">
        <ele>235.66</ele>
        <time>2017-10-01T12:45:49Z</time>
      </trkpt>
      <trkpt lat="43.7069" lon="2.16311">
        <ele>234.7</ele>
        <time>2017-10-01T12:47:40Z</time>
      </trkpt>
      <trkpt lat="43.7069" lon="2.16308">
        <ele>235.66</ele>
        <time>2017-10-01T12:47:52Z</time>
      </trkpt>
      <trkpt lat="43.70689" lon="2.16305">
        <ele>235.18</ele>
        <time>2017-10-01T12:47:54Z</time>
      </trkpt>
      <trkpt lat="43.70688" lon="2.16298">
        <ele>234.7</ele>
        <time>2017-10-01T12:48:00Z</time>
      </trkpt>
      <trkpt lat="43.70687" lon="2.16281">
        <ele>234.7</ele>
        <time>2017-10-01T12:48:10Z</time>
      </trkpt>
      <trkpt lat="43.70688" lon="2.1626">
        <ele>234.7</ele>
        <time>2017-10-01T12:48:24Z</time>
      </trkpt>
      <trkpt lat="43.70689" lon="2.16235">
        <ele>234.7</ele>
        <time>2017-10-01T12:48:39Z</time>
      </trkpt>
      <trkpt lat="43.70691" lon="2.16213">
        <ele>234.7</ele>
        <time>2017-10-01T12:48:52Z</time>
      </trkpt>
      <trkpt lat="43.70694" lon="2.16194">
        <ele>234.7</ele>
        <time>2017-10-01T12:49:05Z</time>
      </trkpt>
      <trkpt lat="43.70697" lon="2.16173">
        <ele>234.7</ele>
        <time>2017-10-01T12:49:18Z</time>
      </trkpt>
      <trkpt lat="43.70697" lon="2.16172">
        <ele>234.7</ele>
        <time>2017-10-01T12:49:19Z</time>
      </trkpt>
      <trkpt lat="43.70701" lon="2.16156">
        <ele>234.7</ele>
        <time>2017-10-01T12:49:29Z</time>
      </trkpt>
      <trkpt lat="43.70707" lon="2.16134">
        <ele>234.7</ele>
        <time>2017-10-01T12:49:44Z</time>
      </trkpt>
      <trkpt lat="43.7071" lon="2.16124">
        <ele>234.7</ele>
        <time>2017-10-01T12:49:51Z</time>
      </trkpt>
      <trkpt lat="43.70714" lon="2.16111">
        <ele>234.7</ele>
        <time>2017-10-01T12:50:00Z</time>
      </trkpt>
      <trkpt lat="43.70715" lon="2.16108">
        <ele>234.7</ele>
        <time>2017-10-01T12:50:02Z</time>
      </trkpt>
      <trkpt lat="43.70722" lon="2.16087">
        <ele>234.7</ele>
        <time>2017-10-01T12:50:16Z</time>
      </trkpt>
      <trkpt lat="43.70729" lon="2.16071">
        <ele>234.22</ele>
        <time>2017-10-01T12:50:29Z</time>
      </trkpt>
      <trkpt lat="43.70734" lon="2.16057">
        <ele>234.7</ele>
        <time>2017-10-01T12:50:41Z</time>
      </trkpt>
      <trkpt lat="43.70736" lon="2.16053">
        <ele>234.22</ele>
        <time>2017-10-01T12:50:44Z</time>
      </trkpt>
      <trkpt lat="43.70739" lon="2.16048">
        <ele>234.22</ele>
        <time>2017-10-01T12:50:48Z</time>
      </trkpt>
      <trkpt lat="43.70744" lon="2.16036">
        <ele>234.22</ele>
        <time>2017-10-01T12:50:57Z</time>
      </trkpt>
      <trkpt lat="43.70749" lon="2.1602">
        <ele>234.22</ele>
        <time>2017-10-01T12:51:09Z</time>
      </trkpt>
      <trkpt lat="43.70757" lon="2.16002">
        <ele>234.22</ele>
        <time>2017-10-01T12:51:23Z</time>
      </trkpt>
      <trkpt lat="43.70761" lon="2.15988">
        <ele>234.22</ele>
        <time>2017-10-01T12:51:33Z</time>
      </trkpt>
      <trkpt lat="43.70768" lon="2.15972">
        <ele>234.22</ele>
        <time>2017-10-01T12:51:44Z</time>
      </trkpt>
      <trkpt lat="43.70769" lon="2.15967">
        <ele>234.22</ele>
        <time>2017-10-01T12:51:47Z</time>
      </trkpt>
      <trkpt lat="43.70777" lon="2.15944">
        <ele>233.74</ele>
        <time>2017-10-01T12:52:03Z</time>
      </trkpt>
      <trkpt lat="43.70783" lon="2.15922">
        <ele>233.74</ele>
        <time>2017-10-01T12:52:18Z</time>
      </trkpt>
      <trkpt lat="43.70787" lon="2.1591">
        <ele>233.74</ele>
        <time>2017-10-01T12:52:26Z</time>
      </trkpt>
      <trkpt lat="43.70788" lon="2.15906">
        <ele>233.74</ele>
        <time>2017-10-01T12:52:30Z</time>
      </trkpt>
      <trkpt lat="43.70793" lon="2.15882">
        <ele>233.74</ele>
        <time>2017-10-01T12:52:45Z</time>
      </trkpt>
      <trkpt lat="43.70794" lon="2.15876">
        <ele>233.74</ele>
        <time>2017-10-01T12:52:49Z</time>
      </trkpt>
      <trkpt lat="43.70795" lon="2.1587">
        <ele>233.74</ele>
        <time>2017-10-01T12:52:53Z</time>
      </trkpt>
      <trkpt lat="43.70798" lon="2.15842">
        <ele>233.74</ele>
        <time>2017-10-01T12:53:10Z</time>
      </trkpt>
      <trkpt lat="43.708" lon="2.15832">
        <ele>233.74</ele>
        <time>2017-10-01T12:53:17Z</time>
      </trkpt>
      <trkpt lat="43.708" lon="2.15818">
        <ele>233.74</ele>
        <time>2017-10-01T12:53:26Z</time>
      </trkpt>
      <trkpt lat="43.708" lon="2.15811">
        <ele>233.74</ele>
        <time>2017-10-01T12:53:30Z</time>
      </trkpt>
      <trkpt lat="43.708" lon="2.15788">
        <ele>233.74</ele>
        <time>2017-10-01T12:53:46Z</time>
      </trkpt>
      <trkpt lat="43.708" lon="2.15779">
        <ele>233.74</ele>
        <time>2017-10-01T12:53:52Z</time>
      </trkpt>
      <trkpt lat="43.70799" lon="2.15755">
        <ele>233.74</ele>
        <time>2017-10-01T12:54:07Z</time>
      </trkpt>
      <trkpt lat="43.70799" lon="2.15753">
        <ele>233.74</ele>
        <time>2017-10-01T12:54:08Z</time>
      </trkpt>
      <trkpt lat="43.70798" lon="2.15741">
        <ele>233.74</ele>
        <time>2017-10-01T12:54:16Z</time>
      </trkpt>
      <trkpt lat="43.70795" lon="2.15721">
        <ele>233.74</ele>
        <time>2017-10-01T12:54:29Z</time>
      </trkpt>
      <trkpt lat="43.70791" lon="2.15698">
        <ele>233.26</ele>
        <time>2017-10-01T12:54:44Z</time>
      </trkpt>
      <trkpt lat="43.70788" lon="2.15685">
        <ele>233.26</ele>
        <time>2017-10-01T12:54:53Z</time>
      </trkpt>
      <trkpt lat="43.70785" lon="2.15672">
        <ele>233.26</ele>
        <time>2017-10-01T12:55:02Z</time>
      </trkpt>
      <trkpt lat="43.70784" lon="2.15665">
        <ele>233.26</ele>
        <time>2017-10-01T12:55:06Z</time>
      </trkpt>
      <trkpt lat="43.70782" lon="2.15658">
        <ele>233.26</ele>
        <time>2017-10-01T12:55:11Z</time>
      </trkpt>
      <trkpt lat="43.70779" lon="2.15645">
        <ele>233.26</ele>
        <time>2017-10-01T12:55:20Z</time>
      </trkpt>
      <trkpt lat="43.70773" lon="2.1563">
        <ele>233.26</ele>
        <time>2017-10-01T12:55:32Z</time>
      </trkpt>
      <trkpt lat="43.70771" lon="2.15622">
        <ele>233.26</ele>
        <time>2017-10-01T12:55:38Z</time>
      </trkpt>
      <trkpt lat="43.70769" lon="2.15617">
        <ele>233.26</ele>
        <time>2017-10-01T12:55:42Z</time>
      </trkpt>
      <trkpt lat="43.70768" lon="2.15615">
        <ele>233.26</ele>
        <time>2017-10-01T12:55:44Z</time>
      </trkpt>
      <trkpt lat="43.70759" lon="2.15592">
        <ele>233.26</ele>
        <time>2017-10-01T12:56:01Z</time>
      </trkpt>
      <trkpt lat="43.7075" lon="2.15574">
        <ele>232.78</ele>
        <time>2017-10-01T12:56:15Z</time>
      </trkpt>
      <trkpt lat="43.70744" lon="2.15563">
        <ele>232.78</ele>
        <time>2017-10-01T12:56:23Z</time>
      </trkpt>
      <trkpt lat="43.70738" lon="2.15549">
        <ele>232.78</ele>
        <time>2017-10-01T12:56:33Z</time>
      </trkpt>
      <trkpt lat="43.70726" lon="2.15527">
        <ele>232.3</ele>
        <time>2017-10-01T12:56:49Z</time>
      </trkpt>
      <trkpt lat="43.70724" lon="2.15522">
        <ele>232.78</ele>
        <time>2017-10-01T12:56:53Z</time>
      </trkpt>
      <trkpt lat="43.70715" lon="2.15502">
        <ele>232.3</ele>
        <time>2017-10-01T12:57:08Z</time>
      </trkpt>
      <trkpt lat="43.70715" lon="2.15501">
        <ele>232.3</ele>
        <time>2017-10-01T12:57:09Z</time>
      </trkpt>
      <trkpt lat="43.70707" lon="2.15486">
        <ele>232.3</ele>
        <time>2017-10-01T12:57:21Z</time>
      </trkpt>
      <trkpt lat="43.70705" lon="2.15482">
        <ele>231.81</ele>
        <time>2017-10-01T12:57:24Z</time>
      </trkpt>
      <trkpt lat="43.70701" lon="2.15474">
        <ele>231.81</ele>
        <time>2017-10-01T12:57:30Z</time>
      </trkpt>
      <trkpt lat="43.70691" lon="2.15453">
        <ele>231.81</ele>
        <time>2017-10-01T12:57:46Z</time>
      </trkpt>
      <trkpt lat="43.70681" lon="2.15433">
        <ele>231.81</ele>
        <time>2017-10-01T12:58:01Z</time>
      </trkpt>
      <trkpt lat="43.70674" lon="2.15417">
        <ele>231.33</ele>
        <time>2017-10-01T12:58:13Z</time>
      </trkpt>
      <trkpt lat="43.70668" lon="2.15405">
        <ele>231.33</ele>
        <time>2017-10-01T12:58:22Z</time>
      </trkpt>
      <trkpt lat="43.70659" lon="2.15386">
        <ele>230.85</ele>
        <time>2017-10-01T12:58:37Z</time>
      </trkpt>
      <trkpt lat="43.70651" lon="2.15368">
        <ele>230.37</ele>
        <time>2017-10-01T12:58:51Z</time>
      </trkpt>
      <trkpt lat="43.70648" lon="2.15363">
        <ele>230.37</ele>
        <time>2017-10-01T12:58:55Z</time>
      </trkpt>
      <trkpt lat="43.70647" lon="2.15361">
        <ele>230.37</ele>
        <time>2017-10-01T12:58:57Z</time>
      </trkpt>
      <trkpt lat="43.70643" lon="2.15351">
        <ele>230.37</ele>
        <time>2017-10-01T12:59:13Z</time>
      </trkpt>
      <trkpt lat="43.70636" lon="2.15342">
        <ele>230.37</ele>
        <time>2017-10-01T12:59:29Z</time>
      </trkpt>
      <trkpt lat="43.70625" lon="2.1532">
        <ele>229.89</ele>
        <time>2017-10-01T12:59:46Z</time>
      </trkpt>
      <trkpt lat="43.70619" lon="2.15309">
        <ele>229.89</ele>
        <time>2017-10-01T12:59:56Z</time>
      </trkpt>
      <trkpt lat="43.70609" lon="2.15285">
        <ele>229.41</ele>
        <time>2017-10-01T13:00:15Z</time>
      </trkpt>
      <trkpt lat="43.70599" lon="2.15266">
        <ele>229.41</ele>
        <time>2017-10-01T13:00:30Z</time>
      </trkpt>
      <trkpt lat="43.70592" lon="2.15251">
        <ele>228.93</ele>
        <time>2017-10-01T13:00:42Z</time>
      </trkpt>
      <trkpt lat="43.70584" lon="2.15233">
        <ele>229.41</ele>
        <time>2017-10-01T13:00:56Z</time>
      </trkpt>
      <trkpt lat="43.70577" lon="2.15217">
        <ele>228.45</ele>
        <time>2017-10-01T13:01:09Z</time>
      </trkpt>
      <trkpt lat="43.70567" lon="2.15198">
        <ele>227.97</ele>
        <time>2017-10-01T13:01:23Z</time>
      </trkpt>
      <trkpt lat="43.70559" lon="2.15181">
        <ele>227.97</ele>
        <time>2017-10-01T13:01:36Z</time>
      </trkpt>
      <trkpt lat="43.70551" lon="2.15165">
        <ele>227.97</ele>
        <time>2017-10-01T13:01:48Z</time>
      </trkpt>
      <trkpt lat="43.70545" lon="2.15153">
        <ele>227.49</ele>
        <time>2017-10-01T13:01:57Z</time>
      </trkpt>
      <trkpt lat="43.70538" lon="2.15139">
        <ele>227.01</ele>
        <time>2017-10-01T13:02:08Z</time>
      </trkpt>
      <trkpt lat="43.70537" lon="2.15135">
        <ele>227.01</ele>
        <time>2017-10-01T13:02:11Z</time>
      </trkpt>
      <trkpt lat="43.70534" lon="2.15132">
        <ele>227.01</ele>
        <time>2017-10-01T13:02:14Z</time>
      </trkpt>
      <trkpt lat="43.70531" lon="2.15124">
        <ele>227.01</ele>
        <time>2017-10-01T13:02:20Z</time>
      </trkpt>
      <trkpt lat="43.70526" lon="2.15114">
        <ele>227.01</ele>
        <time>2017-10-01T13:02:28Z</time>
      </trkpt>
      <trkpt lat="43.7052" lon="2.15103">
        <ele>227.01</ele>
        <time>2017-10-01T13:02:36Z</time>
      </trkpt>
      <trkpt lat="43.70517" lon="2.15099">
        <ele>226.53</ele>
        <time>2017-10-01T13:02:40Z</time>
      </trkpt>
      <trkpt lat="43.70513" lon="2.15091">
        <ele>227.01</ele>
        <time>2017-10-01T13:02:46Z</time>
      </trkpt>
      <trkpt lat="43.7051" lon="2.15082">
        <ele>227.01</ele>
        <time>2017-10-01T13:02:53Z</time>
      </trkpt>
      <trkpt lat="43.70509" lon="2.15075">
        <ele>227.01</ele>
        <time>2017-10-01T13:03:04Z</time>
      </trkpt>
      <trkpt lat="43.70504" lon="2.1507">
        <ele>226.53</ele>
        <time>2017-10-01T13:03:11Z</time>
      </trkpt>
      <trkpt lat="43.70493" lon="2.1505">
        <ele>226.05</ele>
        <time>2017-10-01T13:03:27Z</time>
      </trkpt>
      <trkpt lat="43.70487" lon="2.1504">
        <ele>226.05</ele>
        <time>2017-10-01T13:03:35Z</time>
      </trkpt>
      <trkpt lat="43.70479" lon="2.15024">
        <ele>225.57</ele>
        <time>2017-10-01T13:03:48Z</time>
      </trkpt>
      <trkpt lat="43.70468" lon="2.15008">
        <ele>225.09</ele>
        <time>2017-10-01T13:04:03Z</time>
      </trkpt>
      <trkpt lat="43.70467" lon="2.15006">
        <ele>225.09</ele>
        <time>2017-10-01T13:04:05Z</time>
      </trkpt>
      <trkpt lat="43.70456" lon="2.14989">
        <ele>225.09</ele>
        <time>2017-10-01T13:04:20Z</time>
      </trkpt>
      <trkpt lat="43.70446" lon="2.14975">
        <ele>224.61</ele>
        <time>2017-10-01T13:04:34Z</time>
      </trkpt>
      <trkpt lat="43.70435" lon="2.1496">
        <ele>224.12</ele>
        <time>2017-10-01T13:04:48Z</time>
      </trkpt>
      <trkpt lat="43.70424" lon="2.14946">
        <ele>224.12</ele>
        <time>2017-10-01T13:05:02Z</time>
      </trkpt>
      <trkpt lat="43.70421" lon="2.14942">
        <ele>224.12</ele>
        <time>2017-10-01T13:05:06Z</time>
      </trkpt>
      <trkpt lat="43.70411" lon="2.14931">
        <ele>223.64</ele>
        <time>2017-10-01T13:05:16Z</time>
      </trkpt>
      <trkpt lat="43.70402" lon="2.14921">
        <ele>223.16</ele>
        <time>2017-10-01T13:05:27Z</time>
      </trkpt>
      <trkpt lat="43.70389" lon="2.14908">
        <ele>223.16</ele>
        <time>2017-10-01T13:05:41Z</time>
      </trkpt>
      <trkpt lat="43.70385" lon="2.14902">
        <ele>222.68</ele>
        <time>2017-10-01T13:05:47Z</time>
      </trkpt>
      <trkpt lat="43.70382" lon="2.149">
        <ele>222.68</ele>
        <time>2017-10-01T13:05:50Z</time>
      </trkpt>
      <trkpt lat="43.7037" lon="2.14885">
        <ele>222.68</ele>
        <time>2017-10-01T13:06:05Z</time>
      </trkpt>
      <trkpt lat="43.70358" lon="2.14872">
        <ele>222.2</ele>
        <time>2017-10-01T13:06:19Z</time>
      </trkpt>
      <trkpt lat="43.70346" lon="2.14859">
        <ele>221.72</ele>
        <time>2017-10-01T13:06:33Z</time>
      </trkpt>
      <trkpt lat="43.70334" lon="2.14846">
        <ele>221.72</ele>
        <time>2017-10-01T13:06:47Z</time>
      </trkpt>
      <trkpt lat="43.70321" lon="2.14831">
        <ele>221.72</ele>
        <time>2017-10-01T13:07:02Z</time>
      </trkpt>
      <trkpt lat="43.70311" lon="2.1482">
        <ele>221.24</ele>
        <time>2017-10-01T13:07:15Z</time>
      </trkpt>
      <trkpt lat="43.70301" lon="2.14809">
        <ele>221.24</ele>
        <time>2017-10-01T13:07:27Z</time>
      </trkpt>
      <trkpt lat="43.7029" lon="2.14796">
        <ele>221.24</ele>
        <time>2017-10-01T13:07:40Z</time>
      </trkpt>
      <trkpt lat="43.70281" lon="2.14779">
        <ele>220.76</ele>
        <time>2017-10-01T13:07:53Z</time>
      </trkpt>
      <trkpt lat="43.7027" lon="2.1476">
        <ele>220.28</ele>
        <time>2017-10-01T13:08:08Z</time>
      </trkpt>
      <trkpt lat="43.70264" lon="2.1475">
        <ele>220.28</ele>
        <time>2017-10-01T13:08:19Z</time>
      </trkpt>
      <trkpt lat="43.7026" lon="2.14741">
        <ele>220.28</ele>
        <time>2017-10-01T13:08:26Z</time>
      </trkpt>
      <trkpt lat="43.70249" lon="2.14721">
        <ele>219.8</ele>
        <time>2017-10-01T13:08:41Z</time>
      </trkpt>
      <trkpt lat="43.70241" lon="2.14699">
        <ele>220.28</ele>
        <time>2017-10-01T13:08:57Z</time>
      </trkpt>
      <trkpt lat="43.70236" lon="2.14685">
        <ele>219.32</ele>
        <time>2017-10-01T13:09:12Z</time>
      </trkpt>
      <trkpt lat="43.70236" lon="2.14684">
        <ele>219.8</ele>
        <time>2017-10-01T13:09:13Z</time>
      </trkpt>
      <trkpt lat="43.7023" lon="2.14662">
        <ele>218.84</ele>
        <time>2017-10-01T13:09:28Z</time>
      </trkpt>
      <trkpt lat="43.70228" lon="2.14655">
        <ele>218.84</ele>
        <time>2017-10-01T13:09:36Z</time>
      </trkpt>
      <trkpt lat="43.70226" lon="2.14647">
        <ele>218.84</ele>
        <time>2017-10-01T13:09:41Z</time>
      </trkpt>
      <trkpt lat="43.70222" lon="2.14627">
        <ele>218.36</ele>
        <time>2017-10-01T13:09:54Z</time>
      </trkpt>
      <trkpt lat="43.70221" lon="2.14617">
        <ele>218.36</ele>
        <time>2017-10-01T13:10:08Z</time>
      </trkpt>
      <trkpt lat="43.7022" lon="2.14616">
        <ele>218.36</ele>
        <time>2017-10-01T13:10:09Z</time>
      </trkpt>
      <trkpt lat="43.70215" lon="2.14595">
        <ele>217.88</ele>
        <time>2017-10-01T13:10:23Z</time>
      </trkpt>
      <trkpt lat="43.70214" lon="2.14586">
        <ele>217.88</ele>
        <time>2017-10-01T13:10:29Z</time>
      </trkpt>
      <trkpt lat="43.70213" lon="2.1458">
        <ele>217.88</ele>
        <time>2017-10-01T13:10:33Z</time>
      </trkpt>
      <trkpt lat="43.70212" lon="2.14574">
        <ele>217.88</ele>
        <time>2017-10-01T13:10:38Z</time>
      </trkpt>
      <trkpt lat="43.70206" lon="2.14545">
        <ele>217.88</ele>
        <time>2017-10-01T13:10:57Z</time>
      </trkpt>
      <trkpt lat="43.70205" lon="2.14544">
        <ele>217.4</ele>
        <time>2017-10-01T13:10:58Z</time>
      </trkpt>
      <trkpt lat="43.70204" lon="2.14533">
        <ele>216.91</ele>
        <time>2017-10-01T13:11:05Z</time>
      </trkpt>
      <trkpt lat="43.70201" lon="2.14524">
        <ele>216.91</ele>
        <time>2017-10-01T13:11:11Z</time>
      </trkpt>
      <trkpt lat="43.702" lon="2.14511">
        <ele>216.91</ele>
        <time>2017-10-01T13:11:19Z</time>
      </trkpt>
      <trkpt lat="43.70198" lon="2.14504">
        <ele>216.91</ele>
        <time>2017-10-01T13:11:24Z</time>
      </trkpt>
      <trkpt lat="43.70197" lon="2.14497">
        <ele>216.43</ele>
        <time>2017-10-01T13:11:28Z</time>
      </trkpt>
      <trkpt lat="43.70194" lon="2.1448">
        <ele>216.43</ele>
        <time>2017-10-01T13:11:39Z</time>
      </trkpt>
      <trkpt lat="43.70189" lon="2.14457">
        <ele>215.95</ele>
        <time>2017-10-01T13:11:55Z</time>
      </trkpt>
      <trkpt lat="43.70184" lon="2.14433">
        <ele>215.95</ele>
        <time>2017-10-01T13:12:11Z</time>
      </trkpt>
      <trkpt lat="43.70182" lon="2.14424">
        <ele>215.95</ele>
        <time>2017-10-01T13:12:17Z</time>
      </trkpt>
      <trkpt lat="43.70178" lon="2.14413">
        <ele>215.95</ele>
        <time>2017-10-01T13:12:26Z</time>
      </trkpt>
      <trkpt lat="43.70177" lon="2.14403">
        <ele>215.47</ele>
        <time>2017-10-01T13:12:38Z</time>
      </trkpt>
      <trkpt lat="43.70174" lon="2.14399">
        <ele>215.47</ele>
        <time>2017-10-01T13:12:45Z</time>
      </trkpt>
      <trkpt lat="43.70169" lon="2.14382">
        <ele>215.95</ele>
        <time>2017-10-01T13:12:57Z</time>
      </trkpt>
      <trkpt lat="43.70161" lon="2.14363">
        <ele>214.99</ele>
        <time>2017-10-01T13:13:11Z</time>
      </trkpt>
      <trkpt lat="43.70161" lon="2.14362">
        <ele>214.99</ele>
        <time>2017-10-01T13:13:12Z</time>
      </trkpt>
      <trkpt lat="43.70158" lon="2.14356">
        <ele>214.99</ele>
        <time>2017-10-01T13:13:18Z</time>
      </trkpt>
      <trkpt lat="43.70155" lon="2.14348">
        <ele>214.99</ele>
        <time>2017-10-01T13:13:23Z</time>
      </trkpt>
      <trkpt lat="43.7015" lon="2.14335">
        <ele>214.51</ele>
        <time>2017-10-01T13:13:32Z</time>
      </trkpt>
      <trkpt lat="43.70142" lon="2.14314">
        <ele>214.51</ele>
        <time>2017-10-01T13:13:48Z</time>
      </trkpt>
      <trkpt lat="43.7014" lon="2.14299">
        <ele>214.51</ele>
        <time>2017-10-01T13:13:59Z</time>
      </trkpt>
      <trkpt lat="43.70139" lon="2.14296">
        <ele>214.51</ele>
        <time>2017-10-01T13:14:01Z</time>
      </trkpt>
      <trkpt lat="43.70139" lon="2.14293">
        <ele>214.99</ele>
        <time>2017-10-01T13:14:03Z</time>
      </trkpt>
      <trkpt lat="43.70135" lon="2.14277">
        <ele>214.99</ele>
        <time>2017-10-01T13:14:18Z</time>
      </trkpt>
      <trkpt lat="43.70145" lon="2.14275">
        <ele>214.99</ele>
        <time>2017-10-01T13:15:43Z</time>
      </trkpt>
      <trkpt lat="43.70156" lon="2.1427">
        <ele>215.95</ele>
        <time>2017-10-01T13:15:56Z</time>
      </trkpt>
      <trkpt lat="43.70166" lon="2.14265">
        <ele>217.4</ele>
        <time>2017-10-01T13:16:09Z</time>
      </trkpt>
      <trkpt lat="43.70176" lon="2.14262">
        <ele>218.36</ele>
        <time>2017-10-01T13:16:21Z</time>
      </trkpt>
      <trkpt lat="43.70184" lon="2.14258">
        <ele>220.28</ele>
        <time>2017-10-01T13:16:34Z</time>
      </trkpt>
      <trkpt lat="43.70189" lon="2.14256">
        <ele>220.76</ele>
        <time>2017-10-01T13:16:41Z</time>
      </trkpt>
      <trkpt lat="43.70196" lon="2.14254">
        <ele>221.72</ele>
        <time>2017-10-01T13:16:50Z</time>
      </trkpt>
      <trkpt lat="43.70198" lon="2.14252">
        <ele>222.2</ele>
        <time>2017-10-01T13:16:52Z</time>
      </trkpt>
      <trkpt lat="43.70208" lon="2.14248">
        <ele>223.16</ele>
        <time>2017-10-01T13:17:05Z</time>
      </trkpt>
      <trkpt lat="43.70212" lon="2.14245">
        <ele>223.16</ele>
        <time>2017-10-01T13:17:17Z</time>
      </trkpt>
      <trkpt lat="43.70216" lon="2.14241">
        <ele>223.64</ele>
        <time>2017-10-01T13:17:23Z</time>
      </trkpt>
      <trkpt lat="43.7022" lon="2.14237">
        <ele>224.12</ele>
        <time>2017-10-01T13:17:29Z</time>
      </trkpt>
      <trkpt lat="43.70224" lon="2.14222">
        <ele>225.09</ele>
        <time>2017-10-01T13:17:43Z</time>
      </trkpt>
      <trkpt lat="43.70229" lon="2.14211">
        <ele>226.05</ele>
        <time>2017-10-01T13:17:55Z</time>
      </trkpt>
      <trkpt lat="43.70232" lon="2.14198">
        <ele>227.49</ele>
        <time>2017-10-01T13:18:09Z</time>
      </trkpt>
      <trkpt lat="43.70238" lon="2.14186">
        <ele>228.93</ele>
        <time>2017-10-01T13:18:22Z</time>
      </trkpt>
      <trkpt lat="43.7024" lon="2.1418">
        <ele>229.41</ele>
        <time>2017-10-01T13:18:37Z</time>
      </trkpt>
      <trkpt lat="43.70242" lon="2.14173">
        <ele>229.89</ele>
        <time>2017-10-01T13:18:56Z</time>
      </trkpt>
      <trkpt lat="43.70246" lon="2.14165">
        <ele>230.85</ele>
        <time>2017-10-01T13:19:07Z</time>
      </trkpt>
      <trkpt lat="43.70251" lon="2.14152">
        <ele>232.3</ele>
        <time>2017-10-01T13:19:21Z</time>
      </trkpt>
      <trkpt lat="43.70254" lon="2.14146">
        <ele>232.78</ele>
        <time>2017-10-01T13:19:31Z</time>
      </trkpt>
      <trkpt lat="43.7026" lon="2.14134">
        <ele>233.74</ele>
        <time>2017-10-01T13:19:44Z</time>
      </trkpt>
      <trkpt lat="43.70265" lon="2.14123">
        <ele>234.7</ele>
        <time>2017-10-01T13:19:56Z</time>
      </trkpt>
      <trkpt lat="43.70272" lon="2.14108">
        <ele>235.66</ele>
        <time>2017-10-01T13:20:11Z</time>
      </trkpt>
      <trkpt lat="43.70277" lon="2.14099">
        <ele>236.14</ele>
        <time>2017-10-01T13:20:21Z</time>
      </trkpt>
      <trkpt lat="43.70286" lon="2.14094">
        <ele>237.58</ele>
        <time>2017-10-01T13:20:35Z</time>
      </trkpt>
      <trkpt lat="43.70293" lon="2.14102">
        <ele>238.54</ele>
        <time>2017-10-01T13:20:45Z</time>
      </trkpt>
      <trkpt lat="43.70299" lon="2.14106">
        <ele>239.02</ele>
        <time>2017-10-01T13:20:52Z</time>
      </trkpt>
      <trkpt lat="43.70307" lon="2.14115">
        <ele>239.51</ele>
        <time>2017-10-01T13:21:03Z</time>
      </trkpt>
      <trkpt lat="43.70314" lon="2.14124">
        <ele>239.51</ele>
        <time>2017-10-01T13:21:13Z</time>
      </trkpt>
      <trkpt lat="43.70323" lon="2.14135">
        <ele>239.99</ele>
        <time>2017-10-01T13:21:26Z</time>
      </trkpt>
      <trkpt lat="43.70331" lon="2.14142">
        <ele>240.47</ele>
        <time>2017-10-01T13:21:38Z</time>
      </trkpt>
      <trkpt lat="43.70343" lon="2.14146">
        <ele>240.95</ele>
        <time>2017-10-01T13:21:52Z</time>
      </trkpt>
      <trkpt lat="43.70353" lon="2.14152">
        <ele>241.91</ele>
        <time>2017-10-01T13:22:05Z</time>
      </trkpt>
      <trkpt lat="43.70366" lon="2.14155">
        <ele>242.39</ele>
        <time>2017-10-01T13:22:19Z</time>
      </trkpt>
      <trkpt lat="43.70381" lon="2.14157">
        <ele>243.83</ele>
        <time>2017-10-01T13:22:35Z</time>
      </trkpt>
      <trkpt lat="43.70392" lon="2.1416">
        <ele>244.79</ele>
        <time>2017-10-01T13:22:49Z</time>
      </trkpt>
      <trkpt lat="43.70404" lon="2.14154">
        <ele>245.75</ele>
        <time>2017-10-01T13:23:04Z</time>
      </trkpt>
      <trkpt lat="43.70415" lon="2.14148">
        <ele>245.75</ele>
        <time>2017-10-01T13:23:19Z</time>
      </trkpt>
      <trkpt lat="43.70424" lon="2.14142">
        <ele>245.75</ele>
        <time>2017-10-01T13:23:32Z</time>
      </trkpt>
      <trkpt lat="43.70436" lon="2.14138">
        <ele>245.75</ele>
        <time>2017-10-01T13:23:45Z</time>
      </trkpt>
      <trkpt lat="43.70447" lon="2.14137">
        <ele>245.75</ele>
        <time>2017-10-01T13:23:57Z</time>
      </trkpt>
      <trkpt lat="43.70459" lon="2.14137">
        <ele>245.75</ele>
        <time>2017-10-01T13:24:08Z</time>
      </trkpt>
      <trkpt lat="43.70471" lon="2.14141">
        <ele>245.75</ele>
        <time>2017-10-01T13:24:20Z</time>
      </trkpt>
      <trkpt lat="43.70478" lon="2.14144">
        <ele>245.75</ele>
        <time>2017-10-01T13:24:28Z</time>
      </trkpt>
      <trkpt lat="43.7049" lon="2.14153">
        <ele>245.75</ele>
        <time>2017-10-01T13:24:41Z</time>
      </trkpt>
      <trkpt lat="43.70501" lon="2.14161">
        <ele>246.23</ele>
        <time>2017-10-01T13:24:55Z</time>
      </trkpt>
      <trkpt lat="43.70512" lon="2.14169">
        <ele>247.2</ele>
        <time>2017-10-01T13:25:08Z</time>
      </trkpt>
      <trkpt lat="43.70518" lon="2.14173">
        <ele>247.68</ele>
        <time>2017-10-01T13:25:16Z</time>
      </trkpt>
      <trkpt lat="43.70528" lon="2.14184">
        <ele>248.16</ele>
        <time>2017-10-01T13:25:31Z</time>
      </trkpt>
      <trkpt lat="43.7054" lon="2.14193">
        <ele>249.6</ele>
        <time>2017-10-01T13:25:45Z</time>
      </trkpt>
      <trkpt lat="43.70551" lon="2.14201">
        <ele>250.56</ele>
        <time>2017-10-01T13:25:58Z</time>
      </trkpt>
      <trkpt lat="43.70551" lon="2.14203">
        <ele>250.56</ele>
        <time>2017-10-01T13:25:59Z</time>
      </trkpt>
      <trkpt lat="43.70552" lon="2.14205">
        <ele>250.56</ele>
        <time>2017-10-01T13:26:01Z</time>
      </trkpt>
      <trkpt lat="43.70552" lon="2.14208">
        <ele>250.56</ele>
        <time>2017-10-01T13:26:03Z</time>
      </trkpt>
      <trkpt lat="43.70552" lon="2.14224">
        <ele>250.08</ele>
        <time>2017-10-01T13:26:16Z</time>
      </trkpt>
      <trkpt lat="43.70549" lon="2.14244">
        <ele>249.6</ele>
        <time>2017-10-01T13:26:30Z</time>
      </trkpt>
      <trkpt lat="43.70549" lon="2.14252">
        <ele>249.6</ele>
        <time>2017-10-01T13:26:35Z</time>
      </trkpt>
      <trkpt lat="43.7055" lon="2.1426">
        <ele>249.6</ele>
        <time>2017-10-01T13:26:42Z</time>
      </trkpt>
      <trkpt lat="43.70561" lon="2.14266">
        <ele>248.16</ele>
        <time>2017-10-01T13:26:56Z</time>
      </trkpt>
      <trkpt lat="43.70576" lon="2.14265">
        <ele>247.68</ele>
        <time>2017-10-01T13:27:13Z</time>
      </trkpt>
      <trkpt lat="43.70583" lon="2.14261">
        <ele>247.68</ele>
        <time>2017-10-01T13:27:23Z</time>
      </trkpt>
      <trkpt lat="43.70588" lon="2.14259">
        <ele>247.2</ele>
        <time>2017-10-01T13:27:29Z</time>
      </trkpt>
      <trkpt lat="43.70592" lon="2.14255">
        <ele>247.2</ele>
        <time>2017-10-01T13:27:43Z</time>
      </trkpt>
      <trkpt lat="43.70597" lon="2.14252">
        <ele>247.2</ele>
        <time>2017-10-01T13:27:56Z</time>
      </trkpt>
      <trkpt lat="43.706" lon="2.14251">
        <ele>246.72</ele>
        <time>2017-10-01T13:28:08Z</time>
      </trkpt>
      <trkpt lat="43.70614" lon="2.14246">
        <ele>246.72</ele>
        <time>2017-10-01T13:28:24Z</time>
      </trkpt>
      <trkpt lat="43.70624" lon="2.14243">
        <ele>246.23</ele>
        <time>2017-10-01T13:28:35Z</time>
      </trkpt>
      <trkpt lat="43.70637" lon="2.1424">
        <ele>246.23</ele>
        <time>2017-10-01T13:28:49Z</time>
      </trkpt>
      <trkpt lat="43.7064" lon="2.14239">
        <ele>246.23</ele>
        <time>2017-10-01T13:28:51Z</time>
      </trkpt>
      <trkpt lat="43.70645" lon="2.14237">
        <ele>246.23</ele>
        <time>2017-10-01T13:29:03Z</time>
      </trkpt>
      <trkpt lat="43.70658" lon="2.14233">
        <ele>246.23</ele>
        <time>2017-10-01T13:29:17Z</time>
      </trkpt>
      <trkpt lat="43.70666" lon="2.14228">
        <ele>246.23</ele>
        <time>2017-10-01T13:29:26Z</time>
      </trkpt>
      <trkpt lat="43.70678" lon="2.14221">
        <ele>245.75</ele>
        <time>2017-10-01T13:29:39Z</time>
      </trkpt>
      <trkpt lat="43.70689" lon="2.14213">
        <ele>245.75</ele>
        <time>2017-10-01T13:29:51Z</time>
      </trkpt>
      <trkpt lat="43.70691" lon="2.14211">
        <ele>245.75</ele>
        <time>2017-10-01T13:29:54Z</time>
      </trkpt>
      <trkpt lat="43.70698" lon="2.14205">
        <ele>245.75</ele>
        <time>2017-10-01T13:30:03Z</time>
      </trkpt>
      <trkpt lat="43.70705" lon="2.14197">
        <ele>246.23</ele>
        <time>2017-10-01T13:30:15Z</time>
      </trkpt>
      <trkpt lat="43.70719" lon="2.14186">
        <ele>246.72</ele>
        <time>2017-10-01T13:30:31Z</time>
      </trkpt>
      <trkpt lat="43.70731" lon="2.14175">
        <ele>247.2</ele>
        <time>2017-10-01T13:30:45Z</time>
      </trkpt>
      <trkpt lat="43.70742" lon="2.14175">
        <ele>247.68</ele>
        <time>2017-10-01T13:35:09Z</time>
      </trkpt>
      <trkpt lat="43.70738" lon="2.14161">
        <ele>248.64</ele>
        <time>2017-10-01T13:35:32Z</time>
      </trkpt>
      <trkpt lat="43.70736" lon="2.14146">
        <ele>249.12</ele>
        <time>2017-10-01T13:35:48Z</time>
      </trkpt>
      <trkpt lat="43.70733" lon="2.14134">
        <ele>250.08</ele>
        <time>2017-10-01T13:35:58Z</time>
      </trkpt>
      <trkpt lat="43.70732" lon="2.14129">
        <ele>250.56</ele>
        <time>2017-10-01T13:36:07Z</time>
      </trkpt>
      <trkpt lat="43.7073" lon="2.14118">
        <ele>251.04</ele>
        <time>2017-10-01T13:36:19Z</time>
      </trkpt>
      <trkpt lat="43.70727" lon="2.14106">
        <ele>252</ele>
        <time>2017-10-01T13:36:31Z</time>
      </trkpt>
      <trkpt lat="43.70724" lon="2.14094">
        <ele>252.96</ele>
        <time>2017-10-01T13:36:42Z</time>
      </trkpt>
      <trkpt lat="43.70721" lon="2.14083">
        <ele>254.41</ele>
        <time>2017-10-01T13:36:54Z</time>
      </trkpt>
      <trkpt lat="43.7072" lon="2.14082">
        <ele>254.41</ele>
        <time>2017-10-01T13:36:55Z</time>
      </trkpt>
      <trkpt lat="43.70715" lon="2.14066">
        <ele>255.85</ele>
        <time>2017-10-01T13:37:10Z</time>
      </trkpt>
      <trkpt lat="43.70712" lon="2.14055">
        <ele>257.29</ele>
        <time>2017-10-01T13:37:22Z</time>
      </trkpt>
      <trkpt lat="43.70709" lon="2.14047">
        <ele>258.73</ele>
        <time>2017-10-01T13:37:33Z</time>
      </trkpt>
      <trkpt lat="43.70706" lon="2.14036">
        <ele>260.17</ele>
        <time>2017-10-01T13:37:46Z</time>
      </trkpt>
      <trkpt lat="43.70703" lon="2.14027">
        <ele>261.14</ele>
        <time>2017-10-01T13:37:56Z</time>
      </trkpt>
      <trkpt lat="43.70699" lon="2.14019">
        <ele>262.58</ele>
        <time>2017-10-01T13:38:09Z</time>
      </trkpt>
      <trkpt lat="43.70694" lon="2.14009">
        <ele>264.98</ele>
        <time>2017-10-01T13:38:23Z</time>
      </trkpt>
      <trkpt lat="43.70688" lon="2.13999">
        <ele>267.38</ele>
        <time>2017-10-01T13:38:37Z</time>
      </trkpt>
      <trkpt lat="43.70685" lon="2.13994">
        <ele>268.83</ele>
        <time>2017-10-01T13:38:49Z</time>
      </trkpt>
      <trkpt lat="43.70681" lon="2.13989">
        <ele>271.23</ele>
        <time>2017-10-01T13:39:08Z</time>
      </trkpt>
      <trkpt lat="43.70677" lon="2.13987">
        <ele>273.15</ele>
        <time>2017-10-01T13:39:19Z</time>
      </trkpt>
      <trkpt lat="43.70673" lon="2.13978">
        <ele>274.59</ele>
        <time>2017-10-01T13:39:32Z</time>
      </trkpt>
      <trkpt lat="43.7067" lon="2.13977">
        <ele>275.56</ele>
        <time>2017-10-01T13:39:54Z</time>
      </trkpt>
      <trkpt lat="43.70664" lon="2.13973">
        <ele>276.04</ele>
        <time>2017-10-01T13:41:32Z</time>
      </trkpt>
      <trkpt lat="43.70659" lon="2.13968">
        <ele>277</ele>
        <time>2017-10-01T13:41:46Z</time>
      </trkpt>
      <trkpt lat="43.70656" lon="2.13963">
        <ele>277.96</ele>
        <time>2017-10-01T13:42:00Z</time>
      </trkpt>
      <trkpt lat="43.70655" lon="2.13959">
        <ele>278.44</ele>
        <time>2017-10-01T13:42:19Z</time>
      </trkpt>
      <trkpt lat="43.70649" lon="2.13955">
        <ele>279.4</ele>
        <time>2017-10-01T13:42:33Z</time>
      </trkpt>
      <trkpt lat="43.70641" lon="2.13952">
        <ele>280.36</ele>
        <time>2017-10-01T13:42:48Z</time>
      </trkpt>
      <trkpt lat="43.7064" lon="2.13948">
        <ele>280.84</ele>
        <time>2017-10-01T13:43:02Z</time>
      </trkpt>
      <trkpt lat="43.70643" lon="2.13941">
        <ele>282.77</ele>
        <time>2017-10-01T13:43:45Z</time>
      </trkpt>
      <trkpt lat="43.70636" lon="2.13939">
        <ele>283.73</ele>
        <time>2017-10-01T13:45:29Z</time>
      </trkpt>
      <trkpt lat="43.70636" lon="2.13928">
        <ele>284.21</ele>
        <time>2017-10-01T13:45:51Z</time>
      </trkpt>
      <trkpt lat="43.70636" lon="2.13924">
        <ele>286.13</ele>
        <time>2017-10-01T13:46:02Z</time>
      </trkpt>
      <trkpt lat="43.70644" lon="2.13919">
        <ele>286.13</ele>
        <time>2017-10-01T13:46:15Z</time>
      </trkpt>
      <trkpt lat="43.70642" lon="2.13909">
        <ele>288.05</ele>
        <time>2017-10-01T13:46:31Z</time>
      </trkpt>
      <trkpt lat="43.70639" lon="2.13898">
        <ele>289.49</ele>
        <time>2017-10-01T13:46:52Z</time>
      </trkpt>
      <trkpt lat="43.70632" lon="2.13883">
        <ele>290.46</ele>
        <time>2017-10-01T13:47:09Z</time>
      </trkpt>
      <trkpt lat="43.70626" lon="2.1388">
        <ele>290.94</ele>
        <time>2017-10-01T13:47:20Z</time>
      </trkpt>
      <trkpt lat="43.7063" lon="2.13872">
        <ele>290.94</ele>
        <time>2017-10-01T13:48:07Z</time>
      </trkpt>
      <trkpt lat="43.70625" lon="2.13861">
        <ele>291.42</ele>
        <time>2017-10-01T13:48:18Z</time>
      </trkpt>
      <trkpt lat="43.70624" lon="2.13854">
        <ele>291.42</ele>
        <time>2017-10-01T13:48:31Z</time>
      </trkpt>
      <trkpt lat="43.70622" lon="2.13851">
        <ele>291.9</ele>
        <time>2017-10-01T13:52:09Z</time>
      </trkpt>
      <trkpt lat="43.7062" lon="2.13849">
        <ele>292.38</ele>
        <time>2017-10-01T13:52:35Z</time>
      </trkpt>
      <trkpt lat="43.7062" lon="2.13848">
        <ele>292.38</ele>
        <time>2017-10-01T13:52:58Z</time>
      </trkpt>
      <trkpt lat="43.70613" lon="2.13836">
        <ele>291.9</ele>
        <time>2017-10-01T13:53:13Z</time>
      </trkpt>
      <trkpt lat="43.70607" lon="2.13821">
        <ele>291.9</ele>
        <time>2017-10-01T13:53:29Z</time>
      </trkpt>
      <trkpt lat="43.70595" lon="2.13807">
        <ele>291.9</ele>
        <time>2017-10-01T13:53:47Z</time>
      </trkpt>
      <trkpt lat="43.70588" lon="2.13792">
        <ele>292.38</ele>
        <time>2017-10-01T13:54:03Z</time>
      </trkpt>
      <trkpt lat="43.70585" lon="2.13783">
        <ele>292.38</ele>
        <time>2017-10-01T13:54:19Z</time>
      </trkpt>
      <trkpt lat="43.70583" lon="2.13777">
        <ele>292.86</ele>
        <time>2017-10-01T13:54:34Z</time>
      </trkpt>
    </trkseg>
  </trk>
</gpx>